<?xml version="1.0" encoding="UTF-8" ?>
<gpx version="1.1" xmlns:xsi="http://www.w3.org/2001/XMLSchema-instance"
    xmlns="http://www.topografix.com/GPX/1/1"
    xsi:schemaLocation="http://www.topografix.com/GPX/1/1 http://www.topografix.com/GPX/1/1/gpx.xsd"
    creator="Openrunner - https://www.openrunner.com" >	<trk>
	                   <name>Traversée du Bochaine-25098455</name>
						<trkseg>
					<trkpt lat="44.379140" lon="5.768830">
						<ele>712</ele>
						<time>2026-09-02T12:39:51Z</time>
					</trkpt>
					<trkpt lat="44.379230" lon="5.768900">
						<ele>713</ele>
						<time>2026-09-02T12:39:56Z</time>
					</trkpt>
					<trkpt lat="44.379460" lon="5.768940">
						<ele>717</ele>
						<time>2026-09-02T12:40:08Z</time>
					</trkpt>
					<trkpt lat="44.379670" lon="5.769050">
						<ele>718</ele>
						<time>2026-09-02T12:40:19Z</time>
					</trkpt>
					<trkpt lat="44.379840" lon="5.769080">
						<ele>720</ele>
						<time>2026-09-02T12:40:28Z</time>
					</trkpt>
					<trkpt lat="44.380480" lon="5.769050">
						<ele>727</ele>
						<time>2026-09-02T12:41:00Z</time>
					</trkpt>
					<trkpt lat="44.380600" lon="5.769010">
						<ele>729</ele>
						<time>2026-09-02T12:41:06Z</time>
					</trkpt>
					<trkpt lat="44.380670" lon="5.768950">
						<ele>732</ele>
						<time>2026-09-02T12:41:10Z</time>
					</trkpt>
					<trkpt lat="44.380780" lon="5.768790">
						<ele>738</ele>
						<time>2026-09-02T12:41:18Z</time>
					</trkpt>
					<trkpt lat="44.380870" lon="5.768730">
						<ele>741</ele>
						<time>2026-09-02T12:41:23Z</time>
					</trkpt>
					<trkpt lat="44.380950" lon="5.768720">
						<ele>743</ele>
						<time>2026-09-02T12:41:27Z</time>
					</trkpt>
					<trkpt lat="44.381140" lon="5.768770">
						<ele>747</ele>
						<time>2026-09-02T12:41:36Z</time>
					</trkpt>
					<trkpt lat="44.381200" lon="5.768880">
						<ele>746</ele>
						<time>2026-09-02T12:41:41Z</time>
					</trkpt>
					<trkpt lat="44.381300" lon="5.769290">
						<ele>743</ele>
						<time>2026-09-02T12:41:57Z</time>
					</trkpt>
					<trkpt lat="44.381260" lon="5.769430">
						<ele>742</ele>
						<time>2026-09-02T12:42:02Z</time>
					</trkpt>
					<trkpt lat="44.381020" lon="5.769890">
						<ele>734</ele>
						<time>2026-09-02T12:42:23Z</time>
					</trkpt>
					<trkpt lat="44.380990" lon="5.770020">
						<ele>733</ele>
						<time>2026-09-02T12:42:28Z</time>
					</trkpt>
					<trkpt lat="44.381000" lon="5.770210">
						<ele>731</ele>
						<time>2026-09-02T12:42:34Z</time>
					</trkpt>
					<trkpt lat="44.381060" lon="5.770500">
						<ele>730</ele>
						<time>2026-09-02T12:42:45Z</time>
					</trkpt>
					<trkpt lat="44.381310" lon="5.770750">
						<ele>734</ele>
						<time>2026-09-02T12:43:01Z</time>
					</trkpt>
					<trkpt lat="44.381600" lon="5.770870">
						<ele>739</ele>
						<time>2026-09-02T12:43:16Z</time>
					</trkpt>
					<trkpt lat="44.381680" lon="5.770870">
						<ele>741</ele>
						<time>2026-09-02T12:43:20Z</time>
					</trkpt>
					<trkpt lat="44.381790" lon="5.770910">
						<ele>741</ele>
						<time>2026-09-02T12:43:25Z</time>
					</trkpt>
					<trkpt lat="44.381980" lon="5.771090">
						<ele>738</ele>
						<time>2026-09-02T12:43:37Z</time>
					</trkpt>
					<trkpt lat="44.382030" lon="5.771110">
						<ele>738</ele>
						<time>2026-09-02T12:43:39Z</time>
					</trkpt>
					<trkpt lat="44.382190" lon="5.770930">
						<ele>742</ele>
						<time>2026-09-02T12:43:50Z</time>
					</trkpt>
					<trkpt lat="44.382300" lon="5.770730">
						<ele>747</ele>
						<time>2026-09-02T12:43:59Z</time>
					</trkpt>
					<trkpt lat="44.382330" lon="5.770630">
						<ele>749</ele>
						<time>2026-09-02T12:44:03Z</time>
					</trkpt>
					<trkpt lat="44.382410" lon="5.770520">
						<ele>752</ele>
						<time>2026-09-02T12:44:08Z</time>
					</trkpt>
					<trkpt lat="44.382510" lon="5.770480">
						<ele>754</ele>
						<time>2026-09-02T12:44:13Z</time>
					</trkpt>
					<trkpt lat="44.382560" lon="5.770510">
						<ele>755</ele>
						<time>2026-09-02T12:44:16Z</time>
					</trkpt>
					<trkpt lat="44.382580" lon="5.770680">
						<ele>752</ele>
						<time>2026-09-02T12:44:22Z</time>
					</trkpt>
					<trkpt lat="44.382680" lon="5.770860">
						<ele>751</ele>
						<time>2026-09-02T12:44:31Z</time>
					</trkpt>
					<trkpt lat="44.382710" lon="5.771110">
						<ele>750</ele>
						<time>2026-09-02T12:44:40Z</time>
					</trkpt>
					<trkpt lat="44.382690" lon="5.771240">
						<ele>748</ele>
						<time>2026-09-02T12:44:44Z</time>
					</trkpt>
					<trkpt lat="44.382500" lon="5.771830">
						<ele>736</ele>
						<time>2026-09-02T12:45:07Z</time>
					</trkpt>
					<trkpt lat="44.382500" lon="5.771990">
						<ele>735</ele>
						<time>2026-09-02T12:45:13Z</time>
					</trkpt>
					<trkpt lat="44.382560" lon="5.772310">
						<ele>737</ele>
						<time>2026-09-02T12:45:25Z</time>
					</trkpt>
					<trkpt lat="44.382670" lon="5.772570">
						<ele>740</ele>
						<time>2026-09-02T12:45:36Z</time>
					</trkpt>
					<trkpt lat="44.382780" lon="5.772710">
						<ele>743</ele>
						<time>2026-09-02T12:45:43Z</time>
					</trkpt>
					<trkpt lat="44.382820" lon="5.772910">
						<ele>743</ele>
						<time>2026-09-02T12:45:51Z</time>
					</trkpt>
					<trkpt lat="44.382960" lon="5.773190">
						<ele>747</ele>
						<time>2026-09-02T12:46:03Z</time>
					</trkpt>
					<trkpt lat="44.383070" lon="5.773720">
						<ele>745</ele>
						<time>2026-09-02T12:46:23Z</time>
					</trkpt>
					<trkpt lat="44.383080" lon="5.773940">
						<ele>742</ele>
						<time>2026-09-02T12:46:31Z</time>
					</trkpt>
					<trkpt lat="44.383140" lon="5.774070">
						<ele>743</ele>
						<time>2026-09-02T12:46:36Z</time>
					</trkpt>
					<trkpt lat="44.383180" lon="5.774330">
						<ele>740</ele>
						<time>2026-09-02T12:46:46Z</time>
					</trkpt>
					<trkpt lat="44.383210" lon="5.774400">
						<ele>740</ele>
						<time>2026-09-02T12:46:49Z</time>
					</trkpt>
					<trkpt lat="44.383450" lon="5.774630">
						<ele>745</ele>
						<time>2026-09-02T12:47:03Z</time>
					</trkpt>
					<trkpt lat="44.383520" lon="5.774760">
						<ele>746</ele>
						<time>2026-09-02T12:47:09Z</time>
					</trkpt>
					<trkpt lat="44.383630" lon="5.775370">
						<ele>741</ele>
						<time>2026-09-02T12:47:31Z</time>
					</trkpt>
					<trkpt lat="44.383860" lon="5.775880">
						<ele>743</ele>
						<time>2026-09-02T12:47:53Z</time>
					</trkpt>
					<trkpt lat="44.383960" lon="5.776270">
						<ele>744</ele>
						<time>2026-09-02T12:48:08Z</time>
					</trkpt>
					<trkpt lat="44.384060" lon="5.776860">
						<ele>744</ele>
						<time>2026-09-02T12:48:29Z</time>
					</trkpt>
					<trkpt lat="44.384060" lon="5.777070">
						<ele>744</ele>
						<time>2026-09-02T12:48:37Z</time>
					</trkpt>
					<trkpt lat="44.383970" lon="5.777480">
						<ele>740</ele>
						<time>2026-09-02T12:48:52Z</time>
					</trkpt>
					<trkpt lat="44.383930" lon="5.778110">
						<ele>738</ele>
						<time>2026-09-02T12:49:15Z</time>
					</trkpt>
					<trkpt lat="44.384050" lon="5.778690">
						<ele>740</ele>
						<time>2026-09-02T12:49:37Z</time>
					</trkpt>
					<trkpt lat="44.384110" lon="5.779560">
						<ele>739</ele>
						<time>2026-09-02T12:50:08Z</time>
					</trkpt>
					<trkpt lat="44.384170" lon="5.779990">
						<ele>738</ele>
						<time>2026-09-02T12:50:23Z</time>
					</trkpt>
					<trkpt lat="44.384230" lon="5.780120">
						<ele>740</ele>
						<time>2026-09-02T12:50:29Z</time>
					</trkpt>
					<trkpt lat="44.384390" lon="5.780350">
						<ele>746</ele>
						<time>2026-09-02T12:50:40Z</time>
					</trkpt>
					<trkpt lat="44.384580" lon="5.780750">
						<ele>751</ele>
						<time>2026-09-02T12:50:58Z</time>
					</trkpt>
					<trkpt lat="44.384730" lon="5.781570">
						<ele>748</ele>
						<time>2026-09-02T12:51:28Z</time>
					</trkpt>
					<trkpt lat="44.384910" lon="5.782130">
						<ele>745</ele>
						<time>2026-09-02T12:51:50Z</time>
					</trkpt>
					<trkpt lat="44.385140" lon="5.782550">
						<ele>745</ele>
						<time>2026-09-02T12:52:09Z</time>
					</trkpt>
					<trkpt lat="44.385230" lon="5.782820">
						<ele>748</ele>
						<time>2026-09-02T12:52:19Z</time>
					</trkpt>
					<trkpt lat="44.385460" lon="5.783230">
						<ele>749</ele>
						<time>2026-09-02T12:52:38Z</time>
					</trkpt>
					<trkpt lat="44.385830" lon="5.783670">
						<ele>748</ele>
						<time>2026-09-02T12:53:02Z</time>
					</trkpt>
					<trkpt lat="44.385950" lon="5.783860">
						<ele>753</ele>
						<time>2026-09-02T12:53:11Z</time>
					</trkpt>
					<trkpt lat="44.386120" lon="5.784030">
						<ele>760</ele>
						<time>2026-09-02T12:53:22Z</time>
					</trkpt>
					<trkpt lat="44.386160" lon="5.784120">
						<ele>761</ele>
						<time>2026-09-02T12:53:26Z</time>
					</trkpt>
					<trkpt lat="44.386200" lon="5.784380">
						<ele>763</ele>
						<time>2026-09-02T12:53:35Z</time>
					</trkpt>
					<trkpt lat="44.386240" lon="5.784480">
						<ele>764</ele>
						<time>2026-09-02T12:53:39Z</time>
					</trkpt>
					<trkpt lat="44.386500" lon="5.784940">
						<ele>762</ele>
						<time>2026-09-02T12:54:00Z</time>
					</trkpt>
					<trkpt lat="44.386560" lon="5.785200">
						<ele>762</ele>
						<time>2026-09-02T12:54:10Z</time>
					</trkpt>
					<trkpt lat="44.386630" lon="5.785330">
						<ele>762</ele>
						<time>2026-09-02T12:54:16Z</time>
					</trkpt>
					<trkpt lat="44.386680" lon="5.785570">
						<ele>762</ele>
						<time>2026-09-02T12:54:25Z</time>
					</trkpt>
					<trkpt lat="44.386860" lon="5.785940">
						<ele>770</ele>
						<time>2026-09-02T12:54:41Z</time>
					</trkpt>
					<trkpt lat="44.386880" lon="5.786250">
						<ele>769</ele>
						<time>2026-09-02T12:54:52Z</time>
					</trkpt>
					<trkpt lat="44.386850" lon="5.786440">
						<ele>767</ele>
						<time>2026-09-02T12:54:59Z</time>
					</trkpt>
					<trkpt lat="44.386880" lon="5.786580">
						<ele>767</ele>
						<time>2026-09-02T12:55:04Z</time>
					</trkpt>
					<trkpt lat="44.387010" lon="5.786720">
						<ele>770</ele>
						<time>2026-09-02T12:55:12Z</time>
					</trkpt>
					<trkpt lat="44.387290" lon="5.786900">
						<ele>776</ele>
						<time>2026-09-02T12:55:28Z</time>
					</trkpt>
					<trkpt lat="44.387440" lon="5.787090">
						<ele>778</ele>
						<time>2026-09-02T12:55:38Z</time>
					</trkpt>
					<trkpt lat="44.387490" lon="5.787400">
						<ele>777</ele>
						<time>2026-09-02T12:55:49Z</time>
					</trkpt>
					<trkpt lat="44.387530" lon="5.788070">
						<ele>783</ele>
						<time>2026-09-02T12:56:13Z</time>
					</trkpt>
					<trkpt lat="44.387620" lon="5.788170">
						<ele>785</ele>
						<time>2026-09-02T12:56:19Z</time>
					</trkpt>
					<trkpt lat="44.387700" lon="5.788210">
						<ele>786</ele>
						<time>2026-09-02T12:56:23Z</time>
					</trkpt>
					<trkpt lat="44.387790" lon="5.788210">
						<ele>787</ele>
						<time>2026-09-02T12:56:28Z</time>
					</trkpt>
					<trkpt lat="44.387980" lon="5.788340">
						<ele>788</ele>
						<time>2026-09-02T12:56:38Z</time>
					</trkpt>
					<trkpt lat="44.388210" lon="5.788610">
						<ele>788</ele>
						<time>2026-09-02T12:56:53Z</time>
					</trkpt>
					<trkpt lat="44.388310" lon="5.788810">
						<ele>785</ele>
						<time>2026-09-02T12:57:02Z</time>
					</trkpt>
					<trkpt lat="44.388350" lon="5.788980">
						<ele>783</ele>
						<time>2026-09-02T12:57:09Z</time>
					</trkpt>
					<trkpt lat="44.388290" lon="5.789240">
						<ele>781</ele>
						<time>2026-09-02T12:57:18Z</time>
					</trkpt>
					<trkpt lat="44.388190" lon="5.789390">
						<ele>784</ele>
						<time>2026-09-02T12:57:26Z</time>
					</trkpt>
					<trkpt lat="44.387880" lon="5.789650">
						<ele>794</ele>
						<time>2026-09-02T12:57:44Z</time>
					</trkpt>
					<trkpt lat="44.387810" lon="5.789940">
						<ele>798</ele>
						<time>2026-09-02T12:57:55Z</time>
					</trkpt>
					<trkpt lat="44.387810" lon="5.790070">
						<ele>798</ele>
						<time>2026-09-02T12:57:59Z</time>
					</trkpt>
					<trkpt lat="44.387850" lon="5.790160">
						<ele>797</ele>
						<time>2026-09-02T12:58:03Z</time>
					</trkpt>
					<trkpt lat="44.388140" lon="5.790340">
						<ele>789</ele>
						<time>2026-09-02T12:58:19Z</time>
					</trkpt>
					<trkpt lat="44.388170" lon="5.790420">
						<ele>789</ele>
						<time>2026-09-02T12:58:22Z</time>
					</trkpt>
					<trkpt lat="44.387970" lon="5.790760">
						<ele>794</ele>
						<time>2026-09-02T12:58:38Z</time>
					</trkpt>
					<trkpt lat="44.387880" lon="5.791000">
						<ele>798</ele>
						<time>2026-09-02T12:58:48Z</time>
					</trkpt>
					<trkpt lat="44.387850" lon="5.791040">
						<ele>799</ele>
						<time>2026-09-02T12:58:50Z</time>
					</trkpt>
					<trkpt lat="44.387630" lon="5.791120">
						<ele>804</ele>
						<time>2026-09-02T12:59:01Z</time>
					</trkpt>
					<trkpt lat="44.387500" lon="5.791200">
						<ele>807</ele>
						<time>2026-09-02T12:59:08Z</time>
					</trkpt>
					<trkpt lat="44.387460" lon="5.791260">
						<ele>809</ele>
						<time>2026-09-02T12:59:11Z</time>
					</trkpt>
					<trkpt lat="44.387480" lon="5.791360">
						<ele>808</ele>
						<time>2026-09-02T12:59:15Z</time>
					</trkpt>
					<trkpt lat="44.387490" lon="5.791380">
						<ele>807</ele>
						<time>2026-09-02T12:59:16Z</time>
					</trkpt>
					<trkpt lat="44.387540" lon="5.791360">
						<ele>806</ele>
						<time>2026-09-02T12:59:18Z</time>
					</trkpt>
					<trkpt lat="44.387670" lon="5.791400">
						<ele>804</ele>
						<time>2026-09-02T12:59:25Z</time>
					</trkpt>
					<trkpt lat="44.387770" lon="5.791480">
						<ele>803</ele>
						<time>2026-09-02T12:59:31Z</time>
					</trkpt>
					<trkpt lat="44.387750" lon="5.792170">
						<ele>815</ele>
						<time>2026-09-02T12:59:55Z</time>
					</trkpt>
					<trkpt lat="44.387830" lon="5.792380">
						<ele>819</ele>
						<time>2026-09-02T13:00:04Z</time>
					</trkpt>
					<trkpt lat="44.387910" lon="5.792330">
						<ele>817</ele>
						<time>2026-09-02T13:00:08Z</time>
					</trkpt>
					<trkpt lat="44.387950" lon="5.792140">
						<ele>812</ele>
						<time>2026-09-02T13:00:15Z</time>
					</trkpt>
					<trkpt lat="44.388100" lon="5.791910">
						<ele>806</ele>
						<time>2026-09-02T13:00:27Z</time>
					</trkpt>
					<trkpt lat="44.388160" lon="5.791840">
						<ele>804</ele>
						<time>2026-09-02T13:00:31Z</time>
					</trkpt>
					<trkpt lat="44.388220" lon="5.791810">
						<ele>802</ele>
						<time>2026-09-02T13:00:34Z</time>
					</trkpt>
					<trkpt lat="44.388280" lon="5.791840">
						<ele>803</ele>
						<time>2026-09-02T13:00:37Z</time>
					</trkpt>
					<trkpt lat="44.388450" lon="5.792160">
						<ele>808</ele>
						<time>2026-09-02T13:00:51Z</time>
					</trkpt>
					<trkpt lat="44.388620" lon="5.792360">
						<ele>812</ele>
						<time>2026-09-02T13:01:02Z</time>
					</trkpt>
					<trkpt lat="44.388900" lon="5.792590">
						<ele>815</ele>
						<time>2026-09-02T13:01:19Z</time>
					</trkpt>
					<trkpt lat="44.389180" lon="5.792770">
						<ele>814</ele>
						<time>2026-09-02T13:01:34Z</time>
					</trkpt>
					<trkpt lat="44.388970" lon="5.793010">
						<ele>818</ele>
						<time>2026-09-02T13:01:48Z</time>
					</trkpt>
					<trkpt lat="44.388960" lon="5.793130">
						<ele>819</ele>
						<time>2026-09-02T13:01:52Z</time>
					</trkpt>
					<trkpt lat="44.388890" lon="5.793340">
						<ele>822</ele>
						<time>2026-09-02T13:02:00Z</time>
					</trkpt>
					<trkpt lat="44.388900" lon="5.793420">
						<ele>823</ele>
						<time>2026-09-02T13:02:03Z</time>
					</trkpt>
					<trkpt lat="44.388870" lon="5.793640">
						<ele>825</ele>
						<time>2026-09-02T13:02:11Z</time>
					</trkpt>
					<trkpt lat="44.388950" lon="5.793880">
						<ele>825</ele>
						<time>2026-09-02T13:02:20Z</time>
					</trkpt>
					<trkpt lat="44.389020" lon="5.793990">
						<ele>824</ele>
						<time>2026-09-02T13:02:26Z</time>
					</trkpt>
					<trkpt lat="44.389180" lon="5.794090">
						<ele>820</ele>
						<time>2026-09-02T13:02:35Z</time>
					</trkpt>
					<trkpt lat="44.389240" lon="5.794040">
						<ele>819</ele>
						<time>2026-09-02T13:02:38Z</time>
					</trkpt>
					<trkpt lat="44.389360" lon="5.794030">
						<ele>817</ele>
						<time>2026-09-02T13:02:44Z</time>
					</trkpt>
					<trkpt lat="44.389470" lon="5.794100">
						<ele>817</ele>
						<time>2026-09-02T13:02:50Z</time>
					</trkpt>
					<trkpt lat="44.389710" lon="5.794350">
						<ele>816</ele>
						<time>2026-09-02T13:03:05Z</time>
					</trkpt>
					<trkpt lat="44.389890" lon="5.794800">
						<ele>817</ele>
						<time>2026-09-02T13:03:24Z</time>
					</trkpt>
					<trkpt lat="44.389870" lon="5.795050">
						<ele>818</ele>
						<time>2026-09-02T13:03:32Z</time>
					</trkpt>
					<trkpt lat="44.389920" lon="5.795170">
						<ele>817</ele>
						<time>2026-09-02T13:03:37Z</time>
					</trkpt>
					<trkpt lat="44.389910" lon="5.795480">
						<ele>819</ele>
						<time>2026-09-02T13:03:49Z</time>
					</trkpt>
					<trkpt lat="44.389990" lon="5.795670">
						<ele>816</ele>
						<time>2026-09-02T13:03:56Z</time>
					</trkpt>
					<trkpt lat="44.390040" lon="5.795880">
						<ele>818</ele>
						<time>2026-09-02T13:04:04Z</time>
					</trkpt>
					<trkpt lat="44.390140" lon="5.796100">
						<ele>823</ele>
						<time>2026-09-02T13:04:14Z</time>
					</trkpt>
					<trkpt lat="44.390190" lon="5.796160">
						<ele>825</ele>
						<time>2026-09-02T13:04:17Z</time>
					</trkpt>
					<trkpt lat="44.390340" lon="5.796220">
						<ele>827</ele>
						<time>2026-09-02T13:04:25Z</time>
					</trkpt>
					<trkpt lat="44.390410" lon="5.796310">
						<ele>828</ele>
						<time>2026-09-02T13:04:30Z</time>
					</trkpt>
					<trkpt lat="44.390480" lon="5.796350">
						<ele>828</ele>
						<time>2026-09-02T13:04:33Z</time>
					</trkpt>
					<trkpt lat="44.390620" lon="5.796350">
						<ele>829</ele>
						<time>2026-09-02T13:04:40Z</time>
					</trkpt>
					<trkpt lat="44.390670" lon="5.796310">
						<ele>830</ele>
						<time>2026-09-02T13:04:43Z</time>
					</trkpt>
					<trkpt lat="44.390730" lon="5.796330">
						<ele>831</ele>
						<time>2026-09-02T13:04:46Z</time>
					</trkpt>
					<trkpt lat="44.390780" lon="5.796400">
						<ele>830</ele>
						<time>2026-09-02T13:04:50Z</time>
					</trkpt>
					<trkpt lat="44.390850" lon="5.796430">
						<ele>830</ele>
						<time>2026-09-02T13:04:54Z</time>
					</trkpt>
					<trkpt lat="44.391000" lon="5.796350">
						<ele>836</ele>
						<time>2026-09-02T13:05:02Z</time>
					</trkpt>
					<trkpt lat="44.391040" lon="5.796360">
						<ele>837</ele>
						<time>2026-09-02T13:05:04Z</time>
					</trkpt>
					<trkpt lat="44.391190" lon="5.796300">
						<ele>842</ele>
						<time>2026-09-02T13:05:11Z</time>
					</trkpt>
					<trkpt lat="44.391280" lon="5.796330">
						<ele>844</ele>
						<time>2026-09-02T13:05:16Z</time>
					</trkpt>
					<trkpt lat="44.391420" lon="5.796270">
						<ele>849</ele>
						<time>2026-09-02T13:05:23Z</time>
					</trkpt>
					<trkpt lat="44.391660" lon="5.796320">
						<ele>855</ele>
						<time>2026-09-02T13:05:35Z</time>
					</trkpt>
					<trkpt lat="44.391760" lon="5.796270">
						<ele>858</ele>
						<time>2026-09-02T13:05:41Z</time>
					</trkpt>
					<trkpt lat="44.391880" lon="5.796250">
						<ele>861</ele>
						<time>2026-09-02T13:05:47Z</time>
					</trkpt>
					<trkpt lat="44.392170" lon="5.796090">
						<ele>868</ele>
						<time>2026-09-02T13:06:02Z</time>
					</trkpt>
					<trkpt lat="44.392270" lon="5.796000">
						<ele>871</ele>
						<time>2026-09-02T13:06:08Z</time>
					</trkpt>
					<trkpt lat="44.392530" lon="5.795870">
						<ele>874</ele>
						<time>2026-09-02T13:06:22Z</time>
					</trkpt>
					<trkpt lat="44.392690" lon="5.795880">
						<ele>875</ele>
						<time>2026-09-02T13:06:30Z</time>
					</trkpt>
					<trkpt lat="44.392870" lon="5.795930">
						<ele>877</ele>
						<time>2026-09-02T13:06:39Z</time>
					</trkpt>
					<trkpt lat="44.393200" lon="5.795940">
						<ele>879</ele>
						<time>2026-09-02T13:06:56Z</time>
					</trkpt>
					<trkpt lat="44.393740" lon="5.795870">
						<ele>882</ele>
						<time>2026-09-02T13:07:23Z</time>
					</trkpt>
					<trkpt lat="44.393890" lon="5.795890">
						<ele>883</ele>
						<time>2026-09-02T13:07:31Z</time>
					</trkpt>
					<trkpt lat="44.394150" lon="5.795840">
						<ele>883</ele>
						<time>2026-09-02T13:07:44Z</time>
					</trkpt>
					<trkpt lat="44.394460" lon="5.795850">
						<ele>885</ele>
						<time>2026-09-02T13:07:59Z</time>
					</trkpt>
					<trkpt lat="44.394880" lon="5.795720">
						<ele>889</ele>
						<time>2026-09-02T13:08:21Z</time>
					</trkpt>
					<trkpt lat="44.395060" lon="5.795720">
						<ele>890</ele>
						<time>2026-09-02T13:08:30Z</time>
					</trkpt>
					<trkpt lat="44.395370" lon="5.795660">
						<ele>892</ele>
						<time>2026-09-02T13:08:45Z</time>
					</trkpt>
					<trkpt lat="44.396090" lon="5.795440">
						<ele>894</ele>
						<time>2026-09-02T13:09:22Z</time>
					</trkpt>
					<trkpt lat="44.396500" lon="5.795280">
						<ele>893</ele>
						<time>2026-09-02T13:09:44Z</time>
					</trkpt>
					<trkpt lat="44.396800" lon="5.795230">
						<ele>892</ele>
						<time>2026-09-02T13:09:59Z</time>
					</trkpt>
					<trkpt lat="44.396960" lon="5.795320">
						<ele>893</ele>
						<time>2026-09-02T13:10:07Z</time>
					</trkpt>
					<trkpt lat="44.397190" lon="5.795500">
						<ele>896</ele>
						<time>2026-09-02T13:10:21Z</time>
					</trkpt>
					<trkpt lat="44.397500" lon="5.795660">
						<ele>899</ele>
						<time>2026-09-02T13:10:37Z</time>
					</trkpt>
					<trkpt lat="44.397660" lon="5.795770">
						<ele>901</ele>
						<time>2026-09-02T13:10:46Z</time>
					</trkpt>
					<trkpt lat="44.397850" lon="5.795820">
						<ele>902</ele>
						<time>2026-09-02T13:10:56Z</time>
					</trkpt>
					<trkpt lat="44.397970" lon="5.795780">
						<ele>902</ele>
						<time>2026-09-02T13:11:02Z</time>
					</trkpt>
					<trkpt lat="44.398180" lon="5.795660">
						<ele>901</ele>
						<time>2026-09-02T13:11:13Z</time>
					</trkpt>
					<trkpt lat="44.398470" lon="5.795390">
						<ele>900</ele>
						<time>2026-09-02T13:11:31Z</time>
					</trkpt>
					<trkpt lat="44.399290" lon="5.794820">
						<ele>902</ele>
						<time>2026-09-02T13:12:16Z</time>
					</trkpt>
					<trkpt lat="44.399510" lon="5.794600">
						<ele>901</ele>
						<time>2026-09-02T13:12:30Z</time>
					</trkpt>
					<trkpt lat="44.399680" lon="5.794470">
						<ele>900</ele>
						<time>2026-09-02T13:12:40Z</time>
					</trkpt>
					<trkpt lat="44.399770" lon="5.794440">
						<ele>899</ele>
						<time>2026-09-02T13:12:44Z</time>
					</trkpt>
					<trkpt lat="44.399840" lon="5.794440">
						<ele>899</ele>
						<time>2026-09-02T13:12:48Z</time>
					</trkpt>
					<trkpt lat="44.399910" lon="5.794480">
						<ele>899</ele>
						<time>2026-09-02T13:12:52Z</time>
					</trkpt>
					<trkpt lat="44.400360" lon="5.795010">
						<ele>892</ele>
						<time>2026-09-02T13:13:21Z</time>
					</trkpt>
					<trkpt lat="44.400550" lon="5.795180">
						<ele>891</ele>
						<time>2026-09-02T13:13:32Z</time>
					</trkpt>
					<trkpt lat="44.400850" lon="5.795370">
						<ele>888</ele>
						<time>2026-09-02T13:13:49Z</time>
					</trkpt>
					<trkpt lat="44.400980" lon="5.795520">
						<ele>888</ele>
						<time>2026-09-02T13:13:57Z</time>
					</trkpt>
					<trkpt lat="44.401040" lon="5.795540">
						<ele>887</ele>
						<time>2026-09-02T13:14:00Z</time>
					</trkpt>
					<trkpt lat="44.401090" lon="5.795490">
						<ele>885</ele>
						<time>2026-09-02T13:14:03Z</time>
					</trkpt>
					<trkpt lat="44.401090" lon="5.795430">
						<ele>883</ele>
						<time>2026-09-02T13:14:06Z</time>
					</trkpt>
					<trkpt lat="44.400990" lon="5.795330">
						<ele>884</ele>
						<time>2026-09-02T13:14:12Z</time>
					</trkpt>
					<trkpt lat="44.400780" lon="5.795200">
						<ele>886</ele>
						<time>2026-09-02T13:14:23Z</time>
					</trkpt>
					<trkpt lat="44.400650" lon="5.795040">
						<ele>886</ele>
						<time>2026-09-02T13:14:32Z</time>
					</trkpt>
					<trkpt lat="44.400500" lon="5.794570">
						<ele>884</ele>
						<time>2026-09-02T13:14:50Z</time>
					</trkpt>
					<trkpt lat="44.400470" lon="5.794330">
						<ele>883</ele>
						<time>2026-09-02T13:14:59Z</time>
					</trkpt>
					<trkpt lat="44.400580" lon="5.793830">
						<ele>877</ele>
						<time>2026-09-02T13:15:18Z</time>
					</trkpt>
					<trkpt lat="44.400570" lon="5.793730">
						<ele>877</ele>
						<time>2026-09-02T13:15:21Z</time>
					</trkpt>
					<trkpt lat="44.400490" lon="5.793520">
						<ele>880</ele>
						<time>2026-09-02T13:15:30Z</time>
					</trkpt>
					<trkpt lat="44.400480" lon="5.793000">
						<ele>882</ele>
						<time>2026-09-02T13:15:48Z</time>
					</trkpt>
					<trkpt lat="44.400530" lon="5.792880">
						<ele>881</ele>
						<time>2026-09-02T13:15:53Z</time>
					</trkpt>
					<trkpt lat="44.400750" lon="5.792610">
						<ele>872</ele>
						<time>2026-09-02T13:16:08Z</time>
					</trkpt>
					<trkpt lat="44.401030" lon="5.792550">
						<ele>864</ele>
						<time>2026-09-02T13:16:22Z</time>
					</trkpt>
					<trkpt lat="44.401170" lon="5.792490">
						<ele>861</ele>
						<time>2026-09-02T13:16:29Z</time>
					</trkpt>
					<trkpt lat="44.401480" lon="5.792310">
						<ele>857</ele>
						<time>2026-09-02T13:16:46Z</time>
					</trkpt>
					<trkpt lat="44.401600" lon="5.792210">
						<ele>856</ele>
						<time>2026-09-02T13:16:53Z</time>
					</trkpt>
					<trkpt lat="44.401660" lon="5.792120">
						<ele>856</ele>
						<time>2026-09-02T13:16:58Z</time>
					</trkpt>
					<trkpt lat="44.401770" lon="5.792040">
						<ele>855</ele>
						<time>2026-09-02T13:17:04Z</time>
					</trkpt>
					<trkpt lat="44.402030" lon="5.791980">
						<ele>851</ele>
						<time>2026-09-02T13:17:17Z</time>
					</trkpt>
					<trkpt lat="44.402290" lon="5.791950">
						<ele>846</ele>
						<time>2026-09-02T13:17:30Z</time>
					</trkpt>
					<trkpt lat="44.402420" lon="5.791960">
						<ele>844</ele>
						<time>2026-09-02T13:17:37Z</time>
					</trkpt>
					<trkpt lat="44.402700" lon="5.791920">
						<ele>840</ele>
						<time>2026-09-02T13:17:51Z</time>
					</trkpt>
					<trkpt lat="44.402820" lon="5.791880">
						<ele>840</ele>
						<time>2026-09-02T13:17:57Z</time>
					</trkpt>
					<trkpt lat="44.402910" lon="5.791890">
						<ele>838</ele>
						<time>2026-09-02T13:18:01Z</time>
					</trkpt>
					<trkpt lat="44.403000" lon="5.791980">
						<ele>836</ele>
						<time>2026-09-02T13:18:07Z</time>
					</trkpt>
					<trkpt lat="44.403230" lon="5.792420">
						<ele>829</ele>
						<time>2026-09-02T13:18:26Z</time>
					</trkpt>
					<trkpt lat="44.403410" lon="5.792630">
						<ele>825</ele>
						<time>2026-09-02T13:18:38Z</time>
					</trkpt>
					<trkpt lat="44.403620" lon="5.792770">
						<ele>822</ele>
						<time>2026-09-02T13:18:50Z</time>
					</trkpt>
					<trkpt lat="44.403710" lon="5.792790">
						<ele>821</ele>
						<time>2026-09-02T13:18:54Z</time>
					</trkpt>
					<trkpt lat="44.403830" lon="5.792770">
						<ele>820</ele>
						<time>2026-09-02T13:19:00Z</time>
					</trkpt>
					<trkpt lat="44.404220" lon="5.792580">
						<ele>819</ele>
						<time>2026-09-02T13:19:21Z</time>
					</trkpt>
					<trkpt lat="44.404470" lon="5.792540">
						<ele>815</ele>
						<time>2026-09-02T13:19:34Z</time>
					</trkpt>
					<trkpt lat="44.404760" lon="5.792570">
						<ele>811</ele>
						<time>2026-09-02T13:19:48Z</time>
					</trkpt>
					<trkpt lat="44.405140" lon="5.792740">
						<ele>806</ele>
						<time>2026-09-02T13:20:08Z</time>
					</trkpt>
					<trkpt lat="44.405460" lon="5.792770">
						<ele>802</ele>
						<time>2026-09-02T13:20:24Z</time>
					</trkpt>
					<trkpt lat="44.405720" lon="5.792890">
						<ele>800</ele>
						<time>2026-09-02T13:20:38Z</time>
					</trkpt>
					<trkpt lat="44.405970" lon="5.792950">
						<ele>796</ele>
						<time>2026-09-02T13:20:51Z</time>
					</trkpt>
					<trkpt lat="44.406400" lon="5.793110">
						<ele>790</ele>
						<time>2026-09-02T13:21:13Z</time>
					</trkpt>
					<trkpt lat="44.406560" lon="5.793140">
						<ele>787</ele>
						<time>2026-09-02T13:21:21Z</time>
					</trkpt>
					<trkpt lat="44.406710" lon="5.793240">
						<ele>785</ele>
						<time>2026-09-02T13:21:29Z</time>
					</trkpt>
					<trkpt lat="44.407000" lon="5.793560">
						<ele>781</ele>
						<time>2026-09-02T13:21:48Z</time>
					</trkpt>
					<trkpt lat="44.407410" lon="5.793680">
						<ele>777</ele>
						<time>2026-09-02T13:22:09Z</time>
					</trkpt>
					<trkpt lat="44.407680" lon="5.793670">
						<ele>774</ele>
						<time>2026-09-02T13:22:22Z</time>
					</trkpt>
					<trkpt lat="44.407940" lon="5.793700">
						<ele>772</ele>
						<time>2026-09-02T13:22:35Z</time>
					</trkpt>
					<trkpt lat="44.408640" lon="5.793720">
						<ele>766</ele>
						<time>2026-09-02T13:23:10Z</time>
					</trkpt>
					<trkpt lat="44.408900" lon="5.793650">
						<ele>764</ele>
						<time>2026-09-02T13:23:24Z</time>
					</trkpt>
					<trkpt lat="44.409060" lon="5.793630">
						<ele>763</ele>
						<time>2026-09-02T13:23:32Z</time>
					</trkpt>
					<trkpt lat="44.409230" lon="5.793640">
						<ele>761</ele>
						<time>2026-09-02T13:23:40Z</time>
					</trkpt>
					<trkpt lat="44.409500" lon="5.793550">
						<ele>759</ele>
						<time>2026-09-02T13:23:54Z</time>
					</trkpt>
					<trkpt lat="44.409940" lon="5.793500">
						<ele>753</ele>
						<time>2026-09-02T13:24:16Z</time>
					</trkpt>
					<trkpt lat="44.410160" lon="5.793570">
						<ele>750</ele>
						<time>2026-09-02T13:24:27Z</time>
					</trkpt>
					<trkpt lat="44.410460" lon="5.793790">
						<ele>747</ele>
						<time>2026-09-02T13:24:44Z</time>
					</trkpt>
					<trkpt lat="44.410620" lon="5.793820">
						<ele>746</ele>
						<time>2026-09-02T13:24:52Z</time>
					</trkpt>
					<trkpt lat="44.411210" lon="5.793570">
						<ele>740</ele>
						<time>2026-09-02T13:25:23Z</time>
					</trkpt>
					<trkpt lat="44.411780" lon="5.793130">
						<ele>734</ele>
						<time>2026-09-02T13:25:56Z</time>
					</trkpt>
					<trkpt lat="44.411940" lon="5.793040">
						<ele>733</ele>
						<time>2026-09-02T13:26:04Z</time>
					</trkpt>
					<trkpt lat="44.412120" lon="5.792980">
						<ele>732</ele>
						<time>2026-09-02T13:26:14Z</time>
					</trkpt>
					<trkpt lat="44.412460" lon="5.793010">
						<ele>730</ele>
						<time>2026-09-02T13:26:31Z</time>
					</trkpt>
					<trkpt lat="44.413170" lon="5.793170">
						<ele>727</ele>
						<time>2026-09-02T13:27:07Z</time>
					</trkpt>
					<trkpt lat="44.413530" lon="5.793120">
						<ele>725</ele>
						<time>2026-09-02T13:27:25Z</time>
					</trkpt>
					<trkpt lat="44.413790" lon="5.793170">
						<ele>724</ele>
						<time>2026-09-02T13:27:38Z</time>
					</trkpt>
					<trkpt lat="44.413950" lon="5.793160">
						<ele>723</ele>
						<time>2026-09-02T13:27:46Z</time>
					</trkpt>
					<trkpt lat="44.414180" lon="5.793100">
						<ele>722</ele>
						<time>2026-09-02T13:27:58Z</time>
					</trkpt>
					<trkpt lat="44.414430" lon="5.793070">
						<ele>721</ele>
						<time>2026-09-02T13:28:10Z</time>
					</trkpt>
					<trkpt lat="44.415050" lon="5.793090">
						<ele>719</ele>
						<time>2026-09-02T13:28:41Z</time>
					</trkpt>
					<trkpt lat="44.415200" lon="5.793050">
						<ele>718</ele>
						<time>2026-09-02T13:28:49Z</time>
					</trkpt>
					<trkpt lat="44.415530" lon="5.792860">
						<ele>717</ele>
						<time>2026-09-02T13:29:07Z</time>
					</trkpt>
					<trkpt lat="44.416190" lon="5.792400">
						<ele>718</ele>
						<time>2026-09-02T13:29:44Z</time>
					</trkpt>
					<trkpt lat="44.416510" lon="5.792270">
						<ele>719</ele>
						<time>2026-09-02T13:30:00Z</time>
					</trkpt>
					<trkpt lat="44.416700" lon="5.792250">
						<ele>720</ele>
						<time>2026-09-02T13:30:10Z</time>
					</trkpt>
					<trkpt lat="44.416990" lon="5.792270">
						<ele>721</ele>
						<time>2026-09-02T13:30:24Z</time>
					</trkpt>
					<trkpt lat="44.417640" lon="5.792220">
						<ele>722</ele>
						<time>2026-09-02T13:30:57Z</time>
					</trkpt>
					<trkpt lat="44.418020" lon="5.792230">
						<ele>722</ele>
						<time>2026-09-02T13:31:16Z</time>
					</trkpt>
					<trkpt lat="44.418650" lon="5.792400">
						<ele>723</ele>
						<time>2026-09-02T13:31:48Z</time>
					</trkpt>
					<trkpt lat="44.418830" lon="5.792390">
						<ele>723</ele>
						<time>2026-09-02T13:31:57Z</time>
					</trkpt>
					<trkpt lat="44.419270" lon="5.792190">
						<ele>724</ele>
						<time>2026-09-02T13:32:20Z</time>
					</trkpt>
					<trkpt lat="44.419500" lon="5.792030">
						<ele>725</ele>
						<time>2026-09-02T13:32:33Z</time>
					</trkpt>
					<trkpt lat="44.419770" lon="5.791780">
						<ele>727</ele>
						<time>2026-09-02T13:32:49Z</time>
					</trkpt>
					<trkpt lat="44.420140" lon="5.791380">
						<ele>731</ele>
						<time>2026-09-02T13:33:13Z</time>
					</trkpt>
					<trkpt lat="44.420190" lon="5.791350">
						<ele>732</ele>
						<time>2026-09-02T13:33:15Z</time>
					</trkpt>
					<trkpt lat="44.420240" lon="5.791370">
						<ele>733</ele>
						<time>2026-09-02T13:33:18Z</time>
					</trkpt>
					<trkpt lat="44.420290" lon="5.791410">
						<ele>733</ele>
						<time>2026-09-02T13:33:21Z</time>
					</trkpt>
					<trkpt lat="44.420440" lon="5.791680">
						<ele>734</ele>
						<time>2026-09-02T13:33:33Z</time>
					</trkpt>
					<trkpt lat="44.420580" lon="5.792070">
						<ele>735</ele>
						<time>2026-09-02T13:33:49Z</time>
					</trkpt>
					<trkpt lat="44.420680" lon="5.792450">
						<ele>736</ele>
						<time>2026-09-02T13:34:03Z</time>
					</trkpt>
					<trkpt lat="44.420760" lon="5.793020">
						<ele>737</ele>
						<time>2026-09-02T13:34:24Z</time>
					</trkpt>
					<trkpt lat="44.420910" lon="5.793430">
						<ele>737</ele>
						<time>2026-09-02T13:34:41Z</time>
					</trkpt>
					<trkpt lat="44.421040" lon="5.793710">
						<ele>737</ele>
						<time>2026-09-02T13:34:52Z</time>
					</trkpt>
					<trkpt lat="44.421190" lon="5.793890">
						<ele>737</ele>
						<time>2026-09-02T13:35:02Z</time>
					</trkpt>
					<trkpt lat="44.421790" lon="5.794440">
						<ele>739</ele>
						<time>2026-09-02T13:35:38Z</time>
					</trkpt>
					<trkpt lat="44.421920" lon="5.794700">
						<ele>738</ele>
						<time>2026-09-02T13:35:50Z</time>
					</trkpt>
					<trkpt lat="44.421890" lon="5.794840">
						<ele>737</ele>
						<time>2026-09-02T13:35:55Z</time>
					</trkpt>
					<trkpt lat="44.421770" lon="5.795100">
						<ele>737</ele>
						<time>2026-09-02T13:36:06Z</time>
					</trkpt>
					<trkpt lat="44.421410" lon="5.795690">
						<ele>738</ele>
						<time>2026-09-02T13:36:34Z</time>
					</trkpt>
					<trkpt lat="44.421230" lon="5.796140">
						<ele>740</ele>
						<time>2026-09-02T13:36:52Z</time>
					</trkpt>
					<trkpt lat="44.421030" lon="5.796520">
						<ele>741</ele>
						<time>2026-09-02T13:37:09Z</time>
					</trkpt>
					<trkpt lat="44.421040" lon="5.796640">
						<ele>742</ele>
						<time>2026-09-02T13:37:13Z</time>
					</trkpt>
					<trkpt lat="44.421170" lon="5.796770">
						<ele>742</ele>
						<time>2026-09-02T13:37:21Z</time>
					</trkpt>
					<trkpt lat="44.421770" lon="5.797090">
						<ele>745</ele>
						<time>2026-09-02T13:37:53Z</time>
					</trkpt>
					<trkpt lat="44.422080" lon="5.797310">
						<ele>747</ele>
						<time>2026-09-02T13:38:11Z</time>
					</trkpt>
					<trkpt lat="44.422140" lon="5.797400">
						<ele>748</ele>
						<time>2026-09-02T13:38:15Z</time>
					</trkpt>
					<trkpt lat="44.422160" lon="5.797480">
						<ele>748</ele>
						<time>2026-09-02T13:38:18Z</time>
					</trkpt>
					<trkpt lat="44.422170" lon="5.798030">
						<ele>749</ele>
						<time>2026-09-02T13:38:38Z</time>
					</trkpt>
					<trkpt lat="44.422210" lon="5.798190">
						<ele>749</ele>
						<time>2026-09-02T13:38:44Z</time>
					</trkpt>
					<trkpt lat="44.422560" lon="5.798590">
						<ele>751</ele>
						<time>2026-09-02T13:39:06Z</time>
					</trkpt>
					<trkpt lat="44.422960" lon="5.799190">
						<ele>752</ele>
						<time>2026-09-02T13:39:36Z</time>
					</trkpt>
					<trkpt lat="44.423130" lon="5.799360">
						<ele>753</ele>
						<time>2026-09-02T13:39:46Z</time>
					</trkpt>
					<trkpt lat="44.423440" lon="5.799750">
						<ele>755</ele>
						<time>2026-09-02T13:40:07Z</time>
					</trkpt>
					<trkpt lat="44.423660" lon="5.799940">
						<ele>756</ele>
						<time>2026-09-02T13:40:20Z</time>
					</trkpt>
					<trkpt lat="44.423870" lon="5.800050">
						<ele>756</ele>
						<time>2026-09-02T13:40:31Z</time>
					</trkpt>
					<trkpt lat="44.424170" lon="5.800270">
						<ele>758</ele>
						<time>2026-09-02T13:40:48Z</time>
					</trkpt>
					<trkpt lat="44.424390" lon="5.800490">
						<ele>760</ele>
						<time>2026-09-02T13:41:02Z</time>
					</trkpt>
					<trkpt lat="44.424510" lon="5.800660">
						<ele>761</ele>
						<time>2026-09-02T13:41:10Z</time>
					</trkpt>
					<trkpt lat="44.425060" lon="5.801630">
						<ele>764</ele>
						<time>2026-09-02T13:41:55Z</time>
					</trkpt>
					<trkpt lat="44.425140" lon="5.802000">
						<ele>766</ele>
						<time>2026-09-02T13:42:08Z</time>
					</trkpt>
					<trkpt lat="44.425130" lon="5.802220">
						<ele>767</ele>
						<time>2026-09-02T13:42:16Z</time>
					</trkpt>
					<trkpt lat="44.425160" lon="5.802400">
						<ele>768</ele>
						<time>2026-09-02T13:42:23Z</time>
					</trkpt>
					<trkpt lat="44.425220" lon="5.802490">
						<ele>768</ele>
						<time>2026-09-02T13:42:27Z</time>
					</trkpt>
					<trkpt lat="44.425430" lon="5.802660">
						<ele>768</ele>
						<time>2026-09-02T13:42:39Z</time>
					</trkpt>
					<trkpt lat="44.425470" lon="5.802740">
						<ele>768</ele>
						<time>2026-09-02T13:42:43Z</time>
					</trkpt>
					<trkpt lat="44.425490" lon="5.802900">
						<ele>769</ele>
						<time>2026-09-02T13:42:49Z</time>
					</trkpt>
					<trkpt lat="44.425470" lon="5.803190">
						<ele>772</ele>
						<time>2026-09-02T13:42:59Z</time>
					</trkpt>
					<trkpt lat="44.425700" lon="5.803690">
						<ele>776</ele>
						<time>2026-09-02T13:43:20Z</time>
					</trkpt>
					<trkpt lat="44.425800" lon="5.804150">
						<ele>781</ele>
						<time>2026-09-02T13:43:38Z</time>
					</trkpt>
					<trkpt lat="44.425990" lon="5.804570">
						<ele>782</ele>
						<time>2026-09-02T13:43:55Z</time>
					</trkpt>
					<trkpt lat="44.426110" lon="5.805010">
						<ele>784</ele>
						<time>2026-09-02T13:44:12Z</time>
					</trkpt>
					<trkpt lat="44.426130" lon="5.805230">
						<ele>785</ele>
						<time>2026-09-02T13:44:20Z</time>
					</trkpt>
					<trkpt lat="44.426230" lon="5.805710">
						<ele>788</ele>
						<time>2026-09-02T13:44:38Z</time>
					</trkpt>
					<trkpt lat="44.426260" lon="5.806290">
						<ele>792</ele>
						<time>2026-09-02T13:44:59Z</time>
					</trkpt>
					<trkpt lat="44.426250" lon="5.806890">
						<ele>795</ele>
						<time>2026-09-02T13:45:20Z</time>
					</trkpt>
					<trkpt lat="44.426280" lon="5.807230">
						<ele>797</ele>
						<time>2026-09-02T13:45:32Z</time>
					</trkpt>
					<trkpt lat="44.426480" lon="5.807930">
						<ele>802</ele>
						<time>2026-09-02T13:45:59Z</time>
					</trkpt>
					<trkpt lat="44.426530" lon="5.808180">
						<ele>804</ele>
						<time>2026-09-02T13:46:09Z</time>
					</trkpt>
					<trkpt lat="44.426620" lon="5.808440">
						<ele>807</ele>
						<time>2026-09-02T13:46:19Z</time>
					</trkpt>
					<trkpt lat="44.426740" lon="5.809290">
						<ele>812</ele>
						<time>2026-09-02T13:46:50Z</time>
					</trkpt>
					<trkpt lat="44.426800" lon="5.809520">
						<ele>813</ele>
						<time>2026-09-02T13:46:59Z</time>
					</trkpt>
					<trkpt lat="44.426830" lon="5.809620">
						<ele>814</ele>
						<time>2026-09-02T13:47:03Z</time>
					</trkpt>
					<trkpt lat="44.427050" lon="5.809980">
						<ele>815</ele>
						<time>2026-09-02T13:47:19Z</time>
					</trkpt>
					<trkpt lat="44.427010" lon="5.810340">
						<ele>817</ele>
						<time>2026-09-02T13:47:33Z</time>
					</trkpt>
					<trkpt lat="44.427020" lon="5.810750">
						<ele>820</ele>
						<time>2026-09-02T13:47:47Z</time>
					</trkpt>
					<trkpt lat="44.427050" lon="5.810910">
						<ele>821</ele>
						<time>2026-09-02T13:47:53Z</time>
					</trkpt>
					<trkpt lat="44.427060" lon="5.811200">
						<ele>823</ele>
						<time>2026-09-02T13:48:03Z</time>
					</trkpt>
					<trkpt lat="44.427110" lon="5.811390">
						<ele>824</ele>
						<time>2026-09-02T13:48:11Z</time>
					</trkpt>
					<trkpt lat="44.427120" lon="5.811540">
						<ele>825</ele>
						<time>2026-09-02T13:48:16Z</time>
					</trkpt>
					<trkpt lat="44.427040" lon="5.811720">
						<ele>826</ele>
						<time>2026-09-02T13:48:24Z</time>
					</trkpt>
					<trkpt lat="44.427010" lon="5.811940">
						<ele>828</ele>
						<time>2026-09-02T13:48:32Z</time>
					</trkpt>
					<trkpt lat="44.426870" lon="5.812360">
						<ele>832</ele>
						<time>2026-09-02T13:48:48Z</time>
					</trkpt>
					<trkpt lat="44.426650" lon="5.812780">
						<ele>835</ele>
						<time>2026-09-02T13:49:07Z</time>
					</trkpt>
					<trkpt lat="44.426650" lon="5.812820">
						<ele>835</ele>
						<time>2026-09-02T13:49:08Z</time>
					</trkpt>
					<trkpt lat="44.426780" lon="5.813040">
						<ele>838</ele>
						<time>2026-09-02T13:49:18Z</time>
					</trkpt>
					<trkpt lat="44.426980" lon="5.813190">
						<ele>841</ele>
						<time>2026-09-02T13:49:30Z</time>
					</trkpt>
					<trkpt lat="44.427240" lon="5.813310">
						<ele>843</ele>
						<time>2026-09-02T13:49:44Z</time>
					</trkpt>
					<trkpt lat="44.427400" lon="5.813450">
						<ele>845</ele>
						<time>2026-09-02T13:49:53Z</time>
					</trkpt>
					<trkpt lat="44.427840" lon="5.813730">
						<ele>849</ele>
						<time>2026-09-02T13:50:17Z</time>
					</trkpt>
					<trkpt lat="44.427890" lon="5.813740">
						<ele>849</ele>
						<time>2026-09-02T13:50:20Z</time>
					</trkpt>
					<trkpt lat="44.428000" lon="5.813710">
						<ele>849</ele>
						<time>2026-09-02T13:50:25Z</time>
					</trkpt>
					<trkpt lat="44.428220" lon="5.813730">
						<ele>849</ele>
						<time>2026-09-02T13:50:36Z</time>
					</trkpt>
					<trkpt lat="44.428340" lon="5.813940">
						<ele>851</ele>
						<time>2026-09-02T13:50:46Z</time>
					</trkpt>
					<trkpt lat="44.428460" lon="5.814360">
						<ele>855</ele>
						<time>2026-09-02T13:51:02Z</time>
					</trkpt>
					<trkpt lat="44.428700" lon="5.814590">
						<ele>859</ele>
						<time>2026-09-02T13:51:17Z</time>
					</trkpt>
					<trkpt lat="44.428860" lon="5.814780">
						<ele>862</ele>
						<time>2026-09-02T13:51:27Z</time>
					</trkpt>
					<trkpt lat="44.429090" lon="5.814950">
						<ele>865</ele>
						<time>2026-09-02T13:51:40Z</time>
					</trkpt>
					<trkpt lat="44.429280" lon="5.815210">
						<ele>870</ele>
						<time>2026-09-02T13:51:53Z</time>
					</trkpt>
					<trkpt lat="44.429640" lon="5.815590">
						<ele>878</ele>
						<time>2026-09-02T13:52:16Z</time>
					</trkpt>
					<trkpt lat="44.429710" lon="5.815860">
						<ele>881</ele>
						<time>2026-09-02T13:52:26Z</time>
					</trkpt>
					<trkpt lat="44.429780" lon="5.815930">
						<ele>883</ele>
						<time>2026-09-02T13:52:31Z</time>
					</trkpt>
					<trkpt lat="44.429840" lon="5.815950">
						<ele>884</ele>
						<time>2026-09-02T13:52:34Z</time>
					</trkpt>
					<trkpt lat="44.429920" lon="5.816100">
						<ele>887</ele>
						<time>2026-09-02T13:52:40Z</time>
					</trkpt>
					<trkpt lat="44.430110" lon="5.816220">
						<ele>890</ele>
						<time>2026-09-02T13:52:51Z</time>
					</trkpt>
					<trkpt lat="44.430190" lon="5.816360">
						<ele>894</ele>
						<time>2026-09-02T13:52:57Z</time>
					</trkpt>
					<trkpt lat="44.430430" lon="5.816480">
						<ele>898</ele>
						<time>2026-09-02T13:53:10Z</time>
					</trkpt>
					<trkpt lat="44.430560" lon="5.816460">
						<ele>899</ele>
						<time>2026-09-02T13:53:17Z</time>
					</trkpt>
					<trkpt lat="44.430660" lon="5.816540">
						<ele>900</ele>
						<time>2026-09-02T13:53:22Z</time>
					</trkpt>
					<trkpt lat="44.430750" lon="5.816530">
						<ele>901</ele>
						<time>2026-09-02T13:53:27Z</time>
					</trkpt>
					<trkpt lat="44.430830" lon="5.816560">
						<ele>902</ele>
						<time>2026-09-02T13:53:31Z</time>
					</trkpt>
					<trkpt lat="44.430890" lon="5.816540">
						<ele>903</ele>
						<time>2026-09-02T13:53:34Z</time>
					</trkpt>
					<trkpt lat="44.431100" lon="5.816590">
						<ele>906</ele>
						<time>2026-09-02T13:53:45Z</time>
					</trkpt>
					<trkpt lat="44.431220" lon="5.816740">
						<ele>910</ele>
						<time>2026-09-02T13:53:53Z</time>
					</trkpt>
					<trkpt lat="44.431380" lon="5.816730">
						<ele>912</ele>
						<time>2026-09-02T13:54:01Z</time>
					</trkpt>
					<trkpt lat="44.431420" lon="5.816750">
						<ele>913</ele>
						<time>2026-09-02T13:54:03Z</time>
					</trkpt>
					<trkpt lat="44.431740" lon="5.817000">
						<ele>922</ele>
						<time>2026-09-02T13:54:21Z</time>
					</trkpt>
					<trkpt lat="44.431970" lon="5.816890">
						<ele>924</ele>
						<time>2026-09-02T13:54:33Z</time>
					</trkpt>
					<trkpt lat="44.432030" lon="5.816830">
						<ele>924</ele>
						<time>2026-09-02T13:54:37Z</time>
					</trkpt>
					<trkpt lat="44.432030" lon="5.816770">
						<ele>923</ele>
						<time>2026-09-02T13:54:39Z</time>
					</trkpt>
					<trkpt lat="44.432060" lon="5.816720">
						<ele>923</ele>
						<time>2026-09-02T13:54:42Z</time>
					</trkpt>
					<trkpt lat="44.432120" lon="5.816780">
						<ele>925</ele>
						<time>2026-09-02T13:54:45Z</time>
					</trkpt>
					<trkpt lat="44.432220" lon="5.816830">
						<ele>927</ele>
						<time>2026-09-02T13:54:51Z</time>
					</trkpt>
					<trkpt lat="44.432310" lon="5.816820">
						<ele>929</ele>
						<time>2026-09-02T13:54:55Z</time>
					</trkpt>
					<trkpt lat="44.432370" lon="5.816740">
						<ele>929</ele>
						<time>2026-09-02T13:54:59Z</time>
					</trkpt>
					<trkpt lat="44.432370" lon="5.816580">
						<ele>931</ele>
						<time>2026-09-02T13:55:05Z</time>
					</trkpt>
					<trkpt lat="44.432460" lon="5.816410">
						<ele>937</ele>
						<time>2026-09-02T13:55:12Z</time>
					</trkpt>
					<trkpt lat="44.432490" lon="5.816400">
						<ele>938</ele>
						<time>2026-09-02T13:55:14Z</time>
					</trkpt>
					<trkpt lat="44.432520" lon="5.816440">
						<ele>938</ele>
						<time>2026-09-02T13:55:16Z</time>
					</trkpt>
					<trkpt lat="44.432560" lon="5.816450">
						<ele>939</ele>
						<time>2026-09-02T13:55:18Z</time>
					</trkpt>
					<trkpt lat="44.432610" lon="5.816410">
						<ele>942</ele>
						<time>2026-09-02T13:55:21Z</time>
					</trkpt>
					<trkpt lat="44.432680" lon="5.816400">
						<ele>945</ele>
						<time>2026-09-02T13:55:25Z</time>
					</trkpt>
					<trkpt lat="44.432760" lon="5.816320">
						<ele>949</ele>
						<time>2026-09-02T13:55:29Z</time>
					</trkpt>
					<trkpt lat="44.432690" lon="5.816220">
						<ele>949</ele>
						<time>2026-09-02T13:55:34Z</time>
					</trkpt>
					<trkpt lat="44.432730" lon="5.815990">
						<ele>956</ele>
						<time>2026-09-02T13:55:43Z</time>
					</trkpt>
					<trkpt lat="44.432740" lon="5.815970">
						<ele>957</ele>
						<time>2026-09-02T13:55:44Z</time>
					</trkpt>
					<trkpt lat="44.432790" lon="5.816000">
						<ele>958</ele>
						<time>2026-09-02T13:55:47Z</time>
					</trkpt>
					<trkpt lat="44.432850" lon="5.815790">
						<ele>965</ele>
						<time>2026-09-02T13:55:55Z</time>
					</trkpt>
					<trkpt lat="44.432880" lon="5.815790">
						<ele>966</ele>
						<time>2026-09-02T13:55:56Z</time>
					</trkpt>
					<trkpt lat="44.432900" lon="5.815760">
						<ele>968</ele>
						<time>2026-09-02T13:55:58Z</time>
					</trkpt>
					<trkpt lat="44.432960" lon="5.815780">
						<ele>969</ele>
						<time>2026-09-02T13:56:01Z</time>
					</trkpt>
					<trkpt lat="44.432950" lon="5.815660">
						<ele>972</ele>
						<time>2026-09-02T13:56:05Z</time>
					</trkpt>
					<trkpt lat="44.432990" lon="5.815660">
						<ele>974</ele>
						<time>2026-09-02T13:56:07Z</time>
					</trkpt>
					<trkpt lat="44.433010" lon="5.815630">
						<ele>975</ele>
						<time>2026-09-02T13:56:08Z</time>
					</trkpt>
					<trkpt lat="44.432950" lon="5.815480">
						<ele>978</ele>
						<time>2026-09-02T13:56:15Z</time>
					</trkpt>
					<trkpt lat="44.433020" lon="5.815430">
						<ele>982</ele>
						<time>2026-09-02T13:56:19Z</time>
					</trkpt>
					<trkpt lat="44.433070" lon="5.815460">
						<ele>982</ele>
						<time>2026-09-02T13:56:21Z</time>
					</trkpt>
					<trkpt lat="44.433090" lon="5.815450">
						<ele>983</ele>
						<time>2026-09-02T13:56:22Z</time>
					</trkpt>
					<trkpt lat="44.433060" lon="5.815350">
						<ele>985</ele>
						<time>2026-09-02T13:56:26Z</time>
					</trkpt>
					<trkpt lat="44.433100" lon="5.815260">
						<ele>989</ele>
						<time>2026-09-02T13:56:30Z</time>
					</trkpt>
					<trkpt lat="44.433160" lon="5.815280">
						<ele>990</ele>
						<time>2026-09-02T13:56:33Z</time>
					</trkpt>
					<trkpt lat="44.433250" lon="5.815220">
						<ele>995</ele>
						<time>2026-09-02T13:56:38Z</time>
					</trkpt>
					<trkpt lat="44.433200" lon="5.815000">
						<ele>999</ele>
						<time>2026-09-02T13:56:46Z</time>
					</trkpt>
					<trkpt lat="44.433140" lon="5.814900">
						<ele>1001</ele>
						<time>2026-09-02T13:56:51Z</time>
					</trkpt>
					<trkpt lat="44.433170" lon="5.814850">
						<ele>1003</ele>
						<time>2026-09-02T13:56:53Z</time>
					</trkpt>
					<trkpt lat="44.433170" lon="5.814750">
						<ele>1006</ele>
						<time>2026-09-02T13:56:57Z</time>
					</trkpt>
					<trkpt lat="44.433150" lon="5.814730">
						<ele>1006</ele>
						<time>2026-09-02T13:56:58Z</time>
					</trkpt>
					<trkpt lat="44.433170" lon="5.814700">
						<ele>1008</ele>
						<time>2026-09-02T13:57:00Z</time>
					</trkpt>
					<trkpt lat="44.433110" lon="5.814670">
						<ele>1007</ele>
						<time>2026-09-02T13:57:03Z</time>
					</trkpt>
					<trkpt lat="44.433150" lon="5.814630">
						<ele>1010</ele>
						<time>2026-09-02T13:57:05Z</time>
					</trkpt>
					<trkpt lat="44.433190" lon="5.814490">
						<ele>1015</ele>
						<time>2026-09-02T13:57:11Z</time>
					</trkpt>
					<trkpt lat="44.433290" lon="5.814390">
						<ele>1021</ele>
						<time>2026-09-02T13:57:17Z</time>
					</trkpt>
					<trkpt lat="44.433260" lon="5.814330">
						<ele>1022</ele>
						<time>2026-09-02T13:57:19Z</time>
					</trkpt>
					<trkpt lat="44.433160" lon="5.814250">
						<ele>1022</ele>
						<time>2026-09-02T13:57:25Z</time>
					</trkpt>
					<trkpt lat="44.433200" lon="5.814220">
						<ele>1024</ele>
						<time>2026-09-02T13:57:27Z</time>
					</trkpt>
					<trkpt lat="44.433210" lon="5.814000">
						<ele>1028</ele>
						<time>2026-09-02T13:57:35Z</time>
					</trkpt>
					<trkpt lat="44.433260" lon="5.813950">
						<ele>1030</ele>
						<time>2026-09-02T13:57:38Z</time>
					</trkpt>
					<trkpt lat="44.433290" lon="5.813840">
						<ele>1033</ele>
						<time>2026-09-02T13:57:43Z</time>
					</trkpt>
					<trkpt lat="44.433280" lon="5.813750">
						<ele>1034</ele>
						<time>2026-09-02T13:57:46Z</time>
					</trkpt>
					<trkpt lat="44.433230" lon="5.813640">
						<ele>1033</ele>
						<time>2026-09-02T13:57:50Z</time>
					</trkpt>
					<trkpt lat="44.433310" lon="5.813580">
						<ele>1037</ele>
						<time>2026-09-02T13:57:55Z</time>
					</trkpt>
					<trkpt lat="44.433390" lon="5.813590">
						<ele>1037</ele>
						<time>2026-09-02T13:57:59Z</time>
					</trkpt>
					<trkpt lat="44.433440" lon="5.813630">
						<ele>1036</ele>
						<time>2026-09-02T13:58:02Z</time>
					</trkpt>
					<trkpt lat="44.433530" lon="5.813840">
						<ele>1034</ele>
						<time>2026-09-02T13:58:11Z</time>
					</trkpt>
					<trkpt lat="44.433650" lon="5.813960">
						<ele>1033</ele>
						<time>2026-09-02T13:58:18Z</time>
					</trkpt>
					<trkpt lat="44.433930" lon="5.814380">
						<ele>1032</ele>
						<time>2026-09-02T13:58:39Z</time>
					</trkpt>
					<trkpt lat="44.434020" lon="5.814610">
						<ele>1032</ele>
						<time>2026-09-02T13:58:48Z</time>
					</trkpt>
					<trkpt lat="44.434180" lon="5.814800">
						<ele>1036</ele>
						<time>2026-09-02T13:58:58Z</time>
					</trkpt>
					<trkpt lat="44.434370" lon="5.815210">
						<ele>1038</ele>
						<time>2026-09-02T13:59:16Z</time>
					</trkpt>
					<trkpt lat="44.434640" lon="5.815520">
						<ele>1043</ele>
						<time>2026-09-02T13:59:33Z</time>
					</trkpt>
					<trkpt lat="44.434850" lon="5.815690">
						<ele>1050</ele>
						<time>2026-09-02T13:59:46Z</time>
					</trkpt>
					<trkpt lat="44.434890" lon="5.815760">
						<ele>1052</ele>
						<time>2026-09-02T13:59:49Z</time>
					</trkpt>
					<trkpt lat="44.434910" lon="5.815830">
						<ele>1054</ele>
						<time>2026-09-02T13:59:51Z</time>
					</trkpt>
					<trkpt lat="44.434870" lon="5.816200">
						<ele>1052</ele>
						<time>2026-09-02T14:00:05Z</time>
					</trkpt>
					<trkpt lat="44.434990" lon="5.816430">
						<ele>1057</ele>
						<time>2026-09-02T14:00:15Z</time>
					</trkpt>
					<trkpt lat="44.435010" lon="5.816540">
						<ele>1058</ele>
						<time>2026-09-02T14:00:19Z</time>
					</trkpt>
					<trkpt lat="44.434960" lon="5.816870">
						<ele>1057</ele>
						<time>2026-09-02T14:00:31Z</time>
					</trkpt>
					<trkpt lat="44.435060" lon="5.816970">
						<ele>1062</ele>
						<time>2026-09-02T14:00:37Z</time>
					</trkpt>
					<trkpt lat="44.435100" lon="5.816980">
						<ele>1064</ele>
						<time>2026-09-02T14:00:39Z</time>
					</trkpt>
					<trkpt lat="44.435270" lon="5.816940">
						<ele>1072</ele>
						<time>2026-09-02T14:00:48Z</time>
					</trkpt>
					<trkpt lat="44.435550" lon="5.816610">
						<ele>1082</ele>
						<time>2026-09-02T14:01:06Z</time>
					</trkpt>
					<trkpt lat="44.435650" lon="5.816450">
						<ele>1085</ele>
						<time>2026-09-02T14:01:14Z</time>
					</trkpt>
					<trkpt lat="44.435730" lon="5.816410">
						<ele>1088</ele>
						<time>2026-09-02T14:01:18Z</time>
					</trkpt>
					<trkpt lat="44.435930" lon="5.816200">
						<ele>1093</ele>
						<time>2026-09-02T14:01:31Z</time>
					</trkpt>
					<trkpt lat="44.436080" lon="5.816170">
						<ele>1099</ele>
						<time>2026-09-02T14:01:38Z</time>
					</trkpt>
					<trkpt lat="44.436150" lon="5.816000">
						<ele>1100</ele>
						<time>2026-09-02T14:01:45Z</time>
					</trkpt>
					<trkpt lat="44.436220" lon="5.815350">
						<ele>1099</ele>
						<time>2026-09-02T14:02:09Z</time>
					</trkpt>
					<trkpt lat="44.436250" lon="5.815270">
						<ele>1100</ele>
						<time>2026-09-02T14:02:12Z</time>
					</trkpt>
					<trkpt lat="44.436360" lon="5.815170">
						<ele>1104</ele>
						<time>2026-09-02T14:02:18Z</time>
					</trkpt>
					<trkpt lat="44.436410" lon="5.815190">
						<ele>1106</ele>
						<time>2026-09-02T14:02:21Z</time>
					</trkpt>
					<trkpt lat="44.436490" lon="5.815300">
						<ele>1109</ele>
						<time>2026-09-02T14:02:27Z</time>
					</trkpt>
					<trkpt lat="44.436530" lon="5.815460">
						<ele>1112</ele>
						<time>2026-09-02T14:02:33Z</time>
					</trkpt>
					<trkpt lat="44.436490" lon="5.815790">
						<ele>1112</ele>
						<time>2026-09-02T14:02:45Z</time>
					</trkpt>
					<trkpt lat="44.436500" lon="5.816180">
						<ele>1116</ele>
						<time>2026-09-02T14:02:59Z</time>
					</trkpt>
					<trkpt lat="44.436560" lon="5.816540">
						<ele>1123</ele>
						<time>2026-09-02T14:03:12Z</time>
					</trkpt>
					<trkpt lat="44.436670" lon="5.816680">
						<ele>1129</ele>
						<time>2026-09-02T14:03:19Z</time>
					</trkpt>
					<trkpt lat="44.436740" lon="5.816730">
						<ele>1132</ele>
						<time>2026-09-02T14:03:23Z</time>
					</trkpt>
					<trkpt lat="44.436780" lon="5.816820">
						<ele>1134</ele>
						<time>2026-09-02T14:03:27Z</time>
					</trkpt>
					<trkpt lat="44.436790" lon="5.816970">
						<ele>1136</ele>
						<time>2026-09-02T14:03:32Z</time>
					</trkpt>
					<trkpt lat="44.436830" lon="5.817080">
						<ele>1138</ele>
						<time>2026-09-02T14:03:37Z</time>
					</trkpt>
					<trkpt lat="44.436950" lon="5.817140">
						<ele>1143</ele>
						<time>2026-09-02T14:03:43Z</time>
					</trkpt>
					<trkpt lat="44.437130" lon="5.817160">
						<ele>1148</ele>
						<time>2026-09-02T14:03:52Z</time>
					</trkpt>
					<trkpt lat="44.437330" lon="5.817270">
						<ele>1155</ele>
						<time>2026-09-02T14:04:03Z</time>
					</trkpt>
					<trkpt lat="44.437500" lon="5.817440">
						<ele>1161</ele>
						<time>2026-09-02T14:04:13Z</time>
					</trkpt>
					<trkpt lat="44.437520" lon="5.817510">
						<ele>1163</ele>
						<time>2026-09-02T14:04:16Z</time>
					</trkpt>
					<trkpt lat="44.437590" lon="5.817600">
						<ele>1166</ele>
						<time>2026-09-02T14:04:21Z</time>
					</trkpt>
					<trkpt lat="44.437770" lon="5.818380">
						<ele>1185</ele>
						<time>2026-09-02T14:04:50Z</time>
					</trkpt>
					<trkpt lat="44.437830" lon="5.818450">
						<ele>1189</ele>
						<time>2026-09-02T14:04:54Z</time>
					</trkpt>
					<trkpt lat="44.437820" lon="5.818690">
						<ele>1192</ele>
						<time>2026-09-02T14:05:03Z</time>
					</trkpt>
					<trkpt lat="44.437860" lon="5.818900">
						<ele>1197</ele>
						<time>2026-09-02T14:05:10Z</time>
					</trkpt>
					<trkpt lat="44.438040" lon="5.819370">
						<ele>1212</ele>
						<time>2026-09-02T14:05:29Z</time>
					</trkpt>
					<trkpt lat="44.438040" lon="5.819470">
						<ele>1214</ele>
						<time>2026-09-02T14:05:33Z</time>
					</trkpt>
					<trkpt lat="44.438250" lon="5.820130">
						<ele>1231</ele>
						<time>2026-09-02T14:05:59Z</time>
					</trkpt>
					<trkpt lat="44.438280" lon="5.820480">
						<ele>1237</ele>
						<time>2026-09-02T14:06:11Z</time>
					</trkpt>
					<trkpt lat="44.438220" lon="5.820650">
						<ele>1237</ele>
						<time>2026-09-02T14:06:18Z</time>
					</trkpt>
					<trkpt lat="44.438200" lon="5.821060">
						<ele>1245</ele>
						<time>2026-09-02T14:06:33Z</time>
					</trkpt>
					<trkpt lat="44.438100" lon="5.821360">
						<ele>1249</ele>
						<time>2026-09-02T14:06:45Z</time>
					</trkpt>
					<trkpt lat="44.437890" lon="5.821670">
						<ele>1250</ele>
						<time>2026-09-02T14:07:00Z</time>
					</trkpt>
					<trkpt lat="44.437920" lon="5.821840">
						<ele>1254</ele>
						<time>2026-09-02T14:07:06Z</time>
					</trkpt>
					<trkpt lat="44.437920" lon="5.822080">
						<ele>1259</ele>
						<time>2026-09-02T14:07:15Z</time>
					</trkpt>
					<trkpt lat="44.437890" lon="5.822310">
						<ele>1262</ele>
						<time>2026-09-02T14:07:23Z</time>
					</trkpt>
					<trkpt lat="44.438010" lon="5.822660">
						<ele>1273</ele>
						<time>2026-09-02T14:07:37Z</time>
					</trkpt>
					<trkpt lat="44.438080" lon="5.822740">
						<ele>1278</ele>
						<time>2026-09-02T14:07:42Z</time>
					</trkpt>
					<trkpt lat="44.438150" lon="5.822890">
						<ele>1283</ele>
						<time>2026-09-02T14:07:48Z</time>
					</trkpt>
					<trkpt lat="44.438220" lon="5.823230">
						<ele>1291</ele>
						<time>2026-09-02T14:08:01Z</time>
					</trkpt>
					<trkpt lat="44.438220" lon="5.823450">
						<ele>1294</ele>
						<time>2026-09-02T14:08:08Z</time>
					</trkpt>
					<trkpt lat="44.438260" lon="5.823620">
						<ele>1299</ele>
						<time>2026-09-02T14:08:15Z</time>
					</trkpt>
					<trkpt lat="44.438230" lon="5.823820">
						<ele>1302</ele>
						<time>2026-09-02T14:08:22Z</time>
					</trkpt>
					<trkpt lat="44.438230" lon="5.824170">
						<ele>1308</ele>
						<time>2026-09-02T14:08:35Z</time>
					</trkpt>
					<trkpt lat="44.438180" lon="5.824360">
						<ele>1311</ele>
						<time>2026-09-02T14:08:42Z</time>
					</trkpt>
					<trkpt lat="44.438200" lon="5.824550">
						<ele>1316</ele>
						<time>2026-09-02T14:08:49Z</time>
					</trkpt>
					<trkpt lat="44.438180" lon="5.824860">
						<ele>1323</ele>
						<time>2026-09-02T14:09:00Z</time>
					</trkpt>
					<trkpt lat="44.438120" lon="5.825080">
						<ele>1326</ele>
						<time>2026-09-02T14:09:08Z</time>
					</trkpt>
					<trkpt lat="44.438040" lon="5.825970">
						<ele>1339</ele>
						<time>2026-09-02T14:09:40Z</time>
					</trkpt>
					<trkpt lat="44.437950" lon="5.826280">
						<ele>1341</ele>
						<time>2026-09-02T14:09:52Z</time>
					</trkpt>
					<trkpt lat="44.437900" lon="5.826710">
						<ele>1348</ele>
						<time>2026-09-02T14:10:08Z</time>
					</trkpt>
					<trkpt lat="44.437850" lon="5.826920">
						<ele>1352</ele>
						<time>2026-09-02T14:10:16Z</time>
					</trkpt>
					<trkpt lat="44.437800" lon="5.827010">
						<ele>1352</ele>
						<time>2026-09-02T14:10:20Z</time>
					</trkpt>
					<trkpt lat="44.437680" lon="5.827070">
						<ele>1349</ele>
						<time>2026-09-02T14:10:26Z</time>
					</trkpt>
					<trkpt lat="44.437600" lon="5.827170">
						<ele>1349</ele>
						<time>2026-09-02T14:10:32Z</time>
					</trkpt>
					<trkpt lat="44.437500" lon="5.827400">
						<ele>1352</ele>
						<time>2026-09-02T14:10:41Z</time>
					</trkpt>
					<trkpt lat="44.437460" lon="5.827710">
						<ele>1361</ele>
						<time>2026-09-02T14:10:52Z</time>
					</trkpt>
					<trkpt lat="44.437370" lon="5.827840">
						<ele>1363</ele>
						<time>2026-09-02T14:10:59Z</time>
					</trkpt>
					<trkpt lat="44.437370" lon="5.827950">
						<ele>1367</ele>
						<time>2026-09-02T14:11:03Z</time>
					</trkpt>
					<trkpt lat="44.437330" lon="5.828080">
						<ele>1370</ele>
						<time>2026-09-02T14:11:08Z</time>
					</trkpt>
					<trkpt lat="44.437250" lon="5.828620">
						<ele>1385</ele>
						<time>2026-09-02T14:11:28Z</time>
					</trkpt>
					<trkpt lat="44.437260" lon="5.828710">
						<ele>1388</ele>
						<time>2026-09-02T14:11:31Z</time>
					</trkpt>
					<trkpt lat="44.437310" lon="5.828800">
						<ele>1391</ele>
						<time>2026-09-02T14:11:35Z</time>
					</trkpt>
					<trkpt lat="44.437300" lon="5.828900">
						<ele>1394</ele>
						<time>2026-09-02T14:11:39Z</time>
					</trkpt>
					<trkpt lat="44.437240" lon="5.828990">
						<ele>1396</ele>
						<time>2026-09-02T14:11:43Z</time>
					</trkpt>
					<trkpt lat="44.437130" lon="5.829060">
						<ele>1396</ele>
						<time>2026-09-02T14:11:49Z</time>
					</trkpt>
					<trkpt lat="44.437040" lon="5.829180">
						<ele>1398</ele>
						<time>2026-09-02T14:11:55Z</time>
					</trkpt>
					<trkpt lat="44.436990" lon="5.829200">
						<ele>1398</ele>
						<time>2026-09-02T14:11:58Z</time>
					</trkpt>
					<trkpt lat="44.436770" lon="5.829510">
						<ele>1404</ele>
						<time>2026-09-02T14:12:13Z</time>
					</trkpt>
					<trkpt lat="44.436650" lon="5.829820">
						<ele>1412</ele>
						<time>2026-09-02T14:12:26Z</time>
					</trkpt>
					<trkpt lat="44.436660" lon="5.830120">
						<ele>1421</ele>
						<time>2026-09-02T14:12:37Z</time>
					</trkpt>
					<trkpt lat="44.436560" lon="5.830500">
						<ele>1434</ele>
						<time>2026-09-02T14:12:51Z</time>
					</trkpt>
					<trkpt lat="44.436570" lon="5.830600">
						<ele>1437</ele>
						<time>2026-09-02T14:12:55Z</time>
					</trkpt>
					<trkpt lat="44.436500" lon="5.830790">
						<ele>1443</ele>
						<time>2026-09-02T14:13:03Z</time>
					</trkpt>
					<trkpt lat="44.436410" lon="5.830910">
						<ele>1446</ele>
						<time>2026-09-02T14:13:09Z</time>
					</trkpt>
					<trkpt lat="44.436330" lon="5.831090">
						<ele>1451</ele>
						<time>2026-09-02T14:13:16Z</time>
					</trkpt>
					<trkpt lat="44.436220" lon="5.831260">
						<ele>1456</ele>
						<time>2026-09-02T14:13:25Z</time>
					</trkpt>
					<trkpt lat="44.436150" lon="5.831280">
						<ele>1456</ele>
						<time>2026-09-02T14:13:28Z</time>
					</trkpt>
					<trkpt lat="44.436050" lon="5.831370">
						<ele>1458</ele>
						<time>2026-09-02T14:13:34Z</time>
					</trkpt>
					<trkpt lat="44.435980" lon="5.831380">
						<ele>1457</ele>
						<time>2026-09-02T14:13:38Z</time>
					</trkpt>
					<trkpt lat="44.435940" lon="5.831430">
						<ele>1459</ele>
						<time>2026-09-02T14:13:40Z</time>
					</trkpt>
					<trkpt lat="44.435860" lon="5.831840">
						<ele>1468</ele>
						<time>2026-09-02T14:13:55Z</time>
					</trkpt>
					<trkpt lat="44.435780" lon="5.831990">
						<ele>1473</ele>
						<time>2026-09-02T14:14:02Z</time>
					</trkpt>
					<trkpt lat="44.435780" lon="5.832110">
						<ele>1475</ele>
						<time>2026-09-02T14:14:06Z</time>
					</trkpt>
					<trkpt lat="44.435730" lon="5.832250">
						<ele>1479</ele>
						<time>2026-09-02T14:14:12Z</time>
					</trkpt>
					<trkpt lat="44.435730" lon="5.832320">
						<ele>1481</ele>
						<time>2026-09-02T14:14:14Z</time>
					</trkpt>
					<trkpt lat="44.435500" lon="5.832720">
						<ele>1489</ele>
						<time>2026-09-02T14:14:33Z</time>
					</trkpt>
					<trkpt lat="44.435530" lon="5.832820">
						<ele>1490</ele>
						<time>2026-09-02T14:14:37Z</time>
					</trkpt>
					<trkpt lat="44.435710" lon="5.832990">
						<ele>1490</ele>
						<time>2026-09-02T14:14:48Z</time>
					</trkpt>
					<trkpt lat="44.435770" lon="5.833100">
						<ele>1492</ele>
						<time>2026-09-02T14:14:53Z</time>
					</trkpt>
					<trkpt lat="44.435770" lon="5.833370">
						<ele>1495</ele>
						<time>2026-09-02T14:15:02Z</time>
					</trkpt>
					<trkpt lat="44.435840" lon="5.834140">
						<ele>1498</ele>
						<time>2026-09-02T14:15:30Z</time>
					</trkpt>
					<trkpt lat="44.436000" lon="5.835000">
						<ele>1504</ele>
						<time>2026-09-02T14:16:02Z</time>
					</trkpt>
					<trkpt lat="44.436050" lon="5.835730">
						<ele>1509</ele>
						<time>2026-09-02T14:16:28Z</time>
					</trkpt>
					<trkpt lat="44.436060" lon="5.836290">
						<ele>1511</ele>
						<time>2026-09-02T14:16:48Z</time>
					</trkpt>
					<trkpt lat="44.436130" lon="5.836740">
						<ele>1516</ele>
						<time>2026-09-02T14:17:04Z</time>
					</trkpt>
					<trkpt lat="44.436190" lon="5.837430">
						<ele>1517</ele>
						<time>2026-09-02T14:17:29Z</time>
					</trkpt>
					<trkpt lat="44.436370" lon="5.837880">
						<ele>1530</ele>
						<time>2026-09-02T14:17:48Z</time>
					</trkpt>
					<trkpt lat="44.436350" lon="5.837970">
						<ele>1530</ele>
						<time>2026-09-02T14:17:51Z</time>
					</trkpt>
					<trkpt lat="44.436150" lon="5.838260">
						<ele>1522</ele>
						<time>2026-09-02T14:18:05Z</time>
					</trkpt>
					<trkpt lat="44.436080" lon="5.838450">
						<ele>1522</ele>
						<time>2026-09-02T14:18:13Z</time>
					</trkpt>
					<trkpt lat="44.435890" lon="5.839330">
						<ele>1531</ele>
						<time>2026-09-02T14:18:46Z</time>
					</trkpt>
					<trkpt lat="44.435690" lon="5.839860">
						<ele>1533</ele>
						<time>2026-09-02T14:19:07Z</time>
					</trkpt>
					<trkpt lat="44.435590" lon="5.840240">
						<ele>1535</ele>
						<time>2026-09-02T14:19:22Z</time>
					</trkpt>
					<trkpt lat="44.435540" lon="5.840660">
						<ele>1538</ele>
						<time>2026-09-02T14:19:37Z</time>
					</trkpt>
					<trkpt lat="44.435580" lon="5.841230">
						<ele>1545</ele>
						<time>2026-09-02T14:19:57Z</time>
					</trkpt>
					<trkpt lat="44.435570" lon="5.841550">
						<ele>1547</ele>
						<time>2026-09-02T14:20:09Z</time>
					</trkpt>
					<trkpt lat="44.435620" lon="5.841980">
						<ele>1553</ele>
						<time>2026-09-02T14:20:24Z</time>
					</trkpt>
					<trkpt lat="44.435600" lon="5.842250">
						<ele>1554</ele>
						<time>2026-09-02T14:20:34Z</time>
					</trkpt>
					<trkpt lat="44.435520" lon="5.842620">
						<ele>1555</ele>
						<time>2026-09-02T14:20:48Z</time>
					</trkpt>
					<trkpt lat="44.435140" lon="5.843770">
						<ele>1564</ele>
						<time>2026-09-02T14:21:33Z</time>
					</trkpt>
					<trkpt lat="44.435060" lon="5.843860">
						<ele>1564</ele>
						<time>2026-09-02T14:21:38Z</time>
					</trkpt>
					<trkpt lat="44.434950" lon="5.843930">
						<ele>1563</ele>
						<time>2026-09-02T14:21:44Z</time>
					</trkpt>
					<trkpt lat="44.434200" lon="5.844050">
						<ele>1559</ele>
						<time>2026-09-02T14:22:22Z</time>
					</trkpt>
					<trkpt lat="44.433720" lon="5.844210">
						<ele>1554</ele>
						<time>2026-09-02T14:22:47Z</time>
					</trkpt>
					<trkpt lat="44.433660" lon="5.844260">
						<ele>1553</ele>
						<time>2026-09-02T14:22:50Z</time>
					</trkpt>
					<trkpt lat="44.433610" lon="5.844370">
						<ele>1554</ele>
						<time>2026-09-02T14:22:55Z</time>
					</trkpt>
					<trkpt lat="44.433510" lon="5.844720">
						<ele>1558</ele>
						<time>2026-09-02T14:23:09Z</time>
					</trkpt>
					<trkpt lat="44.433440" lon="5.845540">
						<ele>1562</ele>
						<time>2026-09-02T14:23:38Z</time>
					</trkpt>
					<trkpt lat="44.433450" lon="5.845890">
						<ele>1562</ele>
						<time>2026-09-02T14:23:51Z</time>
					</trkpt>
					<trkpt lat="44.433560" lon="5.846170">
						<ele>1563</ele>
						<time>2026-09-02T14:24:02Z</time>
					</trkpt>
					<trkpt lat="44.433620" lon="5.846260">
						<ele>1564</ele>
						<time>2026-09-02T14:24:06Z</time>
					</trkpt>
					<trkpt lat="44.433700" lon="5.846300">
						<ele>1567</ele>
						<time>2026-09-02T14:24:11Z</time>
					</trkpt>
					<trkpt lat="44.433780" lon="5.846410">
						<ele>1570</ele>
						<time>2026-09-02T14:24:16Z</time>
					</trkpt>
					<trkpt lat="44.433950" lon="5.846830">
						<ele>1571</ele>
						<time>2026-09-02T14:24:33Z</time>
					</trkpt>
					<trkpt lat="44.434010" lon="5.846900">
						<ele>1572</ele>
						<time>2026-09-02T14:24:37Z</time>
					</trkpt>
					<trkpt lat="44.434070" lon="5.847030">
						<ele>1572</ele>
						<time>2026-09-02T14:24:43Z</time>
					</trkpt>
					<trkpt lat="44.434340" lon="5.847970">
						<ele>1570</ele>
						<time>2026-09-02T14:25:19Z</time>
					</trkpt>
					<trkpt lat="44.434290" lon="5.848150">
						<ele>1566</ele>
						<time>2026-09-02T14:25:26Z</time>
					</trkpt>
					<trkpt lat="44.434290" lon="5.848260">
						<ele>1565</ele>
						<time>2026-09-02T14:25:30Z</time>
					</trkpt>
					<trkpt lat="44.434230" lon="5.848410">
						<ele>1561</ele>
						<time>2026-09-02T14:25:36Z</time>
					</trkpt>
					<trkpt lat="44.434230" lon="5.848540">
						<ele>1560</ele>
						<time>2026-09-02T14:25:41Z</time>
					</trkpt>
					<trkpt lat="44.434170" lon="5.848700">
						<ele>1557</ele>
						<time>2026-09-02T14:25:47Z</time>
					</trkpt>
					<trkpt lat="44.434180" lon="5.848830">
						<ele>1557</ele>
						<time>2026-09-02T14:25:52Z</time>
					</trkpt>
					<trkpt lat="44.434130" lon="5.848930">
						<ele>1555</ele>
						<time>2026-09-02T14:25:56Z</time>
					</trkpt>
					<trkpt lat="44.434140" lon="5.849080">
						<ele>1555</ele>
						<time>2026-09-02T14:26:02Z</time>
					</trkpt>
					<trkpt lat="44.433970" lon="5.849340">
						<ele>1545</ele>
						<time>2026-09-02T14:26:14Z</time>
					</trkpt>
					<trkpt lat="44.433920" lon="5.849680">
						<ele>1541</ele>
						<time>2026-09-02T14:26:27Z</time>
					</trkpt>
					<trkpt lat="44.433860" lon="5.849820">
						<ele>1537</ele>
						<time>2026-09-02T14:26:32Z</time>
					</trkpt>
					<trkpt lat="44.433890" lon="5.849950">
						<ele>1538</ele>
						<time>2026-09-02T14:26:37Z</time>
					</trkpt>
					<trkpt lat="44.433860" lon="5.850030">
						<ele>1536</ele>
						<time>2026-09-02T14:26:41Z</time>
					</trkpt>
					<trkpt lat="44.433850" lon="5.850220">
						<ele>1534</ele>
						<time>2026-09-02T14:26:47Z</time>
					</trkpt>
					<trkpt lat="44.433760" lon="5.850770">
						<ele>1526</ele>
						<time>2026-09-02T14:27:08Z</time>
					</trkpt>
					<trkpt lat="44.433620" lon="5.850960">
						<ele>1519</ele>
						<time>2026-09-02T14:27:17Z</time>
					</trkpt>
					<trkpt lat="44.433600" lon="5.850970">
						<ele>1518</ele>
						<time>2026-09-02T14:27:18Z</time>
					</trkpt>
					<trkpt lat="44.433580" lon="5.850920">
						<ele>1517</ele>
						<time>2026-09-02T14:27:20Z</time>
					</trkpt>
					<trkpt lat="44.433540" lon="5.850910">
						<ele>1515</ele>
						<time>2026-09-02T14:27:22Z</time>
					</trkpt>
					<trkpt lat="44.433490" lon="5.850970">
						<ele>1513</ele>
						<time>2026-09-02T14:27:26Z</time>
					</trkpt>
					<trkpt lat="44.433460" lon="5.851060">
						<ele>1511</ele>
						<time>2026-09-02T14:27:29Z</time>
					</trkpt>
					<trkpt lat="44.433470" lon="5.851550">
						<ele>1512</ele>
						<time>2026-09-02T14:27:47Z</time>
					</trkpt>
					<trkpt lat="44.433390" lon="5.851670">
						<ele>1509</ele>
						<time>2026-09-02T14:27:53Z</time>
					</trkpt>
					<trkpt lat="44.433340" lon="5.851820">
						<ele>1506</ele>
						<time>2026-09-02T14:27:59Z</time>
					</trkpt>
					<trkpt lat="44.433180" lon="5.852060">
						<ele>1500</ele>
						<time>2026-09-02T14:28:10Z</time>
					</trkpt>
					<trkpt lat="44.433130" lon="5.852220">
						<ele>1498</ele>
						<time>2026-09-02T14:28:17Z</time>
					</trkpt>
					<trkpt lat="44.433180" lon="5.852380">
						<ele>1499</ele>
						<time>2026-09-02T14:28:23Z</time>
					</trkpt>
					<trkpt lat="44.433280" lon="5.852520">
						<ele>1501</ele>
						<time>2026-09-02T14:28:30Z</time>
					</trkpt>
					<trkpt lat="44.433340" lon="5.852830">
						<ele>1499</ele>
						<time>2026-09-02T14:28:41Z</time>
					</trkpt>
					<trkpt lat="44.433360" lon="5.853230">
						<ele>1493</ele>
						<time>2026-09-02T14:28:56Z</time>
					</trkpt>
					<trkpt lat="44.433410" lon="5.853430">
						<ele>1494</ele>
						<time>2026-09-02T14:29:03Z</time>
					</trkpt>
					<trkpt lat="44.433340" lon="5.853700">
						<ele>1492</ele>
						<time>2026-09-02T14:29:14Z</time>
					</trkpt>
					<trkpt lat="44.433370" lon="5.853830">
						<ele>1493</ele>
						<time>2026-09-02T14:29:18Z</time>
					</trkpt>
					<trkpt lat="44.433340" lon="5.853910">
						<ele>1492</ele>
						<time>2026-09-02T14:29:22Z</time>
					</trkpt>
					<trkpt lat="44.433210" lon="5.854060">
						<ele>1488</ele>
						<time>2026-09-02T14:29:30Z</time>
					</trkpt>
					<trkpt lat="44.433040" lon="5.854340">
						<ele>1482</ele>
						<time>2026-09-02T14:29:43Z</time>
					</trkpt>
					<trkpt lat="44.433000" lon="5.854470">
						<ele>1481</ele>
						<time>2026-09-02T14:29:48Z</time>
					</trkpt>
					<trkpt lat="44.432900" lon="5.854550">
						<ele>1479</ele>
						<time>2026-09-02T14:29:54Z</time>
					</trkpt>
					<trkpt lat="44.432830" lon="5.854690">
						<ele>1478</ele>
						<time>2026-09-02T14:30:00Z</time>
					</trkpt>
					<trkpt lat="44.432790" lon="5.854850">
						<ele>1479</ele>
						<time>2026-09-02T14:30:06Z</time>
					</trkpt>
					<trkpt lat="44.432650" lon="5.855080">
						<ele>1478</ele>
						<time>2026-09-02T14:30:17Z</time>
					</trkpt>
					<trkpt lat="44.432680" lon="5.855430">
						<ele>1475</ele>
						<time>2026-09-02T14:30:30Z</time>
					</trkpt>
					<trkpt lat="44.432720" lon="5.855530">
						<ele>1475</ele>
						<time>2026-09-02T14:30:34Z</time>
					</trkpt>
					<trkpt lat="44.432720" lon="5.855670">
						<ele>1473</ele>
						<time>2026-09-02T14:30:39Z</time>
					</trkpt>
					<trkpt lat="44.432800" lon="5.856070">
						<ele>1466</ele>
						<time>2026-09-02T14:30:54Z</time>
					</trkpt>
					<trkpt lat="44.432700" lon="5.856220">
						<ele>1464</ele>
						<time>2026-09-02T14:31:01Z</time>
					</trkpt>
					<trkpt lat="44.432620" lon="5.856660">
						<ele>1455</ele>
						<time>2026-09-02T14:31:17Z</time>
					</trkpt>
					<trkpt lat="44.432520" lon="5.856810">
						<ele>1453</ele>
						<time>2026-09-02T14:31:24Z</time>
					</trkpt>
					<trkpt lat="44.432580" lon="5.856930">
						<ele>1449</ele>
						<time>2026-09-02T14:31:30Z</time>
					</trkpt>
					<trkpt lat="44.432590" lon="5.857090">
						<ele>1445</ele>
						<time>2026-09-02T14:31:35Z</time>
					</trkpt>
					<trkpt lat="44.432550" lon="5.857240">
						<ele>1443</ele>
						<time>2026-09-02T14:31:41Z</time>
					</trkpt>
					<trkpt lat="44.432500" lon="5.857330">
						<ele>1442</ele>
						<time>2026-09-02T14:31:45Z</time>
					</trkpt>
					<trkpt lat="44.432500" lon="5.857560">
						<ele>1437</ele>
						<time>2026-09-02T14:31:53Z</time>
					</trkpt>
					<trkpt lat="44.432440" lon="5.857660">
						<ele>1436</ele>
						<time>2026-09-02T14:31:58Z</time>
					</trkpt>
					<trkpt lat="44.432460" lon="5.857700">
						<ele>1434</ele>
						<time>2026-09-02T14:32:00Z</time>
					</trkpt>
					<trkpt lat="44.432520" lon="5.857700">
						<ele>1433</ele>
						<time>2026-09-02T14:32:03Z</time>
					</trkpt>
					<trkpt lat="44.432560" lon="5.857780">
						<ele>1430</ele>
						<time>2026-09-02T14:32:06Z</time>
					</trkpt>
					<trkpt lat="44.432610" lon="5.857790">
						<ele>1429</ele>
						<time>2026-09-02T14:32:09Z</time>
					</trkpt>
					<trkpt lat="44.432630" lon="5.857740">
						<ele>1430</ele>
						<time>2026-09-02T14:32:11Z</time>
					</trkpt>
					<trkpt lat="44.432680" lon="5.857770">
						<ele>1428</ele>
						<time>2026-09-02T14:32:14Z</time>
					</trkpt>
					<trkpt lat="44.432760" lon="5.858020">
						<ele>1422</ele>
						<time>2026-09-02T14:32:23Z</time>
					</trkpt>
					<trkpt lat="44.432800" lon="5.858070">
						<ele>1420</ele>
						<time>2026-09-02T14:32:26Z</time>
					</trkpt>
					<trkpt lat="44.432870" lon="5.858050">
						<ele>1419</ele>
						<time>2026-09-02T14:32:30Z</time>
					</trkpt>
					<trkpt lat="44.432910" lon="5.858010">
						<ele>1420</ele>
						<time>2026-09-02T14:32:32Z</time>
					</trkpt>
					<trkpt lat="44.432990" lon="5.858030">
						<ele>1418</ele>
						<time>2026-09-02T14:32:36Z</time>
					</trkpt>
					<trkpt lat="44.433070" lon="5.857900">
						<ele>1419</ele>
						<time>2026-09-02T14:32:42Z</time>
					</trkpt>
					<trkpt lat="44.433230" lon="5.857800">
						<ele>1419</ele>
						<time>2026-09-02T14:32:51Z</time>
					</trkpt>
					<trkpt lat="44.433350" lon="5.857800">
						<ele>1417</ele>
						<time>2026-09-02T14:32:57Z</time>
					</trkpt>
					<trkpt lat="44.433430" lon="5.857820">
						<ele>1417</ele>
						<time>2026-09-02T14:33:01Z</time>
					</trkpt>
					<trkpt lat="44.433680" lon="5.858020">
						<ele>1415</ele>
						<time>2026-09-02T14:33:16Z</time>
					</trkpt>
					<trkpt lat="44.433790" lon="5.858070">
						<ele>1415</ele>
						<time>2026-09-02T14:33:21Z</time>
					</trkpt>
					<trkpt lat="44.433850" lon="5.858140">
						<ele>1414</ele>
						<time>2026-09-02T14:33:25Z</time>
					</trkpt>
					<trkpt lat="44.433940" lon="5.858190">
						<ele>1413</ele>
						<time>2026-09-02T14:33:30Z</time>
					</trkpt>
					<trkpt lat="44.434030" lon="5.858430">
						<ele>1410</ele>
						<time>2026-09-02T14:33:40Z</time>
					</trkpt>
					<trkpt lat="44.434030" lon="5.858790">
						<ele>1405</ele>
						<time>2026-09-02T14:33:53Z</time>
					</trkpt>
					<trkpt lat="44.434060" lon="5.859030">
						<ele>1401</ele>
						<time>2026-09-02T14:34:01Z</time>
					</trkpt>
					<trkpt lat="44.434140" lon="5.859260">
						<ele>1399</ele>
						<time>2026-09-02T14:34:10Z</time>
					</trkpt>
					<trkpt lat="44.434260" lon="5.859380">
						<ele>1399</ele>
						<time>2026-09-02T14:34:18Z</time>
					</trkpt>
					<trkpt lat="44.434550" lon="5.859890">
						<ele>1397</ele>
						<time>2026-09-02T14:34:41Z</time>
					</trkpt>
					<trkpt lat="44.434770" lon="5.860090">
						<ele>1397</ele>
						<time>2026-09-02T14:34:54Z</time>
					</trkpt>
					<trkpt lat="44.434970" lon="5.860350">
						<ele>1394</ele>
						<time>2026-09-02T14:35:08Z</time>
					</trkpt>
					<trkpt lat="44.435120" lon="5.860610">
						<ele>1392</ele>
						<time>2026-09-02T14:35:20Z</time>
					</trkpt>
					<trkpt lat="44.435370" lon="5.860920">
						<ele>1392</ele>
						<time>2026-09-02T14:35:37Z</time>
					</trkpt>
					<trkpt lat="44.435610" lon="5.861320">
						<ele>1391</ele>
						<time>2026-09-02T14:35:55Z</time>
					</trkpt>
					<trkpt lat="44.435880" lon="5.861840">
						<ele>1386</ele>
						<time>2026-09-02T14:36:18Z</time>
					</trkpt>
					<trkpt lat="44.436040" lon="5.862240">
						<ele>1380</ele>
						<time>2026-09-02T14:36:35Z</time>
					</trkpt>
					<trkpt lat="44.436160" lon="5.862420">
						<ele>1376</ele>
						<time>2026-09-02T14:36:43Z</time>
					</trkpt>
					<trkpt lat="44.436200" lon="5.862610">
						<ele>1373</ele>
						<time>2026-09-02T14:36:51Z</time>
					</trkpt>
					<trkpt lat="44.436300" lon="5.862830">
						<ele>1370</ele>
						<time>2026-09-02T14:37:00Z</time>
					</trkpt>
					<trkpt lat="44.436480" lon="5.863360">
						<ele>1362</ele>
						<time>2026-09-02T14:37:21Z</time>
					</trkpt>
					<trkpt lat="44.436670" lon="5.863590">
						<ele>1358</ele>
						<time>2026-09-02T14:37:33Z</time>
					</trkpt>
					<trkpt lat="44.436760" lon="5.863650">
						<ele>1357</ele>
						<time>2026-09-02T14:37:38Z</time>
					</trkpt>
					<trkpt lat="44.436980" lon="5.863870">
						<ele>1354</ele>
						<time>2026-09-02T14:37:52Z</time>
					</trkpt>
					<trkpt lat="44.437060" lon="5.863890">
						<ele>1353</ele>
						<time>2026-09-02T14:37:56Z</time>
					</trkpt>
					<trkpt lat="44.437150" lon="5.863850">
						<ele>1354</ele>
						<time>2026-09-02T14:38:01Z</time>
					</trkpt>
					<trkpt lat="44.437210" lon="5.863870">
						<ele>1353</ele>
						<time>2026-09-02T14:38:04Z</time>
					</trkpt>
					<trkpt lat="44.437270" lon="5.863930">
						<ele>1352</ele>
						<time>2026-09-02T14:38:07Z</time>
					</trkpt>
					<trkpt lat="44.437460" lon="5.864330">
						<ele>1343</ele>
						<time>2026-09-02T14:38:25Z</time>
					</trkpt>
					<trkpt lat="44.437600" lon="5.864370">
						<ele>1342</ele>
						<time>2026-09-02T14:38:32Z</time>
					</trkpt>
					<trkpt lat="44.437680" lon="5.864450">
						<ele>1341</ele>
						<time>2026-09-02T14:38:37Z</time>
					</trkpt>
					<trkpt lat="44.437750" lon="5.864600">
						<ele>1339</ele>
						<time>2026-09-02T14:38:43Z</time>
					</trkpt>
					<trkpt lat="44.437810" lon="5.864860">
						<ele>1334</ele>
						<time>2026-09-02T14:38:53Z</time>
					</trkpt>
					<trkpt lat="44.437810" lon="5.865050">
						<ele>1331</ele>
						<time>2026-09-02T14:39:00Z</time>
					</trkpt>
					<trkpt lat="44.437760" lon="5.865300">
						<ele>1327</ele>
						<time>2026-09-02T14:39:09Z</time>
					</trkpt>
					<trkpt lat="44.437790" lon="5.865370">
						<ele>1326</ele>
						<time>2026-09-02T14:39:12Z</time>
					</trkpt>
					<trkpt lat="44.438010" lon="5.865590">
						<ele>1322</ele>
						<time>2026-09-02T14:39:25Z</time>
					</trkpt>
					<trkpt lat="44.438250" lon="5.865770">
						<ele>1317</ele>
						<time>2026-09-02T14:39:39Z</time>
					</trkpt>
					<trkpt lat="44.438360" lon="5.866340">
						<ele>1312</ele>
						<time>2026-09-02T14:40:00Z</time>
					</trkpt>
					<trkpt lat="44.438440" lon="5.866590">
						<ele>1311</ele>
						<time>2026-09-02T14:40:10Z</time>
					</trkpt>
					<trkpt lat="44.438430" lon="5.867070">
						<ele>1306</ele>
						<time>2026-09-02T14:40:27Z</time>
					</trkpt>
					<trkpt lat="44.438330" lon="5.867380">
						<ele>1301</ele>
						<time>2026-09-02T14:40:39Z</time>
					</trkpt>
					<trkpt lat="44.438290" lon="5.867710">
						<ele>1298</ele>
						<time>2026-09-02T14:40:51Z</time>
					</trkpt>
					<trkpt lat="44.438170" lon="5.868080">
						<ele>1296</ele>
						<time>2026-09-02T14:41:06Z</time>
					</trkpt>
					<trkpt lat="44.438160" lon="5.868310">
						<ele>1294</ele>
						<time>2026-09-02T14:41:14Z</time>
					</trkpt>
					<trkpt lat="44.438190" lon="5.868510">
						<ele>1292</ele>
						<time>2026-09-02T14:41:21Z</time>
					</trkpt>
					<trkpt lat="44.438280" lon="5.868640">
						<ele>1291</ele>
						<time>2026-09-02T14:41:28Z</time>
					</trkpt>
					<trkpt lat="44.438590" lon="5.868860">
						<ele>1290</ele>
						<time>2026-09-02T14:41:45Z</time>
					</trkpt>
					<trkpt lat="44.438710" lon="5.868960">
						<ele>1289</ele>
						<time>2026-09-02T14:41:52Z</time>
					</trkpt>
					<trkpt lat="44.438730" lon="5.869010">
						<ele>1289</ele>
						<time>2026-09-02T14:41:54Z</time>
					</trkpt>
					<trkpt lat="44.438700" lon="5.869130">
						<ele>1288</ele>
						<time>2026-09-02T14:41:59Z</time>
					</trkpt>
					<trkpt lat="44.438520" lon="5.869270">
						<ele>1287</ele>
						<time>2026-09-02T14:42:09Z</time>
					</trkpt>
					<trkpt lat="44.438360" lon="5.869590">
						<ele>1286</ele>
						<time>2026-09-02T14:42:23Z</time>
					</trkpt>
					<trkpt lat="44.438600" lon="5.870500">
						<ele>1287</ele>
						<time>2026-09-02T14:42:58Z</time>
					</trkpt>
					<trkpt lat="44.438600" lon="5.870660">
						<ele>1287</ele>
						<time>2026-09-02T14:43:03Z</time>
					</trkpt>
					<trkpt lat="44.438530" lon="5.870900">
						<ele>1289</ele>
						<time>2026-09-02T14:43:13Z</time>
					</trkpt>
					<trkpt lat="44.438320" lon="5.871010">
						<ele>1290</ele>
						<time>2026-09-02T14:43:24Z</time>
					</trkpt>
					<trkpt lat="44.438140" lon="5.871070">
						<ele>1290</ele>
						<time>2026-09-02T14:43:33Z</time>
					</trkpt>
					<trkpt lat="44.437990" lon="5.871170">
						<ele>1291</ele>
						<time>2026-09-02T14:43:41Z</time>
					</trkpt>
					<trkpt lat="44.437480" lon="5.871630">
						<ele>1294</ele>
						<time>2026-09-02T14:44:12Z</time>
					</trkpt>
					<trkpt lat="44.437370" lon="5.871790">
						<ele>1294</ele>
						<time>2026-09-02T14:44:20Z</time>
					</trkpt>
					<trkpt lat="44.437320" lon="5.872250">
						<ele>1297</ele>
						<time>2026-09-02T14:44:36Z</time>
					</trkpt>
					<trkpt lat="44.437260" lon="5.872400">
						<ele>1298</ele>
						<time>2026-09-02T14:44:42Z</time>
					</trkpt>
					<trkpt lat="44.437210" lon="5.872450">
						<ele>1298</ele>
						<time>2026-09-02T14:44:45Z</time>
					</trkpt>
					<trkpt lat="44.437040" lon="5.872500">
						<ele>1297</ele>
						<time>2026-09-02T14:44:54Z</time>
					</trkpt>
					<trkpt lat="44.436920" lon="5.872580">
						<ele>1296</ele>
						<time>2026-09-02T14:45:01Z</time>
					</trkpt>
					<trkpt lat="44.436820" lon="5.872700">
						<ele>1297</ele>
						<time>2026-09-02T14:45:07Z</time>
					</trkpt>
					<trkpt lat="44.436310" lon="5.873060">
						<ele>1297</ele>
						<time>2026-09-02T14:45:36Z</time>
					</trkpt>
					<trkpt lat="44.436130" lon="5.873220">
						<ele>1296</ele>
						<time>2026-09-02T14:45:47Z</time>
					</trkpt>
					<trkpt lat="44.435470" lon="5.873570">
						<ele>1295</ele>
						<time>2026-09-02T14:46:22Z</time>
					</trkpt>
					<trkpt lat="44.435040" lon="5.873890">
						<ele>1297</ele>
						<time>2026-09-02T14:46:46Z</time>
					</trkpt>
					<trkpt lat="44.434870" lon="5.873970">
						<ele>1297</ele>
						<time>2026-09-02T14:46:55Z</time>
					</trkpt>
					<trkpt lat="44.434740" lon="5.874110">
						<ele>1297</ele>
						<time>2026-09-02T14:47:04Z</time>
					</trkpt>
					<trkpt lat="44.434490" lon="5.874280">
						<ele>1297</ele>
						<time>2026-09-02T14:47:17Z</time>
					</trkpt>
					<trkpt lat="44.434370" lon="5.874390">
						<ele>1297</ele>
						<time>2026-09-02T14:47:25Z</time>
					</trkpt>
					<trkpt lat="44.434160" lon="5.874490">
						<ele>1296</ele>
						<time>2026-09-02T14:47:36Z</time>
					</trkpt>
					<trkpt lat="44.433920" lon="5.874730">
						<ele>1296</ele>
						<time>2026-09-02T14:47:50Z</time>
					</trkpt>
					<trkpt lat="44.433850" lon="5.874850">
						<ele>1297</ele>
						<time>2026-09-02T14:47:56Z</time>
					</trkpt>
					<trkpt lat="44.433790" lon="5.875020">
						<ele>1297</ele>
						<time>2026-09-02T14:48:03Z</time>
					</trkpt>
					<trkpt lat="44.433780" lon="5.875160">
						<ele>1298</ele>
						<time>2026-09-02T14:48:08Z</time>
					</trkpt>
					<trkpt lat="44.433870" lon="5.875410">
						<ele>1300</ele>
						<time>2026-09-02T14:48:18Z</time>
					</trkpt>
					<trkpt lat="44.433890" lon="5.875530">
						<ele>1301</ele>
						<time>2026-09-02T14:48:22Z</time>
					</trkpt>
					<trkpt lat="44.433890" lon="5.876220">
						<ele>1304</ele>
						<time>2026-09-02T14:48:47Z</time>
					</trkpt>
					<trkpt lat="44.433950" lon="5.876720">
						<ele>1306</ele>
						<time>2026-09-02T14:49:05Z</time>
					</trkpt>
					<trkpt lat="44.433910" lon="5.876890">
						<ele>1307</ele>
						<time>2026-09-02T14:49:11Z</time>
					</trkpt>
					<trkpt lat="44.433770" lon="5.877200">
						<ele>1307</ele>
						<time>2026-09-02T14:49:24Z</time>
					</trkpt>
					<trkpt lat="44.433720" lon="5.877400">
						<ele>1307</ele>
						<time>2026-09-02T14:49:32Z</time>
					</trkpt>
					<trkpt lat="44.433690" lon="5.877650">
						<ele>1308</ele>
						<time>2026-09-02T14:49:41Z</time>
					</trkpt>
					<trkpt lat="44.433700" lon="5.877820">
						<ele>1308</ele>
						<time>2026-09-02T14:49:47Z</time>
					</trkpt>
					<trkpt lat="44.433740" lon="5.878010">
						<ele>1309</ele>
						<time>2026-09-02T14:49:54Z</time>
					</trkpt>
					<trkpt lat="44.433970" lon="5.878460">
						<ele>1313</ele>
						<time>2026-09-02T14:50:14Z</time>
					</trkpt>
					<trkpt lat="44.434030" lon="5.878490">
						<ele>1314</ele>
						<time>2026-09-02T14:50:17Z</time>
					</trkpt>
					<trkpt lat="44.434150" lon="5.878610">
						<ele>1314</ele>
						<time>2026-09-02T14:50:25Z</time>
					</trkpt>
					<trkpt lat="44.434340" lon="5.878850">
						<ele>1316</ele>
						<time>2026-09-02T14:50:37Z</time>
					</trkpt>
					<trkpt lat="44.434430" lon="5.878850">
						<ele>1317</ele>
						<time>2026-09-02T14:50:42Z</time>
					</trkpt>
					<trkpt lat="44.434490" lon="5.878890">
						<ele>1318</ele>
						<time>2026-09-02T14:50:45Z</time>
					</trkpt>
					<trkpt lat="44.434630" lon="5.879120">
						<ele>1319</ele>
						<time>2026-09-02T14:50:56Z</time>
					</trkpt>
					<trkpt lat="44.434720" lon="5.879210">
						<ele>1320</ele>
						<time>2026-09-02T14:51:02Z</time>
					</trkpt>
					<trkpt lat="44.434770" lon="5.879220">
						<ele>1320</ele>
						<time>2026-09-02T14:51:04Z</time>
					</trkpt>
					<trkpt lat="44.434810" lon="5.879260">
						<ele>1321</ele>
						<time>2026-09-02T14:51:07Z</time>
					</trkpt>
					<trkpt lat="44.435000" lon="5.879670">
						<ele>1322</ele>
						<time>2026-09-02T14:51:24Z</time>
					</trkpt>
					<trkpt lat="44.435080" lon="5.879770">
						<ele>1324</ele>
						<time>2026-09-02T14:51:29Z</time>
					</trkpt>
					<trkpt lat="44.435120" lon="5.880010">
						<ele>1324</ele>
						<time>2026-09-02T14:51:38Z</time>
					</trkpt>
					<trkpt lat="44.435110" lon="5.880100">
						<ele>1324</ele>
						<time>2026-09-02T14:51:41Z</time>
					</trkpt>
					<trkpt lat="44.435150" lon="5.880210">
						<ele>1325</ele>
						<time>2026-09-02T14:51:46Z</time>
					</trkpt>
					<trkpt lat="44.435280" lon="5.880310">
						<ele>1328</ele>
						<time>2026-09-02T14:51:53Z</time>
					</trkpt>
					<trkpt lat="44.435570" lon="5.880650">
						<ele>1332</ele>
						<time>2026-09-02T14:52:12Z</time>
					</trkpt>
					<trkpt lat="44.435720" lon="5.880780">
						<ele>1332</ele>
						<time>2026-09-02T14:52:21Z</time>
					</trkpt>
					<trkpt lat="44.435890" lon="5.880850">
						<ele>1334</ele>
						<time>2026-09-02T14:52:30Z</time>
					</trkpt>
					<trkpt lat="44.435970" lon="5.880830">
						<ele>1335</ele>
						<time>2026-09-02T14:52:34Z</time>
					</trkpt>
					<trkpt lat="44.436110" lon="5.880950">
						<ele>1337</ele>
						<time>2026-09-02T14:52:42Z</time>
					</trkpt>
					<trkpt lat="44.436270" lon="5.881020">
						<ele>1339</ele>
						<time>2026-09-02T14:52:51Z</time>
					</trkpt>
					<trkpt lat="44.436500" lon="5.881010">
						<ele>1341</ele>
						<time>2026-09-02T14:53:02Z</time>
					</trkpt>
					<trkpt lat="44.436670" lon="5.881090">
						<ele>1343</ele>
						<time>2026-09-02T14:53:11Z</time>
					</trkpt>
					<trkpt lat="44.436820" lon="5.881200">
						<ele>1344</ele>
						<time>2026-09-02T14:53:20Z</time>
					</trkpt>
					<trkpt lat="44.436970" lon="5.881440">
						<ele>1344</ele>
						<time>2026-09-02T14:53:31Z</time>
					</trkpt>
					<trkpt lat="44.437080" lon="5.881460">
						<ele>1345</ele>
						<time>2026-09-02T14:53:37Z</time>
					</trkpt>
					<trkpt lat="44.437410" lon="5.881640">
						<ele>1346</ele>
						<time>2026-09-02T14:53:54Z</time>
					</trkpt>
					<trkpt lat="44.437520" lon="5.881810">
						<ele>1349</ele>
						<time>2026-09-02T14:54:02Z</time>
					</trkpt>
					<trkpt lat="44.437630" lon="5.882170">
						<ele>1354</ele>
						<time>2026-09-02T14:54:16Z</time>
					</trkpt>
					<trkpt lat="44.437900" lon="5.882500">
						<ele>1361</ele>
						<time>2026-09-02T14:54:34Z</time>
					</trkpt>
					<trkpt lat="44.437980" lon="5.882730">
						<ele>1367</ele>
						<time>2026-09-02T14:54:44Z</time>
					</trkpt>
					<trkpt lat="44.438030" lon="5.882780">
						<ele>1369</ele>
						<time>2026-09-02T14:54:47Z</time>
					</trkpt>
					<trkpt lat="44.438150" lon="5.882810">
						<ele>1371</ele>
						<time>2026-09-02T14:54:53Z</time>
					</trkpt>
					<trkpt lat="44.438300" lon="5.883170">
						<ele>1378</ele>
						<time>2026-09-02T14:55:08Z</time>
					</trkpt>
					<trkpt lat="44.438320" lon="5.883310">
						<ele>1380</ele>
						<time>2026-09-02T14:55:13Z</time>
					</trkpt>
					<trkpt lat="44.438390" lon="5.883440">
						<ele>1384</ele>
						<time>2026-09-02T14:55:18Z</time>
					</trkpt>
					<trkpt lat="44.438390" lon="5.883880">
						<ele>1389</ele>
						<time>2026-09-02T14:55:34Z</time>
					</trkpt>
					<trkpt lat="44.438430" lon="5.884200">
						<ele>1394</ele>
						<time>2026-09-02T14:55:46Z</time>
					</trkpt>
					<trkpt lat="44.438590" lon="5.884560">
						<ele>1401</ele>
						<time>2026-09-02T14:56:01Z</time>
					</trkpt>
					<trkpt lat="44.438650" lon="5.884590">
						<ele>1402</ele>
						<time>2026-09-02T14:56:04Z</time>
					</trkpt>
					<trkpt lat="44.438720" lon="5.884670">
						<ele>1403</ele>
						<time>2026-09-02T14:56:09Z</time>
					</trkpt>
					<trkpt lat="44.438770" lon="5.884670">
						<ele>1404</ele>
						<time>2026-09-02T14:56:11Z</time>
					</trkpt>
					<trkpt lat="44.438810" lon="5.884710">
						<ele>1404</ele>
						<time>2026-09-02T14:56:14Z</time>
					</trkpt>
					<trkpt lat="44.438910" lon="5.884730">
						<ele>1405</ele>
						<time>2026-09-02T14:56:19Z</time>
					</trkpt>
					<trkpt lat="44.439030" lon="5.884790">
						<ele>1406</ele>
						<time>2026-09-02T14:56:25Z</time>
					</trkpt>
					<trkpt lat="44.439120" lon="5.884890">
						<ele>1405</ele>
						<time>2026-09-02T14:56:31Z</time>
					</trkpt>
					<trkpt lat="44.439380" lon="5.884930">
						<ele>1407</ele>
						<time>2026-09-02T14:56:44Z</time>
					</trkpt>
					<trkpt lat="44.439430" lon="5.884960">
						<ele>1407</ele>
						<time>2026-09-02T14:56:47Z</time>
					</trkpt>
					<trkpt lat="44.439770" lon="5.885470">
						<ele>1413</ele>
						<time>2026-09-02T14:57:12Z</time>
					</trkpt>
					<trkpt lat="44.439940" lon="5.885560">
						<ele>1414</ele>
						<time>2026-09-02T14:57:21Z</time>
					</trkpt>
					<trkpt lat="44.440070" lon="5.885780">
						<ele>1416</ele>
						<time>2026-09-02T14:57:31Z</time>
					</trkpt>
					<trkpt lat="44.440220" lon="5.885970">
						<ele>1418</ele>
						<time>2026-09-02T14:57:41Z</time>
					</trkpt>
					<trkpt lat="44.440450" lon="5.886180">
						<ele>1418</ele>
						<time>2026-09-02T14:57:55Z</time>
					</trkpt>
					<trkpt lat="44.440530" lon="5.886290">
						<ele>1418</ele>
						<time>2026-09-02T14:58:00Z</time>
					</trkpt>
					<trkpt lat="44.440540" lon="5.886260">
						<ele>1418</ele>
						<time>2026-09-02T14:58:02Z</time>
					</trkpt>
					<trkpt lat="44.440550" lon="5.886600">
						<ele>1416</ele>
						<time>2026-09-02T14:58:14Z</time>
					</trkpt>
					<trkpt lat="44.440490" lon="5.886700">
						<ele>1416</ele>
						<time>2026-09-02T14:58:18Z</time>
					</trkpt>
					<trkpt lat="44.440320" lon="5.886860">
						<ele>1417</ele>
						<time>2026-09-02T14:58:29Z</time>
					</trkpt>
					<trkpt lat="44.440310" lon="5.886940">
						<ele>1416</ele>
						<time>2026-09-02T14:58:31Z</time>
					</trkpt>
					<trkpt lat="44.440400" lon="5.887460">
						<ele>1409</ele>
						<time>2026-09-02T14:58:51Z</time>
					</trkpt>
					<trkpt lat="44.440470" lon="5.887430">
						<ele>1408</ele>
						<time>2026-09-02T14:58:54Z</time>
					</trkpt>
					<trkpt lat="44.440590" lon="5.887450">
						<ele>1405</ele>
						<time>2026-09-02T14:59:00Z</time>
					</trkpt>
					<trkpt lat="44.440820" lon="5.887640">
						<ele>1397</ele>
						<time>2026-09-02T14:59:14Z</time>
					</trkpt>
					<trkpt lat="44.440860" lon="5.887730">
						<ele>1394</ele>
						<time>2026-09-02T14:59:17Z</time>
					</trkpt>
					<trkpt lat="44.440710" lon="5.888250">
						<ele>1388</ele>
						<time>2026-09-02T14:59:38Z</time>
					</trkpt>
					<trkpt lat="44.440460" lon="5.888610">
						<ele>1385</ele>
						<time>2026-09-02T14:59:55Z</time>
					</trkpt>
					<trkpt lat="44.440300" lon="5.888980">
						<ele>1380</ele>
						<time>2026-09-02T15:00:11Z</time>
					</trkpt>
					<trkpt lat="44.440430" lon="5.889200">
						<ele>1373</ele>
						<time>2026-09-02T15:00:21Z</time>
					</trkpt>
					<trkpt lat="44.440480" lon="5.889350">
						<ele>1370</ele>
						<time>2026-09-02T15:00:27Z</time>
					</trkpt>
					<trkpt lat="44.440600" lon="5.889840">
						<ele>1362</ele>
						<time>2026-09-02T15:00:46Z</time>
					</trkpt>
					<trkpt lat="44.440620" lon="5.890030">
						<ele>1359</ele>
						<time>2026-09-02T15:00:52Z</time>
					</trkpt>
					<trkpt lat="44.440730" lon="5.890170">
						<ele>1356</ele>
						<time>2026-09-02T15:01:00Z</time>
					</trkpt>
					<trkpt lat="44.440810" lon="5.890360">
						<ele>1352</ele>
						<time>2026-09-02T15:01:08Z</time>
					</trkpt>
					<trkpt lat="44.440900" lon="5.890420">
						<ele>1349</ele>
						<time>2026-09-02T15:01:13Z</time>
					</trkpt>
					<trkpt lat="44.440940" lon="5.890570">
						<ele>1346</ele>
						<time>2026-09-02T15:01:18Z</time>
					</trkpt>
					<trkpt lat="44.440950" lon="5.890880">
						<ele>1341</ele>
						<time>2026-09-02T15:01:30Z</time>
					</trkpt>
					<trkpt lat="44.441000" lon="5.891190">
						<ele>1335</ele>
						<time>2026-09-02T15:01:41Z</time>
					</trkpt>
					<trkpt lat="44.440890" lon="5.891930">
						<ele>1326</ele>
						<time>2026-09-02T15:02:08Z</time>
					</trkpt>
					<trkpt lat="44.440800" lon="5.892260">
						<ele>1323</ele>
						<time>2026-09-02T15:02:20Z</time>
					</trkpt>
					<trkpt lat="44.440760" lon="5.892330">
						<ele>1323</ele>
						<time>2026-09-02T15:02:24Z</time>
					</trkpt>
					<trkpt lat="44.440620" lon="5.892400">
						<ele>1325</ele>
						<time>2026-09-02T15:02:31Z</time>
					</trkpt>
					<trkpt lat="44.440420" lon="5.892600">
						<ele>1325</ele>
						<time>2026-09-02T15:02:43Z</time>
					</trkpt>
					<trkpt lat="44.440360" lon="5.892750">
						<ele>1321</ele>
						<time>2026-09-02T15:02:50Z</time>
					</trkpt>
					<trkpt lat="44.440310" lon="5.893110">
						<ele>1309</ele>
						<time>2026-09-02T15:03:03Z</time>
					</trkpt>
					<trkpt lat="44.440270" lon="5.893190">
						<ele>1307</ele>
						<time>2026-09-02T15:03:06Z</time>
					</trkpt>
					<trkpt lat="44.440210" lon="5.893260">
						<ele>1306</ele>
						<time>2026-09-02T15:03:10Z</time>
					</trkpt>
					<trkpt lat="44.439720" lon="5.893460">
						<ele>1311</ele>
						<time>2026-09-02T15:03:36Z</time>
					</trkpt>
					<trkpt lat="44.439570" lon="5.893610">
						<ele>1311</ele>
						<time>2026-09-02T15:03:45Z</time>
					</trkpt>
					<trkpt lat="44.439360" lon="5.893860">
						<ele>1309</ele>
						<time>2026-09-02T15:03:59Z</time>
					</trkpt>
					<trkpt lat="44.439280" lon="5.894020">
						<ele>1307</ele>
						<time>2026-09-02T15:04:06Z</time>
					</trkpt>
					<trkpt lat="44.439240" lon="5.894140">
						<ele>1305</ele>
						<time>2026-09-02T15:04:10Z</time>
					</trkpt>
					<trkpt lat="44.439260" lon="5.894300">
						<ele>1303</ele>
						<time>2026-09-02T15:04:16Z</time>
					</trkpt>
					<trkpt lat="44.439330" lon="5.894470">
						<ele>1300</ele>
						<time>2026-09-02T15:04:23Z</time>
					</trkpt>
					<trkpt lat="44.439490" lon="5.894650">
						<ele>1294</ele>
						<time>2026-09-02T15:04:33Z</time>
					</trkpt>
					<trkpt lat="44.439670" lon="5.894780">
						<ele>1288</ele>
						<time>2026-09-02T15:04:44Z</time>
					</trkpt>
					<trkpt lat="44.439720" lon="5.894870">
						<ele>1286</ele>
						<time>2026-09-02T15:04:48Z</time>
					</trkpt>
					<trkpt lat="44.439720" lon="5.895160">
						<ele>1283</ele>
						<time>2026-09-02T15:04:58Z</time>
					</trkpt>
					<trkpt lat="44.439770" lon="5.895210">
						<ele>1281</ele>
						<time>2026-09-02T15:05:01Z</time>
					</trkpt>
					<trkpt lat="44.439970" lon="5.895030">
						<ele>1277</ele>
						<time>2026-09-02T15:05:13Z</time>
					</trkpt>
					<trkpt lat="44.440040" lon="5.894930">
						<ele>1276</ele>
						<time>2026-09-02T15:05:18Z</time>
					</trkpt>
					<trkpt lat="44.440050" lon="5.894840">
						<ele>1277</ele>
						<time>2026-09-02T15:05:21Z</time>
					</trkpt>
					<trkpt lat="44.439950" lon="5.894560">
						<ele>1283</ele>
						<time>2026-09-02T15:05:32Z</time>
					</trkpt>
					<trkpt lat="44.440010" lon="5.894360">
						<ele>1283</ele>
						<time>2026-09-02T15:05:40Z</time>
					</trkpt>
					<trkpt lat="44.440080" lon="5.894250">
						<ele>1283</ele>
						<time>2026-09-02T15:05:45Z</time>
					</trkpt>
					<trkpt lat="44.440180" lon="5.894190">
						<ele>1281</ele>
						<time>2026-09-02T15:05:51Z</time>
					</trkpt>
					<trkpt lat="44.440220" lon="5.894210">
						<ele>1280</ele>
						<time>2026-09-02T15:05:53Z</time>
					</trkpt>
					<trkpt lat="44.440520" lon="5.894510">
						<ele>1269</ele>
						<time>2026-09-02T15:06:11Z</time>
					</trkpt>
					<trkpt lat="44.440600" lon="5.894630">
						<ele>1265</ele>
						<time>2026-09-02T15:06:17Z</time>
					</trkpt>
					<trkpt lat="44.440620" lon="5.894770">
						<ele>1263</ele>
						<time>2026-09-02T15:06:22Z</time>
					</trkpt>
					<trkpt lat="44.440500" lon="5.895140">
						<ele>1261</ele>
						<time>2026-09-02T15:06:37Z</time>
					</trkpt>
					<trkpt lat="44.440470" lon="5.895510">
						<ele>1258</ele>
						<time>2026-09-02T15:06:50Z</time>
					</trkpt>
					<trkpt lat="44.440250" lon="5.896250">
						<ele>1256</ele>
						<time>2026-09-02T15:07:19Z</time>
					</trkpt>
					<trkpt lat="44.440270" lon="5.896320">
						<ele>1254</ele>
						<time>2026-09-02T15:07:22Z</time>
					</trkpt>
					<trkpt lat="44.440300" lon="5.896340">
						<ele>1253</ele>
						<time>2026-09-02T15:07:23Z</time>
					</trkpt>
					<trkpt lat="44.440490" lon="5.896260">
						<ele>1249</ele>
						<time>2026-09-02T15:07:33Z</time>
					</trkpt>
					<trkpt lat="44.440460" lon="5.896290">
						<ele>1249</ele>
						<time>2026-09-02T15:07:35Z</time>
					</trkpt>
					<trkpt lat="44.440480" lon="5.896360">
						<ele>1248</ele>
						<time>2026-09-02T15:07:38Z</time>
					</trkpt>
					<trkpt lat="44.440760" lon="5.896590">
						<ele>1238</ele>
						<time>2026-09-02T15:07:54Z</time>
					</trkpt>
					<trkpt lat="44.441050" lon="5.897190">
						<ele>1225</ele>
						<time>2026-09-02T15:08:20Z</time>
					</trkpt>
					<trkpt lat="44.441200" lon="5.897340">
						<ele>1221</ele>
						<time>2026-09-02T15:08:29Z</time>
					</trkpt>
					<trkpt lat="44.441240" lon="5.897580">
						<ele>1220</ele>
						<time>2026-09-02T15:08:38Z</time>
					</trkpt>
					<trkpt lat="44.441360" lon="5.897670">
						<ele>1217</ele>
						<time>2026-09-02T15:08:45Z</time>
					</trkpt>
					<trkpt lat="44.441640" lon="5.897970">
						<ele>1208</ele>
						<time>2026-09-02T15:09:02Z</time>
					</trkpt>
					<trkpt lat="44.441680" lon="5.898050">
						<ele>1206</ele>
						<time>2026-09-02T15:09:06Z</time>
					</trkpt>
					<trkpt lat="44.441700" lon="5.898200">
						<ele>1204</ele>
						<time>2026-09-02T15:09:11Z</time>
					</trkpt>
					<trkpt lat="44.441650" lon="5.898540">
						<ele>1205</ele>
						<time>2026-09-02T15:09:24Z</time>
					</trkpt>
					<trkpt lat="44.441660" lon="5.898630">
						<ele>1205</ele>
						<time>2026-09-02T15:09:27Z</time>
					</trkpt>
					<trkpt lat="44.441760" lon="5.898890">
						<ele>1199</ele>
						<time>2026-09-02T15:09:37Z</time>
					</trkpt>
					<trkpt lat="44.441810" lon="5.899110">
						<ele>1195</ele>
						<time>2026-09-02T15:09:46Z</time>
					</trkpt>
					<trkpt lat="44.441890" lon="5.899250">
						<ele>1190</ele>
						<time>2026-09-02T15:09:52Z</time>
					</trkpt>
					<trkpt lat="44.441920" lon="5.899540">
						<ele>1185</ele>
						<time>2026-09-02T15:10:03Z</time>
					</trkpt>
					<trkpt lat="44.442040" lon="5.899990">
						<ele>1173</ele>
						<time>2026-09-02T15:10:20Z</time>
					</trkpt>
					<trkpt lat="44.441990" lon="5.901050">
						<ele>1166</ele>
						<time>2026-09-02T15:10:58Z</time>
					</trkpt>
					<trkpt lat="44.442060" lon="5.901370">
						<ele>1159</ele>
						<time>2026-09-02T15:11:10Z</time>
					</trkpt>
					<trkpt lat="44.442130" lon="5.901300">
						<ele>1157</ele>
						<time>2026-09-02T15:11:14Z</time>
					</trkpt>
					<trkpt lat="44.442210" lon="5.901290">
						<ele>1155</ele>
						<time>2026-09-02T15:11:18Z</time>
					</trkpt>
					<trkpt lat="44.442280" lon="5.901240">
						<ele>1152</ele>
						<time>2026-09-02T15:11:22Z</time>
					</trkpt>
					<trkpt lat="44.442440" lon="5.901080">
						<ele>1147</ele>
						<time>2026-09-02T15:11:32Z</time>
					</trkpt>
					<trkpt lat="44.442490" lon="5.900990">
						<ele>1146</ele>
						<time>2026-09-02T15:11:36Z</time>
					</trkpt>
					<trkpt lat="44.442480" lon="5.900790">
						<ele>1147</ele>
						<time>2026-09-02T15:11:43Z</time>
					</trkpt>
					<trkpt lat="44.442510" lon="5.900700">
						<ele>1146</ele>
						<time>2026-09-02T15:11:47Z</time>
					</trkpt>
					<trkpt lat="44.442620" lon="5.900600">
						<ele>1143</ele>
						<time>2026-09-02T15:11:53Z</time>
					</trkpt>
					<trkpt lat="44.442720" lon="5.900580">
						<ele>1140</ele>
						<time>2026-09-02T15:11:58Z</time>
					</trkpt>
					<trkpt lat="44.442860" lon="5.900660">
						<ele>1135</ele>
						<time>2026-09-02T15:12:06Z</time>
					</trkpt>
					<trkpt lat="44.442970" lon="5.900880">
						<ele>1131</ele>
						<time>2026-09-02T15:12:15Z</time>
					</trkpt>
					<trkpt lat="44.443230" lon="5.901160">
						<ele>1121</ele>
						<time>2026-09-02T15:12:32Z</time>
					</trkpt>
					<trkpt lat="44.443300" lon="5.901270">
						<ele>1117</ele>
						<time>2026-09-02T15:12:37Z</time>
					</trkpt>
					<trkpt lat="44.443420" lon="5.901370">
						<ele>1112</ele>
						<time>2026-09-02T15:12:44Z</time>
					</trkpt>
					<trkpt lat="44.443560" lon="5.901590">
						<ele>1105</ele>
						<time>2026-09-02T15:12:55Z</time>
					</trkpt>
					<trkpt lat="44.443580" lon="5.901670">
						<ele>1104</ele>
						<time>2026-09-02T15:12:58Z</time>
					</trkpt>
					<trkpt lat="44.443550" lon="5.901790">
						<ele>1104</ele>
						<time>2026-09-02T15:13:02Z</time>
					</trkpt>
					<trkpt lat="44.443570" lon="5.902230">
						<ele>1098</ele>
						<time>2026-09-02T15:13:18Z</time>
					</trkpt>
					<trkpt lat="44.443630" lon="5.902660">
						<ele>1092</ele>
						<time>2026-09-02T15:13:33Z</time>
					</trkpt>
					<trkpt lat="44.443680" lon="5.902800">
						<ele>1090</ele>
						<time>2026-09-02T15:13:39Z</time>
					</trkpt>
					<trkpt lat="44.444060" lon="5.903440">
						<ele>1078</ele>
						<time>2026-09-02T15:14:09Z</time>
					</trkpt>
					<trkpt lat="44.444170" lon="5.903750">
						<ele>1074</ele>
						<time>2026-09-02T15:14:21Z</time>
					</trkpt>
					<trkpt lat="44.444180" lon="5.903970">
						<ele>1073</ele>
						<time>2026-09-02T15:14:29Z</time>
					</trkpt>
					<trkpt lat="44.444280" lon="5.904250">
						<ele>1067</ele>
						<time>2026-09-02T15:14:40Z</time>
					</trkpt>
					<trkpt lat="44.444360" lon="5.904360">
						<ele>1062</ele>
						<time>2026-09-02T15:14:46Z</time>
					</trkpt>
					<trkpt lat="44.444400" lon="5.904390">
						<ele>1061</ele>
						<time>2026-09-02T15:14:48Z</time>
					</trkpt>
					<trkpt lat="44.444540" lon="5.904400">
						<ele>1058</ele>
						<time>2026-09-02T15:14:55Z</time>
					</trkpt>
					<trkpt lat="44.444710" lon="5.904550">
						<ele>1052</ele>
						<time>2026-09-02T15:15:05Z</time>
					</trkpt>
					<trkpt lat="44.444790" lon="5.904590">
						<ele>1050</ele>
						<time>2026-09-02T15:15:09Z</time>
					</trkpt>
					<trkpt lat="44.444860" lon="5.904690">
						<ele>1048</ele>
						<time>2026-09-02T15:15:14Z</time>
					</trkpt>
					<trkpt lat="44.444960" lon="5.904690">
						<ele>1047</ele>
						<time>2026-09-02T15:15:19Z</time>
					</trkpt>
					<trkpt lat="44.445070" lon="5.904610">
						<ele>1044</ele>
						<time>2026-09-02T15:15:26Z</time>
					</trkpt>
					<trkpt lat="44.445140" lon="5.904610">
						<ele>1042</ele>
						<time>2026-09-02T15:15:29Z</time>
					</trkpt>
					<trkpt lat="44.445200" lon="5.904650">
						<ele>1039</ele>
						<time>2026-09-02T15:15:32Z</time>
					</trkpt>
					<trkpt lat="44.445200" lon="5.904920">
						<ele>1038</ele>
						<time>2026-09-02T15:15:42Z</time>
					</trkpt>
					<trkpt lat="44.445240" lon="5.905100">
						<ele>1033</ele>
						<time>2026-09-02T15:15:49Z</time>
					</trkpt>
					<trkpt lat="44.445310" lon="5.905270">
						<ele>1027</ele>
						<time>2026-09-02T15:15:56Z</time>
					</trkpt>
					<trkpt lat="44.445500" lon="5.905440">
						<ele>1018</ele>
						<time>2026-09-02T15:16:07Z</time>
					</trkpt>
					<trkpt lat="44.445640" lon="5.905490">
						<ele>1014</ele>
						<time>2026-09-02T15:16:14Z</time>
					</trkpt>
					<trkpt lat="44.445730" lon="5.905580">
						<ele>1010</ele>
						<time>2026-09-02T15:16:20Z</time>
					</trkpt>
					<trkpt lat="44.445840" lon="5.905590">
						<ele>1007</ele>
						<time>2026-09-02T15:16:25Z</time>
					</trkpt>
					<trkpt lat="44.445940" lon="5.905660">
						<ele>1003</ele>
						<time>2026-09-02T15:16:31Z</time>
					</trkpt>
					<trkpt lat="44.445960" lon="5.905760">
						<ele>1001</ele>
						<time>2026-09-02T15:16:35Z</time>
					</trkpt>
					<trkpt lat="44.446100" lon="5.905860">
						<ele>995</ele>
						<time>2026-09-02T15:16:43Z</time>
					</trkpt>
					<trkpt lat="44.446100" lon="5.905910">
						<ele>995</ele>
						<time>2026-09-02T15:16:44Z</time>
					</trkpt>
					<trkpt lat="44.446230" lon="5.906130">
						<ele>990</ele>
						<time>2026-09-02T15:16:55Z</time>
					</trkpt>
					<trkpt lat="44.446330" lon="5.906470">
						<ele>986</ele>
						<time>2026-09-02T15:17:08Z</time>
					</trkpt>
					<trkpt lat="44.446430" lon="5.906670">
						<ele>983</ele>
						<time>2026-09-02T15:17:16Z</time>
					</trkpt>
					<trkpt lat="44.446470" lon="5.906710">
						<ele>982</ele>
						<time>2026-09-02T15:17:19Z</time>
					</trkpt>
					<trkpt lat="44.446530" lon="5.906700">
						<ele>981</ele>
						<time>2026-09-02T15:17:22Z</time>
					</trkpt>
					<trkpt lat="44.446640" lon="5.906760">
						<ele>978</ele>
						<time>2026-09-02T15:17:28Z</time>
					</trkpt>
					<trkpt lat="44.446800" lon="5.907000">
						<ele>974</ele>
						<time>2026-09-02T15:17:40Z</time>
					</trkpt>
					<trkpt lat="44.446960" lon="5.907150">
						<ele>970</ele>
						<time>2026-09-02T15:17:49Z</time>
					</trkpt>
					<trkpt lat="44.447120" lon="5.907280">
						<ele>966</ele>
						<time>2026-09-02T15:17:58Z</time>
					</trkpt>
					<trkpt lat="44.447230" lon="5.907310">
						<ele>964</ele>
						<time>2026-09-02T15:18:04Z</time>
					</trkpt>
					<trkpt lat="44.447350" lon="5.907290">
						<ele>962</ele>
						<time>2026-09-02T15:18:10Z</time>
					</trkpt>
					<trkpt lat="44.447480" lon="5.907170">
						<ele>958</ele>
						<time>2026-09-02T15:18:18Z</time>
					</trkpt>
					<trkpt lat="44.447550" lon="5.907080">
						<ele>957</ele>
						<time>2026-09-02T15:18:23Z</time>
					</trkpt>
					<trkpt lat="44.447690" lon="5.906800">
						<ele>954</ele>
						<time>2026-09-02T15:18:35Z</time>
					</trkpt>
					<trkpt lat="44.447790" lon="5.906760">
						<ele>953</ele>
						<time>2026-09-02T15:18:40Z</time>
					</trkpt>
					<trkpt lat="44.447880" lon="5.906770">
						<ele>952</ele>
						<time>2026-09-02T15:18:45Z</time>
					</trkpt>
					<trkpt lat="44.447950" lon="5.906690">
						<ele>952</ele>
						<time>2026-09-02T15:18:49Z</time>
					</trkpt>
					<trkpt lat="44.448020" lon="5.906790">
						<ele>950</ele>
						<time>2026-09-02T15:18:54Z</time>
					</trkpt>
					<trkpt lat="44.448040" lon="5.906940">
						<ele>949</ele>
						<time>2026-09-02T15:19:00Z</time>
					</trkpt>
					<trkpt lat="44.448130" lon="5.907070">
						<ele>946</ele>
						<time>2026-09-02T15:19:06Z</time>
					</trkpt>
					<trkpt lat="44.448390" lon="5.907230">
						<ele>940</ele>
						<time>2026-09-02T15:19:20Z</time>
					</trkpt>
					<trkpt lat="44.448620" lon="5.907300">
						<ele>940</ele>
						<time>2026-09-02T15:19:32Z</time>
					</trkpt>
					<trkpt lat="44.448780" lon="5.907410">
						<ele>939</ele>
						<time>2026-09-02T15:19:41Z</time>
					</trkpt>
					<trkpt lat="44.448920" lon="5.907400">
						<ele>939</ele>
						<time>2026-09-02T15:19:48Z</time>
					</trkpt>
					<trkpt lat="44.449210" lon="5.906980">
						<ele>944</ele>
						<time>2026-09-02T15:20:09Z</time>
					</trkpt>
					<trkpt lat="44.449490" lon="5.906480">
						<ele>946</ele>
						<time>2026-09-02T15:20:32Z</time>
					</trkpt>
					<trkpt lat="44.450030" lon="5.905770">
						<ele>950</ele>
						<time>2026-09-02T15:21:09Z</time>
					</trkpt>
					<trkpt lat="44.450430" lon="5.905110">
						<ele>955</ele>
						<time>2026-09-02T15:21:40Z</time>
					</trkpt>
					<trkpt lat="44.450530" lon="5.905040">
						<ele>956</ele>
						<time>2026-09-02T15:21:45Z</time>
					</trkpt>
					<trkpt lat="44.451010" lon="5.904850">
						<ele>956</ele>
						<time>2026-09-02T15:22:10Z</time>
					</trkpt>
					<trkpt lat="44.451210" lon="5.904700">
						<ele>957</ele>
						<time>2026-09-02T15:22:21Z</time>
					</trkpt>
					<trkpt lat="44.451380" lon="5.904500">
						<ele>958</ele>
						<time>2026-09-02T15:22:33Z</time>
					</trkpt>
					<trkpt lat="44.451530" lon="5.904220">
						<ele>960</ele>
						<time>2026-09-02T15:22:45Z</time>
					</trkpt>
					<trkpt lat="44.451990" lon="5.903120">
						<ele>973</ele>
						<time>2026-09-02T15:23:31Z</time>
					</trkpt>
					<trkpt lat="44.452040" lon="5.903060">
						<ele>974</ele>
						<time>2026-09-02T15:23:34Z</time>
					</trkpt>
					<trkpt lat="44.452180" lon="5.902960">
						<ele>975</ele>
						<time>2026-09-02T15:23:42Z</time>
					</trkpt>
					<trkpt lat="44.452370" lon="5.902950">
						<ele>974</ele>
						<time>2026-09-02T15:23:51Z</time>
					</trkpt>
					<trkpt lat="44.452420" lon="5.903030">
						<ele>972</ele>
						<time>2026-09-02T15:23:55Z</time>
					</trkpt>
					<trkpt lat="44.452650" lon="5.902970">
						<ele>974</ele>
						<time>2026-09-02T15:24:07Z</time>
					</trkpt>
					<trkpt lat="44.452840" lon="5.902970">
						<ele>975</ele>
						<time>2026-09-02T15:24:16Z</time>
					</trkpt>
					<trkpt lat="44.452980" lon="5.902940">
						<ele>977</ele>
						<time>2026-09-02T15:24:23Z</time>
					</trkpt>
					<trkpt lat="44.452970" lon="5.902960">
						<ele>977</ele>
						<time>2026-09-02T15:24:24Z</time>
					</trkpt>
					<trkpt lat="44.452960" lon="5.902940">
						<ele>977</ele>
						<time>2026-09-02T15:24:25Z</time>
					</trkpt>
					<trkpt lat="44.452990" lon="5.902930">
						<ele>977</ele>
						<time>2026-09-02T15:24:27Z</time>
					</trkpt>
					<trkpt lat="44.452990" lon="5.902950">
						<ele>977</ele>
						<time>2026-09-02T15:24:27Z</time>
					</trkpt>
					<trkpt lat="44.452990" lon="5.902930">
						<ele>977</ele>
						<time>2026-09-02T15:24:28Z</time>
					</trkpt>
					<trkpt lat="44.452860" lon="5.902970">
						<ele>976</ele>
						<time>2026-09-02T15:24:35Z</time>
					</trkpt>
					<trkpt lat="44.452570" lon="5.902970">
						<ele>973</ele>
						<time>2026-09-02T15:24:49Z</time>
					</trkpt>
					<trkpt lat="44.452500" lon="5.902990">
						<ele>972</ele>
						<time>2026-09-02T15:24:53Z</time>
					</trkpt>
					<trkpt lat="44.452440" lon="5.903030">
						<ele>972</ele>
						<time>2026-09-02T15:24:56Z</time>
					</trkpt>
					<trkpt lat="44.452420" lon="5.903110">
						<ele>971</ele>
						<time>2026-09-02T15:24:59Z</time>
					</trkpt>
					<trkpt lat="44.452460" lon="5.903450">
						<ele>965</ele>
						<time>2026-09-02T15:25:12Z</time>
					</trkpt>
					<trkpt lat="44.452580" lon="5.903740">
						<ele>962</ele>
						<time>2026-09-02T15:25:23Z</time>
					</trkpt>
					<trkpt lat="44.452680" lon="5.904210">
						<ele>957</ele>
						<time>2026-09-02T15:25:41Z</time>
					</trkpt>
					<trkpt lat="44.452740" lon="5.904320">
						<ele>956</ele>
						<time>2026-09-02T15:25:46Z</time>
					</trkpt>
					<trkpt lat="44.452870" lon="5.904390">
						<ele>956</ele>
						<time>2026-09-02T15:25:53Z</time>
					</trkpt>
					<trkpt lat="44.453030" lon="5.904550">
						<ele>954</ele>
						<time>2026-09-02T15:26:03Z</time>
					</trkpt>
					<trkpt lat="44.453100" lon="5.904720">
						<ele>952</ele>
						<time>2026-09-02T15:26:10Z</time>
					</trkpt>
					<trkpt lat="44.453130" lon="5.904910">
						<ele>950</ele>
						<time>2026-09-02T15:26:17Z</time>
					</trkpt>
					<trkpt lat="44.453120" lon="5.905410">
						<ele>943</ele>
						<time>2026-09-02T15:26:35Z</time>
					</trkpt>
					<trkpt lat="44.453140" lon="5.905540">
						<ele>942</ele>
						<time>2026-09-02T15:26:39Z</time>
					</trkpt>
					<trkpt lat="44.453180" lon="5.905610">
						<ele>941</ele>
						<time>2026-09-02T15:26:43Z</time>
					</trkpt>
					<trkpt lat="44.453390" lon="5.905730">
						<ele>940</ele>
						<time>2026-09-02T15:26:54Z</time>
					</trkpt>
					<trkpt lat="44.453870" lon="5.905820">
						<ele>938</ele>
						<time>2026-09-02T15:27:18Z</time>
					</trkpt>
					<trkpt lat="44.454000" lon="5.905790">
						<ele>938</ele>
						<time>2026-09-02T15:27:25Z</time>
					</trkpt>
					<trkpt lat="44.454170" lon="5.905790">
						<ele>938</ele>
						<time>2026-09-02T15:27:33Z</time>
					</trkpt>
					<trkpt lat="44.454460" lon="5.905730">
						<ele>935</ele>
						<time>2026-09-02T15:27:48Z</time>
					</trkpt>
					<trkpt lat="44.454910" lon="5.905470">
						<ele>935</ele>
						<time>2026-09-02T15:28:12Z</time>
					</trkpt>
					<trkpt lat="44.455120" lon="5.905430">
						<ele>934</ele>
						<time>2026-09-02T15:28:23Z</time>
					</trkpt>
					<trkpt lat="44.455340" lon="5.905490">
						<ele>931</ele>
						<time>2026-09-02T15:28:34Z</time>
					</trkpt>
					<trkpt lat="44.455550" lon="5.905500">
						<ele>929</ele>
						<time>2026-09-02T15:28:45Z</time>
					</trkpt>
					<trkpt lat="44.455620" lon="5.905530">
						<ele>928</ele>
						<time>2026-09-02T15:28:48Z</time>
					</trkpt>
					<trkpt lat="44.456040" lon="5.905840">
						<ele>919</ele>
						<time>2026-09-02T15:29:12Z</time>
					</trkpt>
					<trkpt lat="44.456080" lon="5.905930">
						<ele>918</ele>
						<time>2026-09-02T15:29:16Z</time>
					</trkpt>
					<trkpt lat="44.456100" lon="5.906030">
						<ele>916</ele>
						<time>2026-09-02T15:29:20Z</time>
					</trkpt>
					<trkpt lat="44.456090" lon="5.906180">
						<ele>914</ele>
						<time>2026-09-02T15:29:25Z</time>
					</trkpt>
					<trkpt lat="44.456000" lon="5.906820">
						<ele>906</ele>
						<time>2026-09-02T15:29:48Z</time>
					</trkpt>
					<trkpt lat="44.455950" lon="5.907000">
						<ele>904</ele>
						<time>2026-09-02T15:29:55Z</time>
					</trkpt>
					<trkpt lat="44.455850" lon="5.907220">
						<ele>901</ele>
						<time>2026-09-02T15:30:04Z</time>
					</trkpt>
					<trkpt lat="44.455830" lon="5.907360">
						<ele>899</ele>
						<time>2026-09-02T15:30:10Z</time>
					</trkpt>
					<trkpt lat="44.455900" lon="5.908030">
						<ele>901</ele>
						<time>2026-09-02T15:30:34Z</time>
					</trkpt>
					<trkpt lat="44.455890" lon="5.908120">
						<ele>901</ele>
						<time>2026-09-02T15:30:37Z</time>
					</trkpt>
					<trkpt lat="44.455850" lon="5.908190">
						<ele>901</ele>
						<time>2026-09-02T15:30:40Z</time>
					</trkpt>
					<trkpt lat="44.455640" lon="5.908380">
						<ele>900</ele>
						<time>2026-09-02T15:30:53Z</time>
					</trkpt>
					<trkpt lat="44.455320" lon="5.908590">
						<ele>899</ele>
						<time>2026-09-02T15:31:10Z</time>
					</trkpt>
					<trkpt lat="44.455270" lon="5.908720">
						<ele>900</ele>
						<time>2026-09-02T15:31:16Z</time>
					</trkpt>
					<trkpt lat="44.455410" lon="5.909320">
						<ele>909</ele>
						<time>2026-09-02T15:31:38Z</time>
					</trkpt>
					<trkpt lat="44.455430" lon="5.909540">
						<ele>910</ele>
						<time>2026-09-02T15:31:46Z</time>
					</trkpt>
					<trkpt lat="44.455410" lon="5.909840">
						<ele>912</ele>
						<time>2026-09-02T15:31:57Z</time>
					</trkpt>
					<trkpt lat="44.455450" lon="5.909980">
						<ele>913</ele>
						<time>2026-09-02T15:32:02Z</time>
					</trkpt>
					<trkpt lat="44.455510" lon="5.910000">
						<ele>914</ele>
						<time>2026-09-02T15:32:05Z</time>
					</trkpt>
					<trkpt lat="44.455620" lon="5.909960">
						<ele>916</ele>
						<time>2026-09-02T15:32:11Z</time>
					</trkpt>
					<trkpt lat="44.455770" lon="5.909800">
						<ele>919</ele>
						<time>2026-09-02T15:32:20Z</time>
					</trkpt>
					<trkpt lat="44.455980" lon="5.909440">
						<ele>921</ele>
						<time>2026-09-02T15:32:37Z</time>
					</trkpt>
					<trkpt lat="44.456060" lon="5.909220">
						<ele>921</ele>
						<time>2026-09-02T15:32:46Z</time>
					</trkpt>
					<trkpt lat="44.456190" lon="5.909040">
						<ele>921</ele>
						<time>2026-09-02T15:32:55Z</time>
					</trkpt>
					<trkpt lat="44.456350" lon="5.908960">
						<ele>923</ele>
						<time>2026-09-02T15:33:04Z</time>
					</trkpt>
					<trkpt lat="44.456620" lon="5.908920">
						<ele>927</ele>
						<time>2026-09-02T15:33:17Z</time>
					</trkpt>
					<trkpt lat="44.456810" lon="5.908850">
						<ele>928</ele>
						<time>2026-09-02T15:33:27Z</time>
					</trkpt>
					<trkpt lat="44.456880" lon="5.908810">
						<ele>928</ele>
						<time>2026-09-02T15:33:31Z</time>
					</trkpt>
					<trkpt lat="44.457030" lon="5.908650">
						<ele>927</ele>
						<time>2026-09-02T15:33:40Z</time>
					</trkpt>
					<trkpt lat="44.457120" lon="5.908640">
						<ele>928</ele>
						<time>2026-09-02T15:33:45Z</time>
					</trkpt>
					<trkpt lat="44.457670" lon="5.908750">
						<ele>938</ele>
						<time>2026-09-02T15:34:12Z</time>
					</trkpt>
					<trkpt lat="44.457870" lon="5.908730">
						<ele>940</ele>
						<time>2026-09-02T15:34:23Z</time>
					</trkpt>
					<trkpt lat="44.458270" lon="5.908830">
						<ele>946</ele>
						<time>2026-09-02T15:34:43Z</time>
					</trkpt>
					<trkpt lat="44.458970" lon="5.908850">
						<ele>955</ele>
						<time>2026-09-02T15:35:18Z</time>
					</trkpt>
					<trkpt lat="44.459190" lon="5.908910">
						<ele>958</ele>
						<time>2026-09-02T15:35:29Z</time>
					</trkpt>
					<trkpt lat="44.459230" lon="5.908960">
						<ele>959</ele>
						<time>2026-09-02T15:35:32Z</time>
					</trkpt>
					<trkpt lat="44.459220" lon="5.909060">
						<ele>961</ele>
						<time>2026-09-02T15:35:35Z</time>
					</trkpt>
					<trkpt lat="44.459140" lon="5.909230">
						<ele>964</ele>
						<time>2026-09-02T15:35:43Z</time>
					</trkpt>
					<trkpt lat="44.458960" lon="5.909820">
						<ele>969</ele>
						<time>2026-09-02T15:36:06Z</time>
					</trkpt>
					<trkpt lat="44.459070" lon="5.909900">
						<ele>972</ele>
						<time>2026-09-02T15:36:12Z</time>
					</trkpt>
					<trkpt lat="44.459240" lon="5.909910">
						<ele>975</ele>
						<time>2026-09-02T15:36:20Z</time>
					</trkpt>
					<trkpt lat="44.459270" lon="5.909820">
						<ele>974</ele>
						<time>2026-09-02T15:36:24Z</time>
					</trkpt>
					<trkpt lat="44.459380" lon="5.909820">
						<ele>976</ele>
						<time>2026-09-02T15:36:29Z</time>
					</trkpt>
					<trkpt lat="44.459540" lon="5.909960">
						<ele>981</ele>
						<time>2026-09-02T15:36:39Z</time>
					</trkpt>
					<trkpt lat="44.459540" lon="5.910060">
						<ele>983</ele>
						<time>2026-09-02T15:36:42Z</time>
					</trkpt>
					<trkpt lat="44.459460" lon="5.910130">
						<ele>983</ele>
						<time>2026-09-02T15:36:47Z</time>
					</trkpt>
					<trkpt lat="44.459430" lon="5.910200">
						<ele>984</ele>
						<time>2026-09-02T15:36:50Z</time>
					</trkpt>
					<trkpt lat="44.459450" lon="5.910230">
						<ele>985</ele>
						<time>2026-09-02T15:36:51Z</time>
					</trkpt>
					<trkpt lat="44.459540" lon="5.910230">
						<ele>987</ele>
						<time>2026-09-02T15:36:56Z</time>
					</trkpt>
					<trkpt lat="44.459560" lon="5.910270">
						<ele>989</ele>
						<time>2026-09-02T15:36:58Z</time>
					</trkpt>
					<trkpt lat="44.459440" lon="5.910410">
						<ele>989</ele>
						<time>2026-09-02T15:37:06Z</time>
					</trkpt>
					<trkpt lat="44.459370" lon="5.910560">
						<ele>991</ele>
						<time>2026-09-02T15:37:12Z</time>
					</trkpt>
					<trkpt lat="44.459340" lon="5.910700">
						<ele>993</ele>
						<time>2026-09-02T15:37:17Z</time>
					</trkpt>
					<trkpt lat="44.459380" lon="5.910790">
						<ele>996</ele>
						<time>2026-09-02T15:37:21Z</time>
					</trkpt>
					<trkpt lat="44.459350" lon="5.910930">
						<ele>996</ele>
						<time>2026-09-02T15:37:26Z</time>
					</trkpt>
					<trkpt lat="44.459450" lon="5.910990">
						<ele>999</ele>
						<time>2026-09-02T15:37:32Z</time>
					</trkpt>
					<trkpt lat="44.459460" lon="5.911040">
						<ele>999</ele>
						<time>2026-09-02T15:37:33Z</time>
					</trkpt>
					<trkpt lat="44.459520" lon="5.911050">
						<ele>1001</ele>
						<time>2026-09-02T15:37:36Z</time>
					</trkpt>
					<trkpt lat="44.459670" lon="5.911310">
						<ele>1007</ele>
						<time>2026-09-02T15:37:48Z</time>
					</trkpt>
					<trkpt lat="44.459890" lon="5.911220">
						<ele>1015</ele>
						<time>2026-09-02T15:38:00Z</time>
					</trkpt>
					<trkpt lat="44.459840" lon="5.911120">
						<ele>1013</ele>
						<time>2026-09-02T15:38:04Z</time>
					</trkpt>
					<trkpt lat="44.459950" lon="5.911120">
						<ele>1017</ele>
						<time>2026-09-02T15:38:10Z</time>
					</trkpt>
					<trkpt lat="44.460110" lon="5.911170">
						<ele>1022</ele>
						<time>2026-09-02T15:38:18Z</time>
					</trkpt>
					<trkpt lat="44.460380" lon="5.911140">
						<ele>1029</ele>
						<time>2026-09-02T15:38:32Z</time>
					</trkpt>
					<trkpt lat="44.460460" lon="5.911170">
						<ele>1031</ele>
						<time>2026-09-02T15:38:36Z</time>
					</trkpt>
					<trkpt lat="44.460610" lon="5.911310">
						<ele>1037</ele>
						<time>2026-09-02T15:38:45Z</time>
					</trkpt>
					<trkpt lat="44.460750" lon="5.911490">
						<ele>1045</ele>
						<time>2026-09-02T15:38:54Z</time>
					</trkpt>
					<trkpt lat="44.460880" lon="5.911570">
						<ele>1051</ele>
						<time>2026-09-02T15:39:01Z</time>
					</trkpt>
					<trkpt lat="44.460930" lon="5.911560">
						<ele>1052</ele>
						<time>2026-09-02T15:39:04Z</time>
					</trkpt>
					<trkpt lat="44.461000" lon="5.911590">
						<ele>1055</ele>
						<time>2026-09-02T15:39:07Z</time>
					</trkpt>
					<trkpt lat="44.461160" lon="5.911510">
						<ele>1058</ele>
						<time>2026-09-02T15:39:16Z</time>
					</trkpt>
					<trkpt lat="44.461220" lon="5.911510">
						<ele>1060</ele>
						<time>2026-09-02T15:39:19Z</time>
					</trkpt>
					<trkpt lat="44.461400" lon="5.911300">
						<ele>1060</ele>
						<time>2026-09-02T15:39:31Z</time>
					</trkpt>
					<trkpt lat="44.461440" lon="5.911290">
						<ele>1060</ele>
						<time>2026-09-02T15:39:33Z</time>
					</trkpt>
					<trkpt lat="44.461540" lon="5.911380">
						<ele>1066</ele>
						<time>2026-09-02T15:39:39Z</time>
					</trkpt>
					<trkpt lat="44.461660" lon="5.911410">
						<ele>1070</ele>
						<time>2026-09-02T15:39:45Z</time>
					</trkpt>
					<trkpt lat="44.461950" lon="5.911620">
						<ele>1078</ele>
						<time>2026-09-02T15:40:01Z</time>
					</trkpt>
					<trkpt lat="44.462060" lon="5.911730">
						<ele>1081</ele>
						<time>2026-09-02T15:40:08Z</time>
					</trkpt>
					<trkpt lat="44.462270" lon="5.911850">
						<ele>1084</ele>
						<time>2026-09-02T15:40:19Z</time>
					</trkpt>
					<trkpt lat="44.462370" lon="5.911970">
						<ele>1086</ele>
						<time>2026-09-02T15:40:26Z</time>
					</trkpt>
					<trkpt lat="44.462420" lon="5.912180">
						<ele>1090</ele>
						<time>2026-09-02T15:40:34Z</time>
					</trkpt>
					<trkpt lat="44.462490" lon="5.912290">
						<ele>1093</ele>
						<time>2026-09-02T15:40:39Z</time>
					</trkpt>
					<trkpt lat="44.462770" lon="5.912430">
						<ele>1097</ele>
						<time>2026-09-02T15:40:54Z</time>
					</trkpt>
					<trkpt lat="44.462920" lon="5.912640">
						<ele>1097</ele>
						<time>2026-09-02T15:41:04Z</time>
					</trkpt>
					<trkpt lat="44.463090" lon="5.912770">
						<ele>1097</ele>
						<time>2026-09-02T15:41:14Z</time>
					</trkpt>
					<trkpt lat="44.463190" lon="5.912900">
						<ele>1097</ele>
						<time>2026-09-02T15:41:21Z</time>
					</trkpt>
					<trkpt lat="44.463330" lon="5.912980">
						<ele>1098</ele>
						<time>2026-09-02T15:41:29Z</time>
					</trkpt>
					<trkpt lat="44.463520" lon="5.912940">
						<ele>1103</ele>
						<time>2026-09-02T15:41:38Z</time>
					</trkpt>
					<trkpt lat="44.463600" lon="5.912880">
						<ele>1106</ele>
						<time>2026-09-02T15:41:43Z</time>
					</trkpt>
					<trkpt lat="44.463690" lon="5.912870">
						<ele>1109</ele>
						<time>2026-09-02T15:41:47Z</time>
					</trkpt>
					<trkpt lat="44.463800" lon="5.912960">
						<ele>1111</ele>
						<time>2026-09-02T15:41:54Z</time>
					</trkpt>
					<trkpt lat="44.463910" lon="5.912990">
						<ele>1114</ele>
						<time>2026-09-02T15:41:59Z</time>
					</trkpt>
					<trkpt lat="44.463980" lon="5.912880">
						<ele>1116</ele>
						<time>2026-09-02T15:42:04Z</time>
					</trkpt>
					<trkpt lat="44.464110" lon="5.912800">
						<ele>1119</ele>
						<time>2026-09-02T15:42:12Z</time>
					</trkpt>
					<trkpt lat="44.464230" lon="5.912780">
						<ele>1122</ele>
						<time>2026-09-02T15:42:18Z</time>
					</trkpt>
					<trkpt lat="44.464560" lon="5.912910">
						<ele>1132</ele>
						<time>2026-09-02T15:42:35Z</time>
					</trkpt>
					<trkpt lat="44.464700" lon="5.912920">
						<ele>1137</ele>
						<time>2026-09-02T15:42:42Z</time>
					</trkpt>
					<trkpt lat="44.464700" lon="5.912970">
						<ele>1137</ele>
						<time>2026-09-02T15:42:44Z</time>
					</trkpt>
					<trkpt lat="44.464620" lon="5.913070">
						<ele>1137</ele>
						<time>2026-09-02T15:42:49Z</time>
					</trkpt>
					<trkpt lat="44.464520" lon="5.913260">
						<ele>1136</ele>
						<time>2026-09-02T15:42:57Z</time>
					</trkpt>
					<trkpt lat="44.464520" lon="5.913340">
						<ele>1137</ele>
						<time>2026-09-02T15:43:00Z</time>
					</trkpt>
					<trkpt lat="44.464610" lon="5.913370">
						<ele>1141</ele>
						<time>2026-09-02T15:43:05Z</time>
					</trkpt>
					<trkpt lat="44.464760" lon="5.913360">
						<ele>1146</ele>
						<time>2026-09-02T15:43:12Z</time>
					</trkpt>
					<trkpt lat="44.464750" lon="5.913510">
						<ele>1147</ele>
						<time>2026-09-02T15:43:18Z</time>
					</trkpt>
					<trkpt lat="44.464800" lon="5.913490">
						<ele>1149</ele>
						<time>2026-09-02T15:43:20Z</time>
					</trkpt>
					<trkpt lat="44.464830" lon="5.913520">
						<ele>1150</ele>
						<time>2026-09-02T15:43:22Z</time>
					</trkpt>
					<trkpt lat="44.464790" lon="5.913660">
						<ele>1149</ele>
						<time>2026-09-02T15:43:28Z</time>
					</trkpt>
					<trkpt lat="44.464810" lon="5.913670">
						<ele>1150</ele>
						<time>2026-09-02T15:43:29Z</time>
					</trkpt>
					<trkpt lat="44.464900" lon="5.913610">
						<ele>1154</ele>
						<time>2026-09-02T15:43:34Z</time>
					</trkpt>
					<trkpt lat="44.464940" lon="5.913620">
						<ele>1156</ele>
						<time>2026-09-02T15:43:36Z</time>
					</trkpt>
					<trkpt lat="44.464900" lon="5.913840">
						<ele>1156</ele>
						<time>2026-09-02T15:43:44Z</time>
					</trkpt>
					<trkpt lat="44.465080" lon="5.913730">
						<ele>1162</ele>
						<time>2026-09-02T15:43:54Z</time>
					</trkpt>
					<trkpt lat="44.465220" lon="5.913610">
						<ele>1166</ele>
						<time>2026-09-02T15:44:02Z</time>
					</trkpt>
					<trkpt lat="44.465250" lon="5.913730">
						<ele>1169</ele>
						<time>2026-09-02T15:44:06Z</time>
					</trkpt>
					<trkpt lat="44.465310" lon="5.913650">
						<ele>1170</ele>
						<time>2026-09-02T15:44:11Z</time>
					</trkpt>
					<trkpt lat="44.465360" lon="5.913640">
						<ele>1172</ele>
						<time>2026-09-02T15:44:13Z</time>
					</trkpt>
					<trkpt lat="44.465390" lon="5.913890">
						<ele>1177</ele>
						<time>2026-09-02T15:44:22Z</time>
					</trkpt>
					<trkpt lat="44.465380" lon="5.914020">
						<ele>1178</ele>
						<time>2026-09-02T15:44:27Z</time>
					</trkpt>
					<trkpt lat="44.465400" lon="5.914030">
						<ele>1179</ele>
						<time>2026-09-02T15:44:28Z</time>
					</trkpt>
					<trkpt lat="44.465500" lon="5.913970">
						<ele>1182</ele>
						<time>2026-09-02T15:44:33Z</time>
					</trkpt>
					<trkpt lat="44.465530" lon="5.913990">
						<ele>1184</ele>
						<time>2026-09-02T15:44:35Z</time>
					</trkpt>
					<trkpt lat="44.465520" lon="5.914140">
						<ele>1186</ele>
						<time>2026-09-02T15:44:40Z</time>
					</trkpt>
					<trkpt lat="44.465550" lon="5.914210">
						<ele>1188</ele>
						<time>2026-09-02T15:44:43Z</time>
					</trkpt>
					<trkpt lat="44.465780" lon="5.914110">
						<ele>1197</ele>
						<time>2026-09-02T15:44:55Z</time>
					</trkpt>
					<trkpt lat="44.466010" lon="5.914100">
						<ele>1206</ele>
						<time>2026-09-02T15:45:07Z</time>
					</trkpt>
					<trkpt lat="44.466030" lon="5.914070">
						<ele>1206</ele>
						<time>2026-09-02T15:45:08Z</time>
					</trkpt>
					<trkpt lat="44.466010" lon="5.914020">
						<ele>1204</ele>
						<time>2026-09-02T15:45:10Z</time>
					</trkpt>
					<trkpt lat="44.466040" lon="5.913960">
						<ele>1204</ele>
						<time>2026-09-02T15:45:13Z</time>
					</trkpt>
					<trkpt lat="44.466230" lon="5.913830">
						<ele>1207</ele>
						<time>2026-09-02T15:45:24Z</time>
					</trkpt>
					<trkpt lat="44.466350" lon="5.913620">
						<ele>1205</ele>
						<time>2026-09-02T15:45:33Z</time>
					</trkpt>
					<trkpt lat="44.466410" lon="5.913590">
						<ele>1206</ele>
						<time>2026-09-02T15:45:36Z</time>
					</trkpt>
					<trkpt lat="44.466440" lon="5.913520">
						<ele>1205</ele>
						<time>2026-09-02T15:45:39Z</time>
					</trkpt>
					<trkpt lat="44.466480" lon="5.913500">
						<ele>1205</ele>
						<time>2026-09-02T15:45:41Z</time>
					</trkpt>
					<trkpt lat="44.466570" lon="5.914250">
						<ele>1233</ele>
						<time>2026-09-02T15:46:09Z</time>
					</trkpt>
					<trkpt lat="44.466620" lon="5.914370">
						<ele>1238</ele>
						<time>2026-09-02T15:46:13Z</time>
					</trkpt>
					<trkpt lat="44.466600" lon="5.914530">
						<ele>1241</ele>
						<time>2026-09-02T15:46:19Z</time>
					</trkpt>
					<trkpt lat="44.466650" lon="5.914650">
						<ele>1246</ele>
						<time>2026-09-02T15:46:24Z</time>
					</trkpt>
					<trkpt lat="44.466670" lon="5.914840">
						<ele>1251</ele>
						<time>2026-09-02T15:46:31Z</time>
					</trkpt>
					<trkpt lat="44.466580" lon="5.915070">
						<ele>1253</ele>
						<time>2026-09-02T15:46:40Z</time>
					</trkpt>
					<trkpt lat="44.466550" lon="5.915430">
						<ele>1261</ele>
						<time>2026-09-02T15:46:53Z</time>
					</trkpt>
					<trkpt lat="44.466490" lon="5.915580">
						<ele>1261</ele>
						<time>2026-09-02T15:47:00Z</time>
					</trkpt>
					<trkpt lat="44.466470" lon="5.915720">
						<ele>1263</ele>
						<time>2026-09-02T15:47:05Z</time>
					</trkpt>
					<trkpt lat="44.466370" lon="5.916050">
						<ele>1265</ele>
						<time>2026-09-02T15:47:17Z</time>
					</trkpt>
					<trkpt lat="44.466350" lon="5.916390">
						<ele>1272</ele>
						<time>2026-09-02T15:47:30Z</time>
					</trkpt>
					<trkpt lat="44.466450" lon="5.916250">
						<ele>1275</ele>
						<time>2026-09-02T15:47:37Z</time>
					</trkpt>
					<trkpt lat="44.466640" lon="5.916100">
						<ele>1282</ele>
						<time>2026-09-02T15:47:48Z</time>
					</trkpt>
					<trkpt lat="44.466710" lon="5.916000">
						<ele>1283</ele>
						<time>2026-09-02T15:47:53Z</time>
					</trkpt>
					<trkpt lat="44.467020" lon="5.915810">
						<ele>1294</ele>
						<time>2026-09-02T15:48:10Z</time>
					</trkpt>
					<trkpt lat="44.467010" lon="5.915920">
						<ele>1296</ele>
						<time>2026-09-02T15:48:14Z</time>
					</trkpt>
					<trkpt lat="44.467040" lon="5.915950">
						<ele>1298</ele>
						<time>2026-09-02T15:48:15Z</time>
					</trkpt>
					<trkpt lat="44.467160" lon="5.915800">
						<ele>1300</ele>
						<time>2026-09-02T15:48:23Z</time>
					</trkpt>
					<trkpt lat="44.467340" lon="5.915680">
						<ele>1305</ele>
						<time>2026-09-02T15:48:33Z</time>
					</trkpt>
					<trkpt lat="44.467450" lon="5.915490">
						<ele>1307</ele>
						<time>2026-09-02T15:48:42Z</time>
					</trkpt>
					<trkpt lat="44.467510" lon="5.915440">
						<ele>1308</ele>
						<time>2026-09-02T15:48:46Z</time>
					</trkpt>
					<trkpt lat="44.467540" lon="5.915460">
						<ele>1310</ele>
						<time>2026-09-02T15:48:47Z</time>
					</trkpt>
					<trkpt lat="44.467550" lon="5.915540">
						<ele>1312</ele>
						<time>2026-09-02T15:48:50Z</time>
					</trkpt>
					<trkpt lat="44.467530" lon="5.915680">
						<ele>1314</ele>
						<time>2026-09-02T15:48:55Z</time>
					</trkpt>
					<trkpt lat="44.467540" lon="5.915960">
						<ele>1320</ele>
						<time>2026-09-02T15:49:05Z</time>
					</trkpt>
					<trkpt lat="44.467590" lon="5.915940">
						<ele>1321</ele>
						<time>2026-09-02T15:49:08Z</time>
					</trkpt>
					<trkpt lat="44.467770" lon="5.915680">
						<ele>1322</ele>
						<time>2026-09-02T15:49:21Z</time>
					</trkpt>
					<trkpt lat="44.467800" lon="5.915670">
						<ele>1323</ele>
						<time>2026-09-02T15:49:22Z</time>
					</trkpt>
					<trkpt lat="44.467790" lon="5.915840">
						<ele>1325</ele>
						<time>2026-09-02T15:49:28Z</time>
					</trkpt>
					<trkpt lat="44.467810" lon="5.915890">
						<ele>1326</ele>
						<time>2026-09-02T15:49:31Z</time>
					</trkpt>
					<trkpt lat="44.467900" lon="5.915860">
						<ele>1329</ele>
						<time>2026-09-02T15:49:35Z</time>
					</trkpt>
					<trkpt lat="44.468020" lon="5.915880">
						<ele>1332</ele>
						<time>2026-09-02T15:49:41Z</time>
					</trkpt>
					<trkpt lat="44.468130" lon="5.916060">
						<ele>1339</ele>
						<time>2026-09-02T15:49:50Z</time>
					</trkpt>
					<trkpt lat="44.468080" lon="5.916410">
						<ele>1343</ele>
						<time>2026-09-02T15:50:02Z</time>
					</trkpt>
					<trkpt lat="44.468210" lon="5.916800">
						<ele>1353</ele>
						<time>2026-09-02T15:50:18Z</time>
					</trkpt>
					<trkpt lat="44.468310" lon="5.916960">
						<ele>1357</ele>
						<time>2026-09-02T15:50:25Z</time>
					</trkpt>
					<trkpt lat="44.468390" lon="5.917020">
						<ele>1357</ele>
						<time>2026-09-02T15:50:30Z</time>
					</trkpt>
					<trkpt lat="44.468490" lon="5.917150">
						<ele>1356</ele>
						<time>2026-09-02T15:50:37Z</time>
					</trkpt>
					<trkpt lat="44.468630" lon="5.917240">
						<ele>1355</ele>
						<time>2026-09-02T15:50:44Z</time>
					</trkpt>
					<trkpt lat="44.468810" lon="5.917420">
						<ele>1354</ele>
						<time>2026-09-02T15:50:56Z</time>
					</trkpt>
					<trkpt lat="44.468910" lon="5.917570">
						<ele>1352</ele>
						<time>2026-09-02T15:51:03Z</time>
					</trkpt>
					<trkpt lat="44.468830" lon="5.917640">
						<ele>1354</ele>
						<time>2026-09-02T15:51:08Z</time>
					</trkpt>
					<trkpt lat="44.468500" lon="5.917770">
						<ele>1360</ele>
						<time>2026-09-02T15:51:25Z</time>
					</trkpt>
					<trkpt lat="44.468130" lon="5.918060">
						<ele>1365</ele>
						<time>2026-09-02T15:51:46Z</time>
					</trkpt>
					<trkpt lat="44.467780" lon="5.918530">
						<ele>1370</ele>
						<time>2026-09-02T15:52:10Z</time>
					</trkpt>
					<trkpt lat="44.467620" lon="5.918790">
						<ele>1374</ele>
						<time>2026-09-02T15:52:22Z</time>
					</trkpt>
					<trkpt lat="44.467470" lon="5.918960">
						<ele>1378</ele>
						<time>2026-09-02T15:52:32Z</time>
					</trkpt>
					<trkpt lat="44.467240" lon="5.919100">
						<ele>1379</ele>
						<time>2026-09-02T15:52:45Z</time>
					</trkpt>
					<trkpt lat="44.467060" lon="5.919280">
						<ele>1381</ele>
						<time>2026-09-02T15:52:56Z</time>
					</trkpt>
					<trkpt lat="44.466980" lon="5.919440">
						<ele>1384</ele>
						<time>2026-09-02T15:53:03Z</time>
					</trkpt>
					<trkpt lat="44.466900" lon="5.919470">
						<ele>1385</ele>
						<time>2026-09-02T15:53:07Z</time>
					</trkpt>
					<trkpt lat="44.466820" lon="5.919770">
						<ele>1390</ele>
						<time>2026-09-02T15:53:18Z</time>
					</trkpt>
					<trkpt lat="44.466840" lon="5.919860">
						<ele>1392</ele>
						<time>2026-09-02T15:53:22Z</time>
					</trkpt>
					<trkpt lat="44.466930" lon="5.920010">
						<ele>1395</ele>
						<time>2026-09-02T15:53:29Z</time>
					</trkpt>
					<trkpt lat="44.467080" lon="5.920180">
						<ele>1398</ele>
						<time>2026-09-02T15:53:38Z</time>
					</trkpt>
					<trkpt lat="44.467250" lon="5.920250">
						<ele>1400</ele>
						<time>2026-09-02T15:53:47Z</time>
					</trkpt>
					<trkpt lat="44.467650" lon="5.920600">
						<ele>1408</ele>
						<time>2026-09-02T15:54:11Z</time>
					</trkpt>
					<trkpt lat="44.467780" lon="5.920770">
						<ele>1411</ele>
						<time>2026-09-02T15:54:20Z</time>
					</trkpt>
					<trkpt lat="44.467870" lon="5.920840">
						<ele>1412</ele>
						<time>2026-09-02T15:54:25Z</time>
					</trkpt>
					<trkpt lat="44.467940" lon="5.920980">
						<ele>1414</ele>
						<time>2026-09-02T15:54:31Z</time>
					</trkpt>
					<trkpt lat="44.468010" lon="5.921060">
						<ele>1415</ele>
						<time>2026-09-02T15:54:35Z</time>
					</trkpt>
					<trkpt lat="44.468220" lon="5.921200">
						<ele>1415</ele>
						<time>2026-09-02T15:54:47Z</time>
					</trkpt>
					<trkpt lat="44.468380" lon="5.921370">
						<ele>1416</ele>
						<time>2026-09-02T15:54:57Z</time>
					</trkpt>
					<trkpt lat="44.468690" lon="5.921570">
						<ele>1410</ele>
						<time>2026-09-02T15:55:14Z</time>
					</trkpt>
					<trkpt lat="44.468880" lon="5.921910">
						<ele>1408</ele>
						<time>2026-09-02T15:55:30Z</time>
					</trkpt>
					<trkpt lat="44.468930" lon="5.922140">
						<ele>1408</ele>
						<time>2026-09-02T15:55:38Z</time>
					</trkpt>
					<trkpt lat="44.468780" lon="5.923060">
						<ele>1421</ele>
						<time>2026-09-02T15:56:12Z</time>
					</trkpt>
					<trkpt lat="44.468790" lon="5.923260">
						<ele>1421</ele>
						<time>2026-09-02T15:56:19Z</time>
					</trkpt>
					<trkpt lat="44.468970" lon="5.923920">
						<ele>1424</ele>
						<time>2026-09-02T15:56:44Z</time>
					</trkpt>
					<trkpt lat="44.469280" lon="5.924810">
						<ele>1436</ele>
						<time>2026-09-02T15:57:20Z</time>
					</trkpt>
					<trkpt lat="44.469320" lon="5.925040">
						<ele>1441</ele>
						<time>2026-09-02T15:57:28Z</time>
					</trkpt>
					<trkpt lat="44.469450" lon="5.925170">
						<ele>1444</ele>
						<time>2026-09-02T15:57:36Z</time>
					</trkpt>
					<trkpt lat="44.469500" lon="5.925270">
						<ele>1447</ele>
						<time>2026-09-02T15:57:40Z</time>
					</trkpt>
					<trkpt lat="44.469540" lon="5.925270">
						<ele>1447</ele>
						<time>2026-09-02T15:57:42Z</time>
					</trkpt>
					<trkpt lat="44.469800" lon="5.925040">
						<ele>1442</ele>
						<time>2026-09-02T15:57:58Z</time>
					</trkpt>
					<trkpt lat="44.470020" lon="5.924800">
						<ele>1435</ele>
						<time>2026-09-02T15:58:12Z</time>
					</trkpt>
					<trkpt lat="44.470270" lon="5.924620">
						<ele>1436</ele>
						<time>2026-09-02T15:58:26Z</time>
					</trkpt>
					<trkpt lat="44.470500" lon="5.924300">
						<ele>1433</ele>
						<time>2026-09-02T15:58:42Z</time>
					</trkpt>
					<trkpt lat="44.470700" lon="5.924150">
						<ele>1434</ele>
						<time>2026-09-02T15:58:53Z</time>
					</trkpt>
					<trkpt lat="44.470790" lon="5.924110">
						<ele>1435</ele>
						<time>2026-09-02T15:58:58Z</time>
					</trkpt>
					<trkpt lat="44.470830" lon="5.924050">
						<ele>1434</ele>
						<time>2026-09-02T15:59:01Z</time>
					</trkpt>
					<trkpt lat="44.470930" lon="5.923980">
						<ele>1430</ele>
						<time>2026-09-02T15:59:07Z</time>
					</trkpt>
					<trkpt lat="44.471110" lon="5.924010">
						<ele>1429</ele>
						<time>2026-09-02T15:59:16Z</time>
					</trkpt>
					<trkpt lat="44.471170" lon="5.924090">
						<ele>1430</ele>
						<time>2026-09-02T15:59:20Z</time>
					</trkpt>
					<trkpt lat="44.471260" lon="5.924320">
						<ele>1435</ele>
						<time>2026-09-02T15:59:29Z</time>
					</trkpt>
					<trkpt lat="44.471590" lon="5.924730">
						<ele>1439</ele>
						<time>2026-09-02T15:59:51Z</time>
					</trkpt>
					<trkpt lat="44.471690" lon="5.925360">
						<ele>1450</ele>
						<time>2026-09-02T16:00:14Z</time>
					</trkpt>
					<trkpt lat="44.471830" lon="5.925820">
						<ele>1453</ele>
						<time>2026-09-02T16:00:32Z</time>
					</trkpt>
					<trkpt lat="44.471840" lon="5.925950">
						<ele>1455</ele>
						<time>2026-09-02T16:00:37Z</time>
					</trkpt>
					<trkpt lat="44.471910" lon="5.926050">
						<ele>1453</ele>
						<time>2026-09-02T16:00:42Z</time>
					</trkpt>
					<trkpt lat="44.472040" lon="5.926390">
						<ele>1452</ele>
						<time>2026-09-02T16:00:56Z</time>
					</trkpt>
					<trkpt lat="44.472080" lon="5.926670">
						<ele>1456</ele>
						<time>2026-09-02T16:01:06Z</time>
					</trkpt>
					<trkpt lat="44.472110" lon="5.926740">
						<ele>1455</ele>
						<time>2026-09-02T16:01:09Z</time>
					</trkpt>
					<trkpt lat="44.472100" lon="5.927070">
						<ele>1458</ele>
						<time>2026-09-02T16:01:21Z</time>
					</trkpt>
					<trkpt lat="44.472120" lon="5.927310">
						<ele>1459</ele>
						<time>2026-09-02T16:01:29Z</time>
					</trkpt>
					<trkpt lat="44.472150" lon="5.927380">
						<ele>1458</ele>
						<time>2026-09-02T16:01:32Z</time>
					</trkpt>
					<trkpt lat="44.472210" lon="5.928260">
						<ele>1461</ele>
						<time>2026-09-02T16:02:04Z</time>
					</trkpt>
					<trkpt lat="44.472240" lon="5.928400">
						<ele>1460</ele>
						<time>2026-09-02T16:02:09Z</time>
					</trkpt>
					<trkpt lat="44.472490" lon="5.928760">
						<ele>1451</ele>
						<time>2026-09-02T16:02:27Z</time>
					</trkpt>
					<trkpt lat="44.472500" lon="5.928850">
						<ele>1451</ele>
						<time>2026-09-02T16:02:30Z</time>
					</trkpt>
					<trkpt lat="44.472470" lon="5.929030">
						<ele>1455</ele>
						<time>2026-09-02T16:02:37Z</time>
					</trkpt>
					<trkpt lat="44.472580" lon="5.929260">
						<ele>1452</ele>
						<time>2026-09-02T16:02:47Z</time>
					</trkpt>
					<trkpt lat="44.472580" lon="5.929380">
						<ele>1452</ele>
						<time>2026-09-02T16:02:51Z</time>
					</trkpt>
					<trkpt lat="44.472470" lon="5.930000">
						<ele>1457</ele>
						<time>2026-09-02T16:03:14Z</time>
					</trkpt>
					<trkpt lat="44.472400" lon="5.930700">
						<ele>1455</ele>
						<time>2026-09-02T16:03:39Z</time>
					</trkpt>
					<trkpt lat="44.472400" lon="5.931290">
						<ele>1454</ele>
						<time>2026-09-02T16:04:00Z</time>
					</trkpt>
					<trkpt lat="44.472440" lon="5.931840">
						<ele>1451</ele>
						<time>2026-09-02T16:04:20Z</time>
					</trkpt>
					<trkpt lat="44.472390" lon="5.932180">
						<ele>1448</ele>
						<time>2026-09-02T16:04:32Z</time>
					</trkpt>
					<trkpt lat="44.472480" lon="5.932440">
						<ele>1447</ele>
						<time>2026-09-02T16:04:42Z</time>
					</trkpt>
					<trkpt lat="44.472590" lon="5.932610">
						<ele>1447</ele>
						<time>2026-09-02T16:04:51Z</time>
					</trkpt>
					<trkpt lat="44.472650" lon="5.932820">
						<ele>1446</ele>
						<time>2026-09-02T16:04:59Z</time>
					</trkpt>
					<trkpt lat="44.472690" lon="5.932860">
						<ele>1447</ele>
						<time>2026-09-02T16:05:01Z</time>
					</trkpt>
					<trkpt lat="44.472840" lon="5.932920">
						<ele>1453</ele>
						<time>2026-09-02T16:05:09Z</time>
					</trkpt>
					<trkpt lat="44.473200" lon="5.932840">
						<ele>1466</ele>
						<time>2026-09-02T16:05:27Z</time>
					</trkpt>
					<trkpt lat="44.473240" lon="5.932800">
						<ele>1467</ele>
						<time>2026-09-02T16:05:30Z</time>
					</trkpt>
					<trkpt lat="44.473370" lon="5.932750">
						<ele>1471</ele>
						<time>2026-09-02T16:05:36Z</time>
					</trkpt>
					<trkpt lat="44.473480" lon="5.932650">
						<ele>1473</ele>
						<time>2026-09-02T16:05:43Z</time>
					</trkpt>
					<trkpt lat="44.473570" lon="5.932620">
						<ele>1476</ele>
						<time>2026-09-02T16:05:48Z</time>
					</trkpt>
					<trkpt lat="44.473680" lon="5.932540">
						<ele>1478</ele>
						<time>2026-09-02T16:05:54Z</time>
					</trkpt>
					<trkpt lat="44.473830" lon="5.932490">
						<ele>1482</ele>
						<time>2026-09-02T16:06:02Z</time>
					</trkpt>
					<trkpt lat="44.473940" lon="5.932400">
						<ele>1483</ele>
						<time>2026-09-02T16:06:08Z</time>
					</trkpt>
					<trkpt lat="44.474120" lon="5.932350">
						<ele>1487</ele>
						<time>2026-09-02T16:06:17Z</time>
					</trkpt>
					<trkpt lat="44.474110" lon="5.932500">
						<ele>1492</ele>
						<time>2026-09-02T16:06:23Z</time>
					</trkpt>
					<trkpt lat="44.474010" lon="5.932990">
						<ele>1500</ele>
						<time>2026-09-02T16:06:41Z</time>
					</trkpt>
					<trkpt lat="44.474030" lon="5.933340">
						<ele>1508</ele>
						<time>2026-09-02T16:06:53Z</time>
					</trkpt>
					<trkpt lat="44.474010" lon="5.933450">
						<ele>1507</ele>
						<time>2026-09-02T16:06:57Z</time>
					</trkpt>
					<trkpt lat="44.474110" lon="5.933410">
						<ele>1511</ele>
						<time>2026-09-02T16:07:03Z</time>
					</trkpt>
					<trkpt lat="44.474390" lon="5.933130">
						<ele>1515</ele>
						<time>2026-09-02T16:07:20Z</time>
					</trkpt>
					<trkpt lat="44.474530" lon="5.933080">
						<ele>1516</ele>
						<time>2026-09-02T16:07:27Z</time>
					</trkpt>
					<trkpt lat="44.474680" lon="5.933070">
						<ele>1520</ele>
						<time>2026-09-02T16:07:34Z</time>
					</trkpt>
					<trkpt lat="44.474840" lon="5.933160">
						<ele>1527</ele>
						<time>2026-09-02T16:07:43Z</time>
					</trkpt>
					<trkpt lat="44.474980" lon="5.933200">
						<ele>1532</ele>
						<time>2026-09-02T16:07:50Z</time>
					</trkpt>
					<trkpt lat="44.474980" lon="5.933250">
						<ele>1533</ele>
						<time>2026-09-02T16:07:52Z</time>
					</trkpt>
					<trkpt lat="44.474870" lon="5.933360">
						<ele>1534</ele>
						<time>2026-09-02T16:07:59Z</time>
					</trkpt>
					<trkpt lat="44.474810" lon="5.933470">
						<ele>1534</ele>
						<time>2026-09-02T16:08:04Z</time>
					</trkpt>
					<trkpt lat="44.475090" lon="5.933470">
						<ele>1540</ele>
						<time>2026-09-02T16:08:18Z</time>
					</trkpt>
					<trkpt lat="44.475220" lon="5.933540">
						<ele>1542</ele>
						<time>2026-09-02T16:08:25Z</time>
					</trkpt>
					<trkpt lat="44.475330" lon="5.933640">
						<ele>1545</ele>
						<time>2026-09-02T16:08:31Z</time>
					</trkpt>
					<trkpt lat="44.475120" lon="5.933780">
						<ele>1549</ele>
						<time>2026-09-02T16:08:43Z</time>
					</trkpt>
					<trkpt lat="44.475100" lon="5.933830">
						<ele>1550</ele>
						<time>2026-09-02T16:08:45Z</time>
					</trkpt>
					<trkpt lat="44.475060" lon="5.933970">
						<ele>1553</ele>
						<time>2026-09-02T16:08:50Z</time>
					</trkpt>
					<trkpt lat="44.475050" lon="5.934160">
						<ele>1558</ele>
						<time>2026-09-02T16:08:57Z</time>
					</trkpt>
					<trkpt lat="44.475100" lon="5.934360">
						<ele>1557</ele>
						<time>2026-09-02T16:09:05Z</time>
					</trkpt>
					<trkpt lat="44.475230" lon="5.934500">
						<ele>1558</ele>
						<time>2026-09-02T16:09:13Z</time>
					</trkpt>
					<trkpt lat="44.475350" lon="5.934510">
						<ele>1560</ele>
						<time>2026-09-02T16:09:19Z</time>
					</trkpt>
					<trkpt lat="44.475500" lon="5.934460">
						<ele>1562</ele>
						<time>2026-09-02T16:09:27Z</time>
					</trkpt>
					<trkpt lat="44.475730" lon="5.934530">
						<ele>1566</ele>
						<time>2026-09-02T16:09:38Z</time>
					</trkpt>
					<trkpt lat="44.476000" lon="5.934510">
						<ele>1570</ele>
						<time>2026-09-02T16:09:52Z</time>
					</trkpt>
					<trkpt lat="44.476170" lon="5.934540">
						<ele>1572</ele>
						<time>2026-09-02T16:10:01Z</time>
					</trkpt>
					<trkpt lat="44.476350" lon="5.934540">
						<ele>1575</ele>
						<time>2026-09-02T16:10:10Z</time>
					</trkpt>
					<trkpt lat="44.477340" lon="5.934280">
						<ele>1578</ele>
						<time>2026-09-02T16:11:00Z</time>
					</trkpt>
					<trkpt lat="44.477510" lon="5.933820">
						<ele>1578</ele>
						<time>2026-09-02T16:11:18Z</time>
					</trkpt>
					<trkpt lat="44.478460" lon="5.932340">
						<ele>1571</ele>
						<time>2026-09-02T16:12:30Z</time>
					</trkpt>
					<trkpt lat="44.478900" lon="5.932390">
						<ele>1561</ele>
						<time>2026-09-02T16:12:52Z</time>
					</trkpt>
					<trkpt lat="44.479090" lon="5.932480">
						<ele>1558</ele>
						<time>2026-09-02T16:13:02Z</time>
					</trkpt>
					<trkpt lat="44.479250" lon="5.932660">
						<ele>1556</ele>
						<time>2026-09-02T16:13:12Z</time>
					</trkpt>
					<trkpt lat="44.479520" lon="5.933330">
						<ele>1550</ele>
						<time>2026-09-02T16:13:39Z</time>
					</trkpt>
					<trkpt lat="44.479560" lon="5.933860">
						<ele>1546</ele>
						<time>2026-09-02T16:13:58Z</time>
					</trkpt>
					<trkpt lat="44.479490" lon="5.934220">
						<ele>1546</ele>
						<time>2026-09-02T16:14:12Z</time>
					</trkpt>
					<trkpt lat="44.479700" lon="5.933970">
						<ele>1540</ele>
						<time>2026-09-02T16:14:26Z</time>
					</trkpt>
					<trkpt lat="44.480070" lon="5.933260">
						<ele>1526</ele>
						<time>2026-09-02T16:14:57Z</time>
					</trkpt>
					<trkpt lat="44.480150" lon="5.933060">
						<ele>1523</ele>
						<time>2026-09-02T16:15:05Z</time>
					</trkpt>
					<trkpt lat="44.480220" lon="5.933400">
						<ele>1520</ele>
						<time>2026-09-02T16:15:18Z</time>
					</trkpt>
					<trkpt lat="44.480310" lon="5.934220">
						<ele>1516</ele>
						<time>2026-09-02T16:15:47Z</time>
					</trkpt>
					<trkpt lat="44.480410" lon="5.934470">
						<ele>1511</ele>
						<time>2026-09-02T16:15:58Z</time>
					</trkpt>
					<trkpt lat="44.480460" lon="5.934220">
						<ele>1509</ele>
						<time>2026-09-02T16:16:07Z</time>
					</trkpt>
					<trkpt lat="44.480610" lon="5.933790">
						<ele>1503</ele>
						<time>2026-09-02T16:16:24Z</time>
					</trkpt>
					<trkpt lat="44.480710" lon="5.934200">
						<ele>1498</ele>
						<time>2026-09-02T16:16:39Z</time>
					</trkpt>
					<trkpt lat="44.480840" lon="5.934410">
						<ele>1492</ele>
						<time>2026-09-02T16:16:49Z</time>
					</trkpt>
					<trkpt lat="44.480900" lon="5.934590">
						<ele>1490</ele>
						<time>2026-09-02T16:16:56Z</time>
					</trkpt>
					<trkpt lat="44.481020" lon="5.934710">
						<ele>1486</ele>
						<time>2026-09-02T16:17:04Z</time>
					</trkpt>
					<trkpt lat="44.481170" lon="5.934700">
						<ele>1480</ele>
						<time>2026-09-02T16:17:11Z</time>
					</trkpt>
					<trkpt lat="44.481320" lon="5.934610">
						<ele>1475</ele>
						<time>2026-09-02T16:17:20Z</time>
					</trkpt>
					<trkpt lat="44.481380" lon="5.934130">
						<ele>1474</ele>
						<time>2026-09-02T16:17:37Z</time>
					</trkpt>
					<trkpt lat="44.481560" lon="5.934260">
						<ele>1467</ele>
						<time>2026-09-02T16:17:47Z</time>
					</trkpt>
					<trkpt lat="44.481680" lon="5.934250">
						<ele>1463</ele>
						<time>2026-09-02T16:17:53Z</time>
					</trkpt>
					<trkpt lat="44.482050" lon="5.934610">
						<ele>1449</ele>
						<time>2026-09-02T16:18:16Z</time>
					</trkpt>
					<trkpt lat="44.482120" lon="5.934760">
						<ele>1446</ele>
						<time>2026-09-02T16:18:22Z</time>
					</trkpt>
					<trkpt lat="44.482140" lon="5.934980">
						<ele>1444</ele>
						<time>2026-09-02T16:18:30Z</time>
					</trkpt>
					<trkpt lat="44.482130" lon="5.935320">
						<ele>1440</ele>
						<time>2026-09-02T16:18:42Z</time>
					</trkpt>
					<trkpt lat="44.482420" lon="5.935000">
						<ele>1434</ele>
						<time>2026-09-02T16:19:01Z</time>
					</trkpt>
					<trkpt lat="44.482380" lon="5.935500">
						<ele>1428</ele>
						<time>2026-09-02T16:19:19Z</time>
					</trkpt>
					<trkpt lat="44.482450" lon="5.935540">
						<ele>1424</ele>
						<time>2026-09-02T16:19:22Z</time>
					</trkpt>
					<trkpt lat="44.482550" lon="5.935390">
						<ele>1423</ele>
						<time>2026-09-02T16:19:30Z</time>
					</trkpt>
					<trkpt lat="44.482670" lon="5.935140">
						<ele>1423</ele>
						<time>2026-09-02T16:19:40Z</time>
					</trkpt>
					<trkpt lat="44.482650" lon="5.935560">
						<ele>1417</ele>
						<time>2026-09-02T16:19:55Z</time>
					</trkpt>
					<trkpt lat="44.482500" lon="5.935930">
						<ele>1415</ele>
						<time>2026-09-02T16:20:11Z</time>
					</trkpt>
					<trkpt lat="44.481990" lon="5.936870">
						<ele>1409</ele>
						<time>2026-09-02T16:20:53Z</time>
					</trkpt>
					<trkpt lat="44.481880" lon="5.937230">
						<ele>1406</ele>
						<time>2026-09-02T16:21:07Z</time>
					</trkpt>
					<trkpt lat="44.481960" lon="5.937600">
						<ele>1395</ele>
						<time>2026-09-02T16:21:21Z</time>
					</trkpt>
					<trkpt lat="44.481950" lon="5.938040">
						<ele>1386</ele>
						<time>2026-09-02T16:21:36Z</time>
					</trkpt>
					<trkpt lat="44.482200" lon="5.937930">
						<ele>1379</ele>
						<time>2026-09-02T16:21:49Z</time>
					</trkpt>
					<trkpt lat="44.482600" lon="5.937630">
						<ele>1371</ele>
						<time>2026-09-02T16:22:12Z</time>
					</trkpt>
					<trkpt lat="44.482990" lon="5.937410">
						<ele>1366</ele>
						<time>2026-09-02T16:22:33Z</time>
					</trkpt>
					<trkpt lat="44.483590" lon="5.937330">
						<ele>1352</ele>
						<time>2026-09-02T16:23:03Z</time>
					</trkpt>
					<trkpt lat="44.484060" lon="5.937390">
						<ele>1338</ele>
						<time>2026-09-02T16:23:27Z</time>
					</trkpt>
					<trkpt lat="44.484480" lon="5.937100">
						<ele>1335</ele>
						<time>2026-09-02T16:23:50Z</time>
					</trkpt>
					<trkpt lat="44.484740" lon="5.936980">
						<ele>1331</ele>
						<time>2026-09-02T16:24:04Z</time>
					</trkpt>
					<trkpt lat="44.485020" lon="5.937060">
						<ele>1324</ele>
						<time>2026-09-02T16:24:18Z</time>
					</trkpt>
					<trkpt lat="44.485060" lon="5.937100">
						<ele>1323</ele>
						<time>2026-09-02T16:24:21Z</time>
					</trkpt>
					<trkpt lat="44.485060" lon="5.937210">
						<ele>1323</ele>
						<time>2026-09-02T16:24:25Z</time>
					</trkpt>
					<trkpt lat="44.485130" lon="5.937310">
						<ele>1322</ele>
						<time>2026-09-02T16:24:30Z</time>
					</trkpt>
					<trkpt lat="44.484980" lon="5.937690">
						<ele>1318</ele>
						<time>2026-09-02T16:24:45Z</time>
					</trkpt>
					<trkpt lat="44.484940" lon="5.938450">
						<ele>1310</ele>
						<time>2026-09-02T16:25:12Z</time>
					</trkpt>
					<trkpt lat="44.485120" lon="5.939160">
						<ele>1305</ele>
						<time>2026-09-02T16:25:39Z</time>
					</trkpt>
					<trkpt lat="44.485290" lon="5.939120">
						<ele>1308</ele>
						<time>2026-09-02T16:25:48Z</time>
					</trkpt>
					<trkpt lat="44.485620" lon="5.939350">
						<ele>1310</ele>
						<time>2026-09-02T16:26:06Z</time>
					</trkpt>
					<trkpt lat="44.485810" lon="5.939570">
						<ele>1308</ele>
						<time>2026-09-02T16:26:19Z</time>
					</trkpt>
					<trkpt lat="44.486050" lon="5.939710">
						<ele>1307</ele>
						<time>2026-09-02T16:26:32Z</time>
					</trkpt>
					<trkpt lat="44.486500" lon="5.939750">
						<ele>1308</ele>
						<time>2026-09-02T16:26:54Z</time>
					</trkpt>
					<trkpt lat="44.486850" lon="5.939640">
						<ele>1313</ele>
						<time>2026-09-02T16:27:12Z</time>
					</trkpt>
					<trkpt lat="44.487070" lon="5.939630">
						<ele>1314</ele>
						<time>2026-09-02T16:27:23Z</time>
					</trkpt>
					<trkpt lat="44.487370" lon="5.939720">
						<ele>1314</ele>
						<time>2026-09-02T16:27:39Z</time>
					</trkpt>
					<trkpt lat="44.487700" lon="5.939930">
						<ele>1314</ele>
						<time>2026-09-02T16:27:57Z</time>
					</trkpt>
					<trkpt lat="44.487770" lon="5.940030">
						<ele>1314</ele>
						<time>2026-09-02T16:28:02Z</time>
					</trkpt>
					<trkpt lat="44.487750" lon="5.940170">
						<ele>1314</ele>
						<time>2026-09-02T16:28:07Z</time>
					</trkpt>
					<trkpt lat="44.487350" lon="5.941160">
						<ele>1312</ele>
						<time>2026-09-02T16:28:47Z</time>
					</trkpt>
					<trkpt lat="44.487330" lon="5.941320">
						<ele>1314</ele>
						<time>2026-09-02T16:28:53Z</time>
					</trkpt>
					<trkpt lat="44.487300" lon="5.941380">
						<ele>1314</ele>
						<time>2026-09-02T16:28:56Z</time>
					</trkpt>
					<trkpt lat="44.487340" lon="5.941530">
						<ele>1316</ele>
						<time>2026-09-02T16:29:02Z</time>
					</trkpt>
					<trkpt lat="44.487400" lon="5.941550">
						<ele>1318</ele>
						<time>2026-09-02T16:29:05Z</time>
					</trkpt>
					<trkpt lat="44.487420" lon="5.941680">
						<ele>1319</ele>
						<time>2026-09-02T16:29:09Z</time>
					</trkpt>
					<trkpt lat="44.487500" lon="5.941780">
						<ele>1322</ele>
						<time>2026-09-02T16:29:15Z</time>
					</trkpt>
					<trkpt lat="44.487530" lon="5.941870">
						<ele>1323</ele>
						<time>2026-09-02T16:29:18Z</time>
					</trkpt>
					<trkpt lat="44.487670" lon="5.942100">
						<ele>1327</ele>
						<time>2026-09-02T16:29:29Z</time>
					</trkpt>
					<trkpt lat="44.487690" lon="5.942230">
						<ele>1328</ele>
						<time>2026-09-02T16:29:34Z</time>
					</trkpt>
					<trkpt lat="44.487750" lon="5.942320">
						<ele>1330</ele>
						<time>2026-09-02T16:29:38Z</time>
					</trkpt>
					<trkpt lat="44.487810" lon="5.942340">
						<ele>1331</ele>
						<time>2026-09-02T16:29:41Z</time>
					</trkpt>
					<trkpt lat="44.487910" lon="5.942570">
						<ele>1334</ele>
						<time>2026-09-02T16:29:51Z</time>
					</trkpt>
					<trkpt lat="44.488080" lon="5.942760">
						<ele>1339</ele>
						<time>2026-09-02T16:30:02Z</time>
					</trkpt>
					<trkpt lat="44.488190" lon="5.942810">
						<ele>1341</ele>
						<time>2026-09-02T16:30:08Z</time>
					</trkpt>
					<trkpt lat="44.488310" lon="5.942920">
						<ele>1345</ele>
						<time>2026-09-02T16:30:15Z</time>
					</trkpt>
					<trkpt lat="44.488520" lon="5.943040">
						<ele>1351</ele>
						<time>2026-09-02T16:30:26Z</time>
					</trkpt>
					<trkpt lat="44.488630" lon="5.943050">
						<ele>1353</ele>
						<time>2026-09-02T16:30:32Z</time>
					</trkpt>
					<trkpt lat="44.488680" lon="5.943110">
						<ele>1355</ele>
						<time>2026-09-02T16:30:35Z</time>
					</trkpt>
					<trkpt lat="44.488790" lon="5.943150">
						<ele>1359</ele>
						<time>2026-09-02T16:30:41Z</time>
					</trkpt>
					<trkpt lat="44.488820" lon="5.943190">
						<ele>1360</ele>
						<time>2026-09-02T16:30:43Z</time>
					</trkpt>
					<trkpt lat="44.488880" lon="5.943200">
						<ele>1362</ele>
						<time>2026-09-02T16:30:46Z</time>
					</trkpt>
					<trkpt lat="44.488920" lon="5.943150">
						<ele>1362</ele>
						<time>2026-09-02T16:30:48Z</time>
					</trkpt>
					<trkpt lat="44.489000" lon="5.943150">
						<ele>1364</ele>
						<time>2026-09-02T16:30:52Z</time>
					</trkpt>
					<trkpt lat="44.489130" lon="5.943200">
						<ele>1368</ele>
						<time>2026-09-02T16:30:59Z</time>
					</trkpt>
					<trkpt lat="44.489270" lon="5.943370">
						<ele>1374</ele>
						<time>2026-09-02T16:31:08Z</time>
					</trkpt>
					<trkpt lat="44.489350" lon="5.943340">
						<ele>1375</ele>
						<time>2026-09-02T16:31:13Z</time>
					</trkpt>
					<trkpt lat="44.489360" lon="5.943390">
						<ele>1376</ele>
						<time>2026-09-02T16:31:14Z</time>
					</trkpt>
					<trkpt lat="44.489410" lon="5.943370">
						<ele>1377</ele>
						<time>2026-09-02T16:31:17Z</time>
					</trkpt>
					<trkpt lat="44.489410" lon="5.943440">
						<ele>1378</ele>
						<time>2026-09-02T16:31:20Z</time>
					</trkpt>
					<trkpt lat="44.489510" lon="5.943490">
						<ele>1381</ele>
						<time>2026-09-02T16:31:25Z</time>
					</trkpt>
					<trkpt lat="44.489560" lon="5.943560">
						<ele>1383</ele>
						<time>2026-09-02T16:31:28Z</time>
					</trkpt>
					<trkpt lat="44.489660" lon="5.943580">
						<ele>1386</ele>
						<time>2026-09-02T16:31:33Z</time>
					</trkpt>
					<trkpt lat="44.489650" lon="5.943680">
						<ele>1387</ele>
						<time>2026-09-02T16:31:37Z</time>
					</trkpt>
					<trkpt lat="44.489810" lon="5.943780">
						<ele>1394</ele>
						<time>2026-09-02T16:31:46Z</time>
					</trkpt>
					<trkpt lat="44.489820" lon="5.943830">
						<ele>1395</ele>
						<time>2026-09-02T16:31:48Z</time>
					</trkpt>
					<trkpt lat="44.489860" lon="5.943820">
						<ele>1396</ele>
						<time>2026-09-02T16:31:50Z</time>
					</trkpt>
					<trkpt lat="44.489890" lon="5.943900">
						<ele>1399</ele>
						<time>2026-09-02T16:31:53Z</time>
					</trkpt>
					<trkpt lat="44.489940" lon="5.943920">
						<ele>1401</ele>
						<time>2026-09-02T16:31:56Z</time>
					</trkpt>
					<trkpt lat="44.490280" lon="5.943910">
						<ele>1410</ele>
						<time>2026-09-02T16:32:13Z</time>
					</trkpt>
					<trkpt lat="44.490380" lon="5.943860">
						<ele>1411</ele>
						<time>2026-09-02T16:32:18Z</time>
					</trkpt>
					<trkpt lat="44.490490" lon="5.943880">
						<ele>1415</ele>
						<time>2026-09-02T16:32:23Z</time>
					</trkpt>
					<trkpt lat="44.490550" lon="5.943940">
						<ele>1418</ele>
						<time>2026-09-02T16:32:27Z</time>
					</trkpt>
					<trkpt lat="44.490620" lon="5.943850">
						<ele>1417</ele>
						<time>2026-09-02T16:32:32Z</time>
					</trkpt>
					<trkpt lat="44.490880" lon="5.943820">
						<ele>1423</ele>
						<time>2026-09-02T16:32:45Z</time>
					</trkpt>
					<trkpt lat="44.490970" lon="5.943890">
						<ele>1428</ele>
						<time>2026-09-02T16:32:50Z</time>
					</trkpt>
					<trkpt lat="44.491080" lon="5.943880">
						<ele>1431</ele>
						<time>2026-09-02T16:32:56Z</time>
					</trkpt>
					<trkpt lat="44.491170" lon="5.943780">
						<ele>1432</ele>
						<time>2026-09-02T16:33:01Z</time>
					</trkpt>
					<trkpt lat="44.491310" lon="5.943760">
						<ele>1436</ele>
						<time>2026-09-02T16:33:08Z</time>
					</trkpt>
					<trkpt lat="44.491410" lon="5.943710">
						<ele>1438</ele>
						<time>2026-09-02T16:33:14Z</time>
					</trkpt>
					<trkpt lat="44.491510" lon="5.943760">
						<ele>1443</ele>
						<time>2026-09-02T16:33:19Z</time>
					</trkpt>
					<trkpt lat="44.491570" lon="5.943750">
						<ele>1444</ele>
						<time>2026-09-02T16:33:22Z</time>
					</trkpt>
					<trkpt lat="44.491600" lon="5.943630">
						<ele>1443</ele>
						<time>2026-09-02T16:33:27Z</time>
					</trkpt>
					<trkpt lat="44.491570" lon="5.943560">
						<ele>1440</ele>
						<time>2026-09-02T16:33:30Z</time>
					</trkpt>
					<trkpt lat="44.491590" lon="5.943490">
						<ele>1440</ele>
						<time>2026-09-02T16:33:32Z</time>
					</trkpt>
					<trkpt lat="44.491630" lon="5.943450">
						<ele>1440</ele>
						<time>2026-09-02T16:33:35Z</time>
					</trkpt>
					<trkpt lat="44.491650" lon="5.943480">
						<ele>1441</ele>
						<time>2026-09-02T16:33:36Z</time>
					</trkpt>
					<trkpt lat="44.491730" lon="5.943340">
						<ele>1442</ele>
						<time>2026-09-02T16:33:43Z</time>
					</trkpt>
					<trkpt lat="44.491880" lon="5.943210">
						<ele>1448</ele>
						<time>2026-09-02T16:33:51Z</time>
					</trkpt>
					<trkpt lat="44.491990" lon="5.942980">
						<ele>1453</ele>
						<time>2026-09-02T16:34:01Z</time>
					</trkpt>
					<trkpt lat="44.492070" lon="5.942940">
						<ele>1457</ele>
						<time>2026-09-02T16:34:05Z</time>
					</trkpt>
					<trkpt lat="44.492090" lon="5.942890">
						<ele>1458</ele>
						<time>2026-09-02T16:34:08Z</time>
					</trkpt>
					<trkpt lat="44.492080" lon="5.942780">
						<ele>1457</ele>
						<time>2026-09-02T16:34:11Z</time>
					</trkpt>
					<trkpt lat="44.492120" lon="5.942740">
						<ele>1459</ele>
						<time>2026-09-02T16:34:14Z</time>
					</trkpt>
					<trkpt lat="44.492120" lon="5.942630">
						<ele>1459</ele>
						<time>2026-09-02T16:34:18Z</time>
					</trkpt>
					<trkpt lat="44.492180" lon="5.942410">
						<ele>1461</ele>
						<time>2026-09-02T16:34:26Z</time>
					</trkpt>
					<trkpt lat="44.492170" lon="5.942210">
						<ele>1461</ele>
						<time>2026-09-02T16:34:33Z</time>
					</trkpt>
					<trkpt lat="44.492210" lon="5.942140">
						<ele>1463</ele>
						<time>2026-09-02T16:34:37Z</time>
					</trkpt>
					<trkpt lat="44.492210" lon="5.942010">
						<ele>1464</ele>
						<time>2026-09-02T16:34:41Z</time>
					</trkpt>
					<trkpt lat="44.492270" lon="5.941870">
						<ele>1467</ele>
						<time>2026-09-02T16:34:47Z</time>
					</trkpt>
					<trkpt lat="44.492270" lon="5.941690">
						<ele>1467</ele>
						<time>2026-09-02T16:34:54Z</time>
					</trkpt>
					<trkpt lat="44.492320" lon="5.941600">
						<ele>1470</ele>
						<time>2026-09-02T16:34:58Z</time>
					</trkpt>
					<trkpt lat="44.492320" lon="5.941480">
						<ele>1471</ele>
						<time>2026-09-02T16:35:02Z</time>
					</trkpt>
					<trkpt lat="44.492350" lon="5.941400">
						<ele>1473</ele>
						<time>2026-09-02T16:35:05Z</time>
					</trkpt>
					<trkpt lat="44.492340" lon="5.941260">
						<ele>1473</ele>
						<time>2026-09-02T16:35:10Z</time>
					</trkpt>
					<trkpt lat="44.492450" lon="5.940990">
						<ele>1480</ele>
						<time>2026-09-02T16:35:21Z</time>
					</trkpt>
					<trkpt lat="44.492470" lon="5.940860">
						<ele>1481</ele>
						<time>2026-09-02T16:35:26Z</time>
					</trkpt>
					<trkpt lat="44.492440" lon="5.940480">
						<ele>1480</ele>
						<time>2026-09-02T16:35:40Z</time>
					</trkpt>
					<trkpt lat="44.492600" lon="5.940150">
						<ele>1490</ele>
						<time>2026-09-02T16:35:54Z</time>
					</trkpt>
					<trkpt lat="44.492560" lon="5.940050">
						<ele>1488</ele>
						<time>2026-09-02T16:35:58Z</time>
					</trkpt>
					<trkpt lat="44.492570" lon="5.940000">
						<ele>1488</ele>
						<time>2026-09-02T16:36:00Z</time>
					</trkpt>
					<trkpt lat="44.492620" lon="5.939960">
						<ele>1492</ele>
						<time>2026-09-02T16:36:03Z</time>
					</trkpt>
					<trkpt lat="44.492590" lon="5.939770">
						<ele>1491</ele>
						<time>2026-09-02T16:36:10Z</time>
					</trkpt>
					<trkpt lat="44.492630" lon="5.939600">
						<ele>1495</ele>
						<time>2026-09-02T16:36:16Z</time>
					</trkpt>
					<trkpt lat="44.492650" lon="5.939590">
						<ele>1497</ele>
						<time>2026-09-02T16:36:17Z</time>
					</trkpt>
					<trkpt lat="44.492880" lon="5.939950">
						<ele>1507</ele>
						<time>2026-09-02T16:36:34Z</time>
					</trkpt>
					<trkpt lat="44.492920" lon="5.940220">
						<ele>1509</ele>
						<time>2026-09-02T16:36:44Z</time>
					</trkpt>
					<trkpt lat="44.492990" lon="5.940370">
						<ele>1513</ele>
						<time>2026-09-02T16:36:51Z</time>
					</trkpt>
					<trkpt lat="44.493070" lon="5.940660">
						<ele>1517</ele>
						<time>2026-09-02T16:37:02Z</time>
					</trkpt>
					<trkpt lat="44.493080" lon="5.940870">
						<ele>1518</ele>
						<time>2026-09-02T16:37:09Z</time>
					</trkpt>
					<trkpt lat="44.493170" lon="5.941130">
						<ele>1522</ele>
						<time>2026-09-02T16:37:20Z</time>
					</trkpt>
					<trkpt lat="44.493170" lon="5.941330">
						<ele>1521</ele>
						<time>2026-09-02T16:37:27Z</time>
					</trkpt>
					<trkpt lat="44.493240" lon="5.941480">
						<ele>1525</ele>
						<time>2026-09-02T16:37:33Z</time>
					</trkpt>
					<trkpt lat="44.493230" lon="5.941570">
						<ele>1524</ele>
						<time>2026-09-02T16:37:36Z</time>
					</trkpt>
					<trkpt lat="44.493260" lon="5.941650">
						<ele>1526</ele>
						<time>2026-09-02T16:37:40Z</time>
					</trkpt>
					<trkpt lat="44.493290" lon="5.941970">
						<ele>1527</ele>
						<time>2026-09-02T16:37:51Z</time>
					</trkpt>
					<trkpt lat="44.493380" lon="5.942250">
						<ele>1532</ele>
						<time>2026-09-02T16:38:02Z</time>
					</trkpt>
					<trkpt lat="44.493540" lon="5.942510">
						<ele>1541</ele>
						<time>2026-09-02T16:38:14Z</time>
					</trkpt>
					<trkpt lat="44.493660" lon="5.942800">
						<ele>1548</ele>
						<time>2026-09-02T16:38:26Z</time>
					</trkpt>
					<trkpt lat="44.493720" lon="5.943190">
						<ele>1550</ele>
						<time>2026-09-02T16:38:41Z</time>
					</trkpt>
					<trkpt lat="44.493720" lon="5.943440">
						<ele>1550</ele>
						<time>2026-09-02T16:38:49Z</time>
					</trkpt>
					<trkpt lat="44.493830" lon="5.943710">
						<ele>1557</ele>
						<time>2026-09-02T16:39:01Z</time>
					</trkpt>
					<trkpt lat="44.493850" lon="5.943920">
						<ele>1558</ele>
						<time>2026-09-02T16:39:08Z</time>
					</trkpt>
					<trkpt lat="44.493890" lon="5.943510">
						<ele>1560</ele>
						<time>2026-09-02T16:39:23Z</time>
					</trkpt>
					<trkpt lat="44.494100" lon="5.942980">
						<ele>1575</ele>
						<time>2026-09-02T16:39:45Z</time>
					</trkpt>
					<trkpt lat="44.494130" lon="5.942850">
						<ele>1578</ele>
						<time>2026-09-02T16:39:49Z</time>
					</trkpt>
					<trkpt lat="44.494050" lon="5.942580">
						<ele>1574</ele>
						<time>2026-09-02T16:40:00Z</time>
					</trkpt>
					<trkpt lat="44.494020" lon="5.942190">
						<ele>1574</ele>
						<time>2026-09-02T16:40:14Z</time>
					</trkpt>
					<trkpt lat="44.494200" lon="5.941630">
						<ele>1589</ele>
						<time>2026-09-02T16:40:36Z</time>
					</trkpt>
					<trkpt lat="44.494220" lon="5.941370">
						<ele>1589</ele>
						<time>2026-09-02T16:40:45Z</time>
					</trkpt>
					<trkpt lat="44.494150" lon="5.941120">
						<ele>1583</ele>
						<time>2026-09-02T16:40:55Z</time>
					</trkpt>
					<trkpt lat="44.494310" lon="5.940600">
						<ele>1592</ele>
						<time>2026-09-02T16:41:15Z</time>
					</trkpt>
					<trkpt lat="44.494380" lon="5.940540">
						<ele>1596</ele>
						<time>2026-09-02T16:41:19Z</time>
					</trkpt>
					<trkpt lat="44.494520" lon="5.940330">
						<ele>1604</ele>
						<time>2026-09-02T16:41:29Z</time>
					</trkpt>
					<trkpt lat="44.494570" lon="5.940160">
						<ele>1607</ele>
						<time>2026-09-02T16:41:36Z</time>
					</trkpt>
					<trkpt lat="44.494640" lon="5.940050">
						<ele>1611</ele>
						<time>2026-09-02T16:41:41Z</time>
					</trkpt>
					<trkpt lat="44.494710" lon="5.939760">
						<ele>1614</ele>
						<time>2026-09-02T16:41:52Z</time>
					</trkpt>
					<trkpt lat="44.494690" lon="5.939530">
						<ele>1612</ele>
						<time>2026-09-02T16:42:00Z</time>
					</trkpt>
					<trkpt lat="44.494710" lon="5.939390">
						<ele>1612</ele>
						<time>2026-09-02T16:42:05Z</time>
					</trkpt>
					<trkpt lat="44.494770" lon="5.939330">
						<ele>1615</ele>
						<time>2026-09-02T16:42:09Z</time>
					</trkpt>
					<trkpt lat="44.494800" lon="5.939330">
						<ele>1617</ele>
						<time>2026-09-02T16:42:11Z</time>
					</trkpt>
					<trkpt lat="44.494850" lon="5.939370">
						<ele>1619</ele>
						<time>2026-09-02T16:42:13Z</time>
					</trkpt>
					<trkpt lat="44.494910" lon="5.939370">
						<ele>1623</ele>
						<time>2026-09-02T16:42:16Z</time>
					</trkpt>
					<trkpt lat="44.494940" lon="5.939410">
						<ele>1624</ele>
						<time>2026-09-02T16:42:19Z</time>
					</trkpt>
					<trkpt lat="44.494960" lon="5.939390">
						<ele>1625</ele>
						<time>2026-09-02T16:42:20Z</time>
					</trkpt>
					<trkpt lat="44.495150" lon="5.939510">
						<ele>1636</ele>
						<time>2026-09-02T16:42:30Z</time>
					</trkpt>
					<trkpt lat="44.495320" lon="5.939450">
						<ele>1645</ele>
						<time>2026-09-02T16:42:39Z</time>
					</trkpt>
					<trkpt lat="44.495360" lon="5.939180">
						<ele>1644</ele>
						<time>2026-09-02T16:42:49Z</time>
					</trkpt>
					<trkpt lat="44.495580" lon="5.938510">
						<ele>1639</ele>
						<time>2026-09-02T16:43:15Z</time>
					</trkpt>
					<trkpt lat="44.495720" lon="5.938160">
						<ele>1636</ele>
						<time>2026-09-02T16:43:29Z</time>
					</trkpt>
					<trkpt lat="44.495840" lon="5.937940">
						<ele>1634</ele>
						<time>2026-09-02T16:43:39Z</time>
					</trkpt>
					<trkpt lat="44.495960" lon="5.937820">
						<ele>1635</ele>
						<time>2026-09-02T16:43:47Z</time>
					</trkpt>
					<trkpt lat="44.496060" lon="5.937650">
						<ele>1633</ele>
						<time>2026-09-02T16:43:55Z</time>
					</trkpt>
					<trkpt lat="44.496610" lon="5.937060">
						<ele>1631</ele>
						<time>2026-09-02T16:44:29Z</time>
					</trkpt>
					<trkpt lat="44.496770" lon="5.936950">
						<ele>1632</ele>
						<time>2026-09-02T16:44:38Z</time>
					</trkpt>
					<trkpt lat="44.496870" lon="5.936830">
						<ele>1631</ele>
						<time>2026-09-02T16:44:45Z</time>
					</trkpt>
					<trkpt lat="44.497020" lon="5.936720">
						<ele>1633</ele>
						<time>2026-09-02T16:44:53Z</time>
					</trkpt>
					<trkpt lat="44.497290" lon="5.936420">
						<ele>1632</ele>
						<time>2026-09-02T16:45:10Z</time>
					</trkpt>
					<trkpt lat="44.497680" lon="5.936180">
						<ele>1646</ele>
						<time>2026-09-02T16:45:32Z</time>
					</trkpt>
					<trkpt lat="44.497750" lon="5.935450">
						<ele>1636</ele>
						<time>2026-09-02T16:45:58Z</time>
					</trkpt>
					<trkpt lat="44.497750" lon="5.934580">
						<ele>1632</ele>
						<time>2026-09-02T16:46:29Z</time>
					</trkpt>
					<trkpt lat="44.497770" lon="5.934470">
						<ele>1634</ele>
						<time>2026-09-02T16:46:33Z</time>
					</trkpt>
					<trkpt lat="44.497730" lon="5.934130">
						<ele>1630</ele>
						<time>2026-09-02T16:46:45Z</time>
					</trkpt>
					<trkpt lat="44.497730" lon="5.933290">
						<ele>1628</ele>
						<time>2026-09-02T16:47:15Z</time>
					</trkpt>
					<trkpt lat="44.497810" lon="5.932380">
						<ele>1623</ele>
						<time>2026-09-02T16:47:48Z</time>
					</trkpt>
					<trkpt lat="44.497890" lon="5.932090">
						<ele>1621</ele>
						<time>2026-09-02T16:47:59Z</time>
					</trkpt>
					<trkpt lat="44.498080" lon="5.931690">
						<ele>1621</ele>
						<time>2026-09-02T16:48:16Z</time>
					</trkpt>
					<trkpt lat="44.498200" lon="5.931260">
						<ele>1618</ele>
						<time>2026-09-02T16:48:33Z</time>
					</trkpt>
					<trkpt lat="44.498280" lon="5.931100">
						<ele>1619</ele>
						<time>2026-09-02T16:48:40Z</time>
					</trkpt>
					<trkpt lat="44.498450" lon="5.930450">
						<ele>1615</ele>
						<time>2026-09-02T16:49:05Z</time>
					</trkpt>
					<trkpt lat="44.498550" lon="5.930260">
						<ele>1616</ele>
						<time>2026-09-02T16:49:13Z</time>
					</trkpt>
					<trkpt lat="44.498560" lon="5.930180">
						<ele>1615</ele>
						<time>2026-09-02T16:49:16Z</time>
					</trkpt>
					<trkpt lat="44.498640" lon="5.929990">
						<ele>1614</ele>
						<time>2026-09-02T16:49:24Z</time>
					</trkpt>
					<trkpt lat="44.498960" lon="5.929430">
						<ele>1614</ele>
						<time>2026-09-02T16:49:49Z</time>
					</trkpt>
					<trkpt lat="44.499060" lon="5.929180">
						<ele>1610</ele>
						<time>2026-09-02T16:50:00Z</time>
					</trkpt>
					<trkpt lat="44.499270" lon="5.928860">
						<ele>1611</ele>
						<time>2026-09-02T16:50:15Z</time>
					</trkpt>
					<trkpt lat="44.499430" lon="5.928740">
						<ele>1617</ele>
						<time>2026-09-02T16:50:24Z</time>
					</trkpt>
					<trkpt lat="44.499490" lon="5.928640">
						<ele>1616</ele>
						<time>2026-09-02T16:50:29Z</time>
					</trkpt>
					<trkpt lat="44.499510" lon="5.928510">
						<ele>1612</ele>
						<time>2026-09-02T16:50:34Z</time>
					</trkpt>
					<trkpt lat="44.499560" lon="5.928440">
						<ele>1611</ele>
						<time>2026-09-02T16:50:37Z</time>
					</trkpt>
					<trkpt lat="44.499720" lon="5.928050">
						<ele>1607</ele>
						<time>2026-09-02T16:50:53Z</time>
					</trkpt>
					<trkpt lat="44.499720" lon="5.927970">
						<ele>1605</ele>
						<time>2026-09-02T16:50:56Z</time>
					</trkpt>
					<trkpt lat="44.499830" lon="5.927830">
						<ele>1607</ele>
						<time>2026-09-02T16:51:04Z</time>
					</trkpt>
					<trkpt lat="44.499940" lon="5.927770">
						<ele>1611</ele>
						<time>2026-09-02T16:51:09Z</time>
					</trkpt>
					<trkpt lat="44.500030" lon="5.927680">
						<ele>1613</ele>
						<time>2026-09-02T16:51:15Z</time>
					</trkpt>
					<trkpt lat="44.500080" lon="5.927700">
						<ele>1618</ele>
						<time>2026-09-02T16:51:18Z</time>
					</trkpt>
					<trkpt lat="44.500120" lon="5.927680">
						<ele>1620</ele>
						<time>2026-09-02T16:51:20Z</time>
					</trkpt>
					<trkpt lat="44.500200" lon="5.927810">
						<ele>1630</ele>
						<time>2026-09-02T16:51:26Z</time>
					</trkpt>
					<trkpt lat="44.500300" lon="5.927700">
						<ele>1634</ele>
						<time>2026-09-02T16:51:32Z</time>
					</trkpt>
					<trkpt lat="44.500420" lon="5.927630">
						<ele>1641</ele>
						<time>2026-09-02T16:51:39Z</time>
					</trkpt>
					<trkpt lat="44.500410" lon="5.927570">
						<ele>1638</ele>
						<time>2026-09-02T16:51:41Z</time>
					</trkpt>
					<trkpt lat="44.500450" lon="5.927540">
						<ele>1640</ele>
						<time>2026-09-02T16:51:43Z</time>
					</trkpt>
					<trkpt lat="44.500440" lon="5.927300">
						<ele>1636</ele>
						<time>2026-09-02T16:51:52Z</time>
					</trkpt>
					<trkpt lat="44.500480" lon="5.927280">
						<ele>1639</ele>
						<time>2026-09-02T16:51:54Z</time>
					</trkpt>
					<trkpt lat="44.500540" lon="5.927300">
						<ele>1644</ele>
						<time>2026-09-02T16:51:57Z</time>
					</trkpt>
					<trkpt lat="44.500680" lon="5.927260">
						<ele>1653</ele>
						<time>2026-09-02T16:52:04Z</time>
					</trkpt>
					<trkpt lat="44.500730" lon="5.927050">
						<ele>1654</ele>
						<time>2026-09-02T16:52:12Z</time>
					</trkpt>
					<trkpt lat="44.500770" lon="5.927020">
						<ele>1657</ele>
						<time>2026-09-02T16:52:14Z</time>
					</trkpt>
					<trkpt lat="44.500780" lon="5.927040">
						<ele>1658</ele>
						<time>2026-09-02T16:52:15Z</time>
					</trkpt>
					<trkpt lat="44.500800" lon="5.926980">
						<ele>1658</ele>
						<time>2026-09-02T16:52:18Z</time>
					</trkpt>
					<trkpt lat="44.500840" lon="5.926980">
						<ele>1661</ele>
						<time>2026-09-02T16:52:20Z</time>
					</trkpt>
					<trkpt lat="44.500850" lon="5.926930">
						<ele>1661</ele>
						<time>2026-09-02T16:52:21Z</time>
					</trkpt>
					<trkpt lat="44.500890" lon="5.926940">
						<ele>1664</ele>
						<time>2026-09-02T16:52:23Z</time>
					</trkpt>
					<trkpt lat="44.500960" lon="5.926880">
						<ele>1667</ele>
						<time>2026-09-02T16:52:27Z</time>
					</trkpt>
					<trkpt lat="44.500940" lon="5.926690">
						<ele>1663</ele>
						<time>2026-09-02T16:52:34Z</time>
					</trkpt>
					<trkpt lat="44.500980" lon="5.926670">
						<ele>1665</ele>
						<time>2026-09-02T16:52:36Z</time>
					</trkpt>
					<trkpt lat="44.501030" lon="5.926530">
						<ele>1665</ele>
						<time>2026-09-02T16:52:42Z</time>
					</trkpt>
					<trkpt lat="44.501180" lon="5.926430">
						<ele>1671</ele>
						<time>2026-09-02T16:52:50Z</time>
					</trkpt>
					<trkpt lat="44.501170" lon="5.926330">
						<ele>1669</ele>
						<time>2026-09-02T16:52:54Z</time>
					</trkpt>
					<trkpt lat="44.501250" lon="5.926350">
						<ele>1674</ele>
						<time>2026-09-02T16:52:58Z</time>
					</trkpt>
					<trkpt lat="44.501290" lon="5.926450">
						<ele>1678</ele>
						<time>2026-09-02T16:53:02Z</time>
					</trkpt>
					<trkpt lat="44.501390" lon="5.926420">
						<ele>1682</ele>
						<time>2026-09-02T16:53:07Z</time>
					</trkpt>
					<trkpt lat="44.501390" lon="5.926390">
						<ele>1682</ele>
						<time>2026-09-02T16:53:08Z</time>
					</trkpt>
					<trkpt lat="44.501420" lon="5.926370">
						<ele>1683</ele>
						<time>2026-09-02T16:53:10Z</time>
					</trkpt>
					<trkpt lat="44.501480" lon="5.926660">
						<ele>1692</ele>
						<time>2026-09-02T16:53:21Z</time>
					</trkpt>
					<trkpt lat="44.501530" lon="5.926740">
						<ele>1696</ele>
						<time>2026-09-02T16:53:25Z</time>
					</trkpt>
					<trkpt lat="44.501600" lon="5.926780">
						<ele>1701</ele>
						<time>2026-09-02T16:53:28Z</time>
					</trkpt>
					<trkpt lat="44.501610" lon="5.926840">
						<ele>1703</ele>
						<time>2026-09-02T16:53:31Z</time>
					</trkpt>
					<trkpt lat="44.501680" lon="5.926900">
						<ele>1707</ele>
						<time>2026-09-02T16:53:35Z</time>
					</trkpt>
					<trkpt lat="44.501690" lon="5.927240">
						<ele>1715</ele>
						<time>2026-09-02T16:53:47Z</time>
					</trkpt>
					<trkpt lat="44.501570" lon="5.927330">
						<ele>1710</ele>
						<time>2026-09-02T16:53:54Z</time>
					</trkpt>
					<trkpt lat="44.501490" lon="5.927430">
						<ele>1707</ele>
						<time>2026-09-02T16:53:59Z</time>
					</trkpt>
					<trkpt lat="44.501460" lon="5.927510">
						<ele>1707</ele>
						<time>2026-09-02T16:54:02Z</time>
					</trkpt>
					<trkpt lat="44.501420" lon="5.927540">
						<ele>1705</ele>
						<time>2026-09-02T16:54:04Z</time>
					</trkpt>
					<trkpt lat="44.501370" lon="5.927540">
						<ele>1702</ele>
						<time>2026-09-02T16:54:07Z</time>
					</trkpt>
					<trkpt lat="44.501290" lon="5.927660">
						<ele>1701</ele>
						<time>2026-09-02T16:54:13Z</time>
					</trkpt>
					<trkpt lat="44.501310" lon="5.928220">
						<ele>1719</ele>
						<time>2026-09-02T16:54:33Z</time>
					</trkpt>
					<trkpt lat="44.501110" lon="5.928390">
						<ele>1715</ele>
						<time>2026-09-02T16:54:45Z</time>
					</trkpt>
					<trkpt lat="44.500990" lon="5.928390">
						<ele>1710</ele>
						<time>2026-09-02T16:54:51Z</time>
					</trkpt>
					<trkpt lat="44.500900" lon="5.928340">
						<ele>1704</ele>
						<time>2026-09-02T16:54:55Z</time>
					</trkpt>
					<trkpt lat="44.500790" lon="5.928380">
						<ele>1699</ele>
						<time>2026-09-02T16:55:01Z</time>
					</trkpt>
					<trkpt lat="44.500570" lon="5.928890">
						<ele>1703</ele>
						<time>2026-09-02T16:55:22Z</time>
					</trkpt>
					<trkpt lat="44.500500" lon="5.929210">
						<ele>1713</ele>
						<time>2026-09-02T16:55:34Z</time>
					</trkpt>
					<trkpt lat="44.500440" lon="5.929270">
						<ele>1711</ele>
						<time>2026-09-02T16:55:38Z</time>
					</trkpt>
					<trkpt lat="44.500270" lon="5.929550">
						<ele>1711</ele>
						<time>2026-09-02T16:55:51Z</time>
					</trkpt>
					<trkpt lat="44.500200" lon="5.929800">
						<ele>1717</ele>
						<time>2026-09-02T16:56:01Z</time>
					</trkpt>
					<trkpt lat="44.500110" lon="5.929960">
						<ele>1719</ele>
						<time>2026-09-02T16:56:08Z</time>
					</trkpt>
					<trkpt lat="44.499890" lon="5.930220">
						<ele>1715</ele>
						<time>2026-09-02T16:56:22Z</time>
					</trkpt>
					<trkpt lat="44.499680" lon="5.930560">
						<ele>1710</ele>
						<time>2026-09-02T16:56:38Z</time>
					</trkpt>
					<trkpt lat="44.499440" lon="5.931080">
						<ele>1708</ele>
						<time>2026-09-02T16:57:01Z</time>
					</trkpt>
					<trkpt lat="44.499320" lon="5.931630">
						<ele>1719</ele>
						<time>2026-09-02T16:57:21Z</time>
					</trkpt>
					<trkpt lat="44.499290" lon="5.931990">
						<ele>1727</ele>
						<time>2026-09-02T16:57:34Z</time>
					</trkpt>
					<trkpt lat="44.499130" lon="5.932570">
						<ele>1730</ele>
						<time>2026-09-02T16:57:56Z</time>
					</trkpt>
					<trkpt lat="44.498980" lon="5.932870">
						<ele>1720</ele>
						<time>2026-09-02T16:58:09Z</time>
					</trkpt>
					<trkpt lat="44.498930" lon="5.933110">
						<ele>1719</ele>
						<time>2026-09-02T16:58:18Z</time>
					</trkpt>
					<trkpt lat="44.498910" lon="5.933350">
						<ele>1720</ele>
						<time>2026-09-02T16:58:27Z</time>
					</trkpt>
					<trkpt lat="44.498920" lon="5.933770">
						<ele>1724</ele>
						<time>2026-09-02T16:58:42Z</time>
					</trkpt>
					<trkpt lat="44.498880" lon="5.934380">
						<ele>1722</ele>
						<time>2026-09-02T16:59:04Z</time>
					</trkpt>
					<trkpt lat="44.498810" lon="5.934800">
						<ele>1715</ele>
						<time>2026-09-02T16:59:19Z</time>
					</trkpt>
					<trkpt lat="44.498710" lon="5.935100">
						<ele>1706</ele>
						<time>2026-09-02T16:59:31Z</time>
					</trkpt>
					<trkpt lat="44.498700" lon="5.935220">
						<ele>1705</ele>
						<time>2026-09-02T16:59:35Z</time>
					</trkpt>
					<trkpt lat="44.498720" lon="5.935420">
						<ele>1706</ele>
						<time>2026-09-02T16:59:42Z</time>
					</trkpt>
					<trkpt lat="44.498780" lon="5.935560">
						<ele>1710</ele>
						<time>2026-09-02T16:59:48Z</time>
					</trkpt>
					<trkpt lat="44.498920" lon="5.935730">
						<ele>1719</ele>
						<time>2026-09-02T16:59:58Z</time>
					</trkpt>
					<trkpt lat="44.498990" lon="5.935760">
						<ele>1724</ele>
						<time>2026-09-02T17:00:01Z</time>
					</trkpt>
					<trkpt lat="44.499070" lon="5.935840">
						<ele>1730</ele>
						<time>2026-09-02T17:00:06Z</time>
					</trkpt>
					<trkpt lat="44.499100" lon="5.935900">
						<ele>1733</ele>
						<time>2026-09-02T17:00:09Z</time>
					</trkpt>
					<trkpt lat="44.499080" lon="5.935990">
						<ele>1734</ele>
						<time>2026-09-02T17:00:12Z</time>
					</trkpt>
					<trkpt lat="44.498690" lon="5.936450">
						<ele>1720</ele>
						<time>2026-09-02T17:00:38Z</time>
					</trkpt>
					<trkpt lat="44.498650" lon="5.936570">
						<ele>1721</ele>
						<time>2026-09-02T17:00:42Z</time>
					</trkpt>
					<trkpt lat="44.498710" lon="5.936960">
						<ele>1735</ele>
						<time>2026-09-02T17:00:57Z</time>
					</trkpt>
					<trkpt lat="44.498720" lon="5.937430">
						<ele>1747</ele>
						<time>2026-09-02T17:01:13Z</time>
					</trkpt>
					<trkpt lat="44.498670" lon="5.938220">
						<ele>1763</ele>
						<time>2026-09-02T17:01:42Z</time>
					</trkpt>
					<trkpt lat="44.498670" lon="5.938670">
						<ele>1771</ele>
						<time>2026-09-02T17:01:58Z</time>
					</trkpt>
					<trkpt lat="44.498730" lon="5.938860">
						<ele>1775</ele>
						<time>2026-09-02T17:02:05Z</time>
					</trkpt>
					<trkpt lat="44.498850" lon="5.939700">
						<ele>1779</ele>
						<time>2026-09-02T17:02:36Z</time>
					</trkpt>
					<trkpt lat="44.498820" lon="5.939910">
						<ele>1779</ele>
						<time>2026-09-02T17:02:43Z</time>
					</trkpt>
					<trkpt lat="44.498810" lon="5.940740">
						<ele>1778</ele>
						<time>2026-09-02T17:03:13Z</time>
					</trkpt>
					<trkpt lat="44.498870" lon="5.941100">
						<ele>1780</ele>
						<time>2026-09-02T17:03:26Z</time>
					</trkpt>
					<trkpt lat="44.499020" lon="5.941530">
						<ele>1781</ele>
						<time>2026-09-02T17:03:43Z</time>
					</trkpt>
					<trkpt lat="44.499080" lon="5.941980">
						<ele>1782</ele>
						<time>2026-09-02T17:04:00Z</time>
					</trkpt>
					<trkpt lat="44.499080" lon="5.942650">
						<ele>1784</ele>
						<time>2026-09-02T17:04:24Z</time>
					</trkpt>
					<trkpt lat="44.499050" lon="5.943030">
						<ele>1786</ele>
						<time>2026-09-02T17:04:37Z</time>
					</trkpt>
					<trkpt lat="44.499110" lon="5.943440">
						<ele>1787</ele>
						<time>2026-09-02T17:04:52Z</time>
					</trkpt>
					<trkpt lat="44.499150" lon="5.943990">
						<ele>1789</ele>
						<time>2026-09-02T17:05:12Z</time>
					</trkpt>
					<trkpt lat="44.499230" lon="5.944290">
						<ele>1791</ele>
						<time>2026-09-02T17:05:23Z</time>
					</trkpt>
					<trkpt lat="44.499390" lon="5.944650">
						<ele>1794</ele>
						<time>2026-09-02T17:05:38Z</time>
					</trkpt>
					<trkpt lat="44.499520" lon="5.944770">
						<ele>1793</ele>
						<time>2026-09-02T17:05:46Z</time>
					</trkpt>
					<trkpt lat="44.499620" lon="5.944910">
						<ele>1793</ele>
						<time>2026-09-02T17:05:53Z</time>
					</trkpt>
					<trkpt lat="44.499720" lon="5.945120">
						<ele>1793</ele>
						<time>2026-09-02T17:06:02Z</time>
					</trkpt>
					<trkpt lat="44.500190" lon="5.945810">
						<ele>1794</ele>
						<time>2026-09-02T17:06:36Z</time>
					</trkpt>
					<trkpt lat="44.500310" lon="5.946090">
						<ele>1797</ele>
						<time>2026-09-02T17:06:48Z</time>
					</trkpt>
					<trkpt lat="44.500390" lon="5.946210">
						<ele>1798</ele>
						<time>2026-09-02T17:06:54Z</time>
					</trkpt>
					<trkpt lat="44.500530" lon="5.946560">
						<ele>1799</ele>
						<time>2026-09-02T17:07:08Z</time>
					</trkpt>
					<trkpt lat="44.500620" lon="5.946990">
						<ele>1801</ele>
						<time>2026-09-02T17:07:24Z</time>
					</trkpt>
					<trkpt lat="44.500620" lon="5.947140">
						<ele>1802</ele>
						<time>2026-09-02T17:07:30Z</time>
					</trkpt>
					<trkpt lat="44.500590" lon="5.947230">
						<ele>1803</ele>
						<time>2026-09-02T17:07:33Z</time>
					</trkpt>
					<trkpt lat="44.500150" lon="5.947720">
						<ele>1811</ele>
						<time>2026-09-02T17:08:01Z</time>
					</trkpt>
					<trkpt lat="44.500100" lon="5.947820">
						<ele>1812</ele>
						<time>2026-09-02T17:08:06Z</time>
					</trkpt>
					<trkpt lat="44.499940" lon="5.947980">
						<ele>1814</ele>
						<time>2026-09-02T17:08:15Z</time>
					</trkpt>
					<trkpt lat="44.499880" lon="5.948430">
						<ele>1817</ele>
						<time>2026-09-02T17:08:32Z</time>
					</trkpt>
					<trkpt lat="44.499780" lon="5.948770">
						<ele>1824</ele>
						<time>2026-09-02T17:08:45Z</time>
					</trkpt>
					<trkpt lat="44.499730" lon="5.949160">
						<ele>1829</ele>
						<time>2026-09-02T17:08:59Z</time>
					</trkpt>
					<trkpt lat="44.499760" lon="5.949680">
						<ele>1831</ele>
						<time>2026-09-02T17:09:18Z</time>
					</trkpt>
					<trkpt lat="44.499880" lon="5.950280">
						<ele>1836</ele>
						<time>2026-09-02T17:09:40Z</time>
					</trkpt>
					<trkpt lat="44.500100" lon="5.950690">
						<ele>1840</ele>
						<time>2026-09-02T17:09:58Z</time>
					</trkpt>
					<trkpt lat="44.500160" lon="5.950980">
						<ele>1842</ele>
						<time>2026-09-02T17:10:09Z</time>
					</trkpt>
					<trkpt lat="44.500180" lon="5.951630">
						<ele>1847</ele>
						<time>2026-09-02T17:10:32Z</time>
					</trkpt>
					<trkpt lat="44.500350" lon="5.951890">
						<ele>1851</ele>
						<time>2026-09-02T17:10:45Z</time>
					</trkpt>
					<trkpt lat="44.500380" lon="5.952000">
						<ele>1852</ele>
						<time>2026-09-02T17:10:49Z</time>
					</trkpt>
					<trkpt lat="44.500500" lon="5.952060">
						<ele>1854</ele>
						<time>2026-09-02T17:10:55Z</time>
					</trkpt>
					<trkpt lat="44.500530" lon="5.952100">
						<ele>1855</ele>
						<time>2026-09-02T17:10:57Z</time>
					</trkpt>
					<trkpt lat="44.500520" lon="5.952640">
						<ele>1863</ele>
						<time>2026-09-02T17:11:17Z</time>
					</trkpt>
					<trkpt lat="44.500400" lon="5.953120">
						<ele>1865</ele>
						<time>2026-09-02T17:11:35Z</time>
					</trkpt>
					<trkpt lat="44.500390" lon="5.953240">
						<ele>1866</ele>
						<time>2026-09-02T17:11:39Z</time>
					</trkpt>
					<trkpt lat="44.500410" lon="5.953350">
						<ele>1867</ele>
						<time>2026-09-02T17:11:43Z</time>
					</trkpt>
					<trkpt lat="44.500350" lon="5.953560">
						<ele>1863</ele>
						<time>2026-09-02T17:11:51Z</time>
					</trkpt>
					<trkpt lat="44.500460" lon="5.953940">
						<ele>1866</ele>
						<time>2026-09-02T17:12:06Z</time>
					</trkpt>
					<trkpt lat="44.500570" lon="5.954130">
						<ele>1871</ele>
						<time>2026-09-02T17:12:15Z</time>
					</trkpt>
					<trkpt lat="44.500730" lon="5.954530">
						<ele>1885</ele>
						<time>2026-09-02T17:12:31Z</time>
					</trkpt>
					<trkpt lat="44.500800" lon="5.954630">
						<ele>1891</ele>
						<time>2026-09-02T17:12:36Z</time>
					</trkpt>
					<trkpt lat="44.500910" lon="5.954650">
						<ele>1896</ele>
						<time>2026-09-02T17:12:42Z</time>
					</trkpt>
					<trkpt lat="44.500920" lon="5.954720">
						<ele>1897</ele>
						<time>2026-09-02T17:12:44Z</time>
					</trkpt>
					<trkpt lat="44.501000" lon="5.954760">
						<ele>1900</ele>
						<time>2026-09-02T17:12:48Z</time>
					</trkpt>
					<trkpt lat="44.500980" lon="5.954980">
						<ele>1903</ele>
						<time>2026-09-02T17:12:56Z</time>
					</trkpt>
					<trkpt lat="44.501000" lon="5.955070">
						<ele>1902</ele>
						<time>2026-09-02T17:13:00Z</time>
					</trkpt>
					<trkpt lat="44.501080" lon="5.955070">
						<ele>1904</ele>
						<time>2026-09-02T17:13:04Z</time>
					</trkpt>
					<trkpt lat="44.501200" lon="5.955170">
						<ele>1906</ele>
						<time>2026-09-02T17:13:11Z</time>
					</trkpt>
					<trkpt lat="44.501220" lon="5.955220">
						<ele>1906</ele>
						<time>2026-09-02T17:13:13Z</time>
					</trkpt>
					<trkpt lat="44.501190" lon="5.955360">
						<ele>1902</ele>
						<time>2026-09-02T17:13:18Z</time>
					</trkpt>
					<trkpt lat="44.501250" lon="5.955570">
						<ele>1901</ele>
						<time>2026-09-02T17:13:26Z</time>
					</trkpt>
					<trkpt lat="44.501390" lon="5.955760">
						<ele>1907</ele>
						<time>2026-09-02T17:13:36Z</time>
					</trkpt>
					<trkpt lat="44.501490" lon="5.956020">
						<ele>1905</ele>
						<time>2026-09-02T17:13:46Z</time>
					</trkpt>
					<trkpt lat="44.501730" lon="5.956310">
						<ele>1908</ele>
						<time>2026-09-02T17:14:02Z</time>
					</trkpt>
					<trkpt lat="44.501780" lon="5.956440">
						<ele>1906</ele>
						<time>2026-09-02T17:14:07Z</time>
					</trkpt>
					<trkpt lat="44.501870" lon="5.956560">
						<ele>1907</ele>
						<time>2026-09-02T17:14:14Z</time>
					</trkpt>
					<trkpt lat="44.501950" lon="5.956730">
						<ele>1906</ele>
						<time>2026-09-02T17:14:21Z</time>
					</trkpt>
					<trkpt lat="44.502070" lon="5.956870">
						<ele>1907</ele>
						<time>2026-09-02T17:14:29Z</time>
					</trkpt>
					<trkpt lat="44.502160" lon="5.957040">
						<ele>1905</ele>
						<time>2026-09-02T17:14:36Z</time>
					</trkpt>
					<trkpt lat="44.502640" lon="5.957510">
						<ele>1928</ele>
						<time>2026-09-02T17:15:06Z</time>
					</trkpt>
					<trkpt lat="44.503140" lon="5.957740">
						<ele>1948</ele>
						<time>2026-09-02T17:15:32Z</time>
					</trkpt>
					<trkpt lat="44.503200" lon="5.957790">
						<ele>1949</ele>
						<time>2026-09-02T17:15:35Z</time>
					</trkpt>
					<trkpt lat="44.503580" lon="5.958210">
						<ele>1950</ele>
						<time>2026-09-02T17:16:00Z</time>
					</trkpt>
					<trkpt lat="44.503850" lon="5.958620">
						<ele>1941</ele>
						<time>2026-09-02T17:16:20Z</time>
					</trkpt>
					<trkpt lat="44.504050" lon="5.958750">
						<ele>1946</ele>
						<time>2026-09-02T17:16:31Z</time>
					</trkpt>
					<trkpt lat="44.504280" lon="5.958830">
						<ele>1953</ele>
						<time>2026-09-02T17:16:42Z</time>
					</trkpt>
					<trkpt lat="44.504530" lon="5.959000">
						<ele>1958</ele>
						<time>2026-09-02T17:16:56Z</time>
					</trkpt>
					<trkpt lat="44.504740" lon="5.959110">
						<ele>1967</ele>
						<time>2026-09-02T17:17:08Z</time>
					</trkpt>
					<trkpt lat="44.505070" lon="5.959220">
						<ele>1979</ele>
						<time>2026-09-02T17:17:25Z</time>
					</trkpt>
					<trkpt lat="44.505290" lon="5.959350">
						<ele>1972</ele>
						<time>2026-09-02T17:17:36Z</time>
					</trkpt>
					<trkpt lat="44.505540" lon="5.959540">
						<ele>1968</ele>
						<time>2026-09-02T17:17:51Z</time>
					</trkpt>
					<trkpt lat="44.505710" lon="5.959780">
						<ele>1966</ele>
						<time>2026-09-02T17:18:03Z</time>
					</trkpt>
					<trkpt lat="44.506090" lon="5.960070">
						<ele>1963</ele>
						<time>2026-09-02T17:18:24Z</time>
					</trkpt>
					<trkpt lat="44.506160" lon="5.960090">
						<ele>1963</ele>
						<time>2026-09-02T17:18:28Z</time>
					</trkpt>
					<trkpt lat="44.506230" lon="5.960150">
						<ele>1961</ele>
						<time>2026-09-02T17:18:32Z</time>
					</trkpt>
					<trkpt lat="44.506430" lon="5.960500">
						<ele>1951</ele>
						<time>2026-09-02T17:18:48Z</time>
					</trkpt>
					<trkpt lat="44.506670" lon="5.960660">
						<ele>1960</ele>
						<time>2026-09-02T17:19:01Z</time>
					</trkpt>
					<trkpt lat="44.506820" lon="5.960800">
						<ele>1963</ele>
						<time>2026-09-02T17:19:10Z</time>
					</trkpt>
					<trkpt lat="44.507000" lon="5.960880">
						<ele>1966</ele>
						<time>2026-09-02T17:19:20Z</time>
					</trkpt>
					<trkpt lat="44.507450" lon="5.961180">
						<ele>1964</ele>
						<time>2026-09-02T17:19:45Z</time>
					</trkpt>
					<trkpt lat="44.507590" lon="5.961340">
						<ele>1960</ele>
						<time>2026-09-02T17:19:54Z</time>
					</trkpt>
					<trkpt lat="44.507750" lon="5.961430">
						<ele>1964</ele>
						<time>2026-09-02T17:20:02Z</time>
					</trkpt>
					<trkpt lat="44.508020" lon="5.961490">
						<ele>1979</ele>
						<time>2026-09-02T17:20:16Z</time>
					</trkpt>
					<trkpt lat="44.508120" lon="5.961560">
						<ele>1985</ele>
						<time>2026-09-02T17:20:22Z</time>
					</trkpt>
					<trkpt lat="44.508510" lon="5.961640">
						<ele>2001</ele>
						<time>2026-09-02T17:20:41Z</time>
					</trkpt>
					<trkpt lat="44.508580" lon="5.961690">
						<ele>1999</ele>
						<time>2026-09-02T17:20:45Z</time>
					</trkpt>
					<trkpt lat="44.508950" lon="5.961610">
						<ele>2004</ele>
						<time>2026-09-02T17:21:04Z</time>
					</trkpt>
					<trkpt lat="44.509040" lon="5.961560">
						<ele>2004</ele>
						<time>2026-09-02T17:21:09Z</time>
					</trkpt>
					<trkpt lat="44.509170" lon="5.961530">
						<ele>2004</ele>
						<time>2026-09-02T17:21:16Z</time>
					</trkpt>
					<trkpt lat="44.509390" lon="5.961390">
						<ele>2001</ele>
						<time>2026-09-02T17:21:28Z</time>
					</trkpt>
					<trkpt lat="44.509570" lon="5.961350">
						<ele>1999</ele>
						<time>2026-09-02T17:21:37Z</time>
					</trkpt>
					<trkpt lat="44.510110" lon="5.961400">
						<ele>1995</ele>
						<time>2026-09-02T17:22:04Z</time>
					</trkpt>
					<trkpt lat="44.510500" lon="5.961360">
						<ele>1989</ele>
						<time>2026-09-02T17:22:23Z</time>
					</trkpt>
					<trkpt lat="44.510600" lon="5.961390">
						<ele>1988</ele>
						<time>2026-09-02T17:22:29Z</time>
					</trkpt>
					<trkpt lat="44.510990" lon="5.961420">
						<ele>1980</ele>
						<time>2026-09-02T17:22:48Z</time>
					</trkpt>
					<trkpt lat="44.511200" lon="5.961460">
						<ele>1974</ele>
						<time>2026-09-02T17:22:59Z</time>
					</trkpt>
					<trkpt lat="44.511360" lon="5.961450">
						<ele>1968</ele>
						<time>2026-09-02T17:23:07Z</time>
					</trkpt>
					<trkpt lat="44.511850" lon="5.961550">
						<ele>1956</ele>
						<time>2026-09-02T17:23:31Z</time>
					</trkpt>
					<trkpt lat="44.512120" lon="5.961550">
						<ele>1955</ele>
						<time>2026-09-02T17:23:45Z</time>
					</trkpt>
					<trkpt lat="44.512760" lon="5.961450">
						<ele>1958</ele>
						<time>2026-09-02T17:24:17Z</time>
					</trkpt>
					<trkpt lat="44.512960" lon="5.961460">
						<ele>1960</ele>
						<time>2026-09-02T17:24:27Z</time>
					</trkpt>
					<trkpt lat="44.513520" lon="5.961380">
						<ele>1961</ele>
						<time>2026-09-02T17:24:55Z</time>
					</trkpt>
					<trkpt lat="44.513590" lon="5.961390">
						<ele>1960</ele>
						<time>2026-09-02T17:24:59Z</time>
					</trkpt>
					<trkpt lat="44.513760" lon="5.961340">
						<ele>1958</ele>
						<time>2026-09-02T17:25:08Z</time>
					</trkpt>
					<trkpt lat="44.513900" lon="5.961340">
						<ele>1956</ele>
						<time>2026-09-02T17:25:15Z</time>
					</trkpt>
					<trkpt lat="44.514080" lon="5.961270">
						<ele>1953</ele>
						<time>2026-09-02T17:25:24Z</time>
					</trkpt>
					<trkpt lat="44.514310" lon="5.961230">
						<ele>1950</ele>
						<time>2026-09-02T17:25:36Z</time>
					</trkpt>
					<trkpt lat="44.514580" lon="5.961270">
						<ele>1945</ele>
						<time>2026-09-02T17:25:49Z</time>
					</trkpt>
					<trkpt lat="44.514890" lon="5.961230">
						<ele>1940</ele>
						<time>2026-09-02T17:26:05Z</time>
					</trkpt>
					<trkpt lat="44.515020" lon="5.961280">
						<ele>1937</ele>
						<time>2026-09-02T17:26:11Z</time>
					</trkpt>
					<trkpt lat="44.515150" lon="5.961270">
						<ele>1930</ele>
						<time>2026-09-02T17:26:18Z</time>
					</trkpt>
					<trkpt lat="44.515210" lon="5.961240">
						<ele>1928</ele>
						<time>2026-09-02T17:26:21Z</time>
					</trkpt>
					<trkpt lat="44.515410" lon="5.961270">
						<ele>1917</ele>
						<time>2026-09-02T17:26:31Z</time>
					</trkpt>
					<trkpt lat="44.515870" lon="5.961090">
						<ele>1906</ele>
						<time>2026-09-02T17:26:55Z</time>
					</trkpt>
					<trkpt lat="44.516030" lon="5.961120">
						<ele>1902</ele>
						<time>2026-09-02T17:27:03Z</time>
					</trkpt>
					<trkpt lat="44.516510" lon="5.961130">
						<ele>1893</ele>
						<time>2026-09-02T17:27:27Z</time>
					</trkpt>
					<trkpt lat="44.516600" lon="5.961090">
						<ele>1895</ele>
						<time>2026-09-02T17:27:32Z</time>
					</trkpt>
					<trkpt lat="44.516710" lon="5.961000">
						<ele>1901</ele>
						<time>2026-09-02T17:27:38Z</time>
					</trkpt>
					<trkpt lat="44.516780" lon="5.960900">
						<ele>1907</ele>
						<time>2026-09-02T17:27:43Z</time>
					</trkpt>
					<trkpt lat="44.516960" lon="5.960740">
						<ele>1901</ele>
						<time>2026-09-02T17:27:54Z</time>
					</trkpt>
					<trkpt lat="44.517070" lon="5.960610">
						<ele>1895</ele>
						<time>2026-09-02T17:28:01Z</time>
					</trkpt>
					<trkpt lat="44.517100" lon="5.960540">
						<ele>1894</ele>
						<time>2026-09-02T17:28:04Z</time>
					</trkpt>
					<trkpt lat="44.517170" lon="5.960500">
						<ele>1891</ele>
						<time>2026-09-02T17:28:08Z</time>
					</trkpt>
					<trkpt lat="44.517350" lon="5.960280">
						<ele>1886</ele>
						<time>2026-09-02T17:28:20Z</time>
					</trkpt>
					<trkpt lat="44.517470" lon="5.960190">
						<ele>1883</ele>
						<time>2026-09-02T17:28:27Z</time>
					</trkpt>
					<trkpt lat="44.517600" lon="5.960050">
						<ele>1881</ele>
						<time>2026-09-02T17:28:35Z</time>
					</trkpt>
					<trkpt lat="44.517680" lon="5.960010">
						<ele>1879</ele>
						<time>2026-09-02T17:28:39Z</time>
					</trkpt>
					<trkpt lat="44.517780" lon="5.959900">
						<ele>1875</ele>
						<time>2026-09-02T17:28:45Z</time>
					</trkpt>
					<trkpt lat="44.517830" lon="5.959920">
						<ele>1873</ele>
						<time>2026-09-02T17:28:48Z</time>
					</trkpt>
					<trkpt lat="44.517730" lon="5.960170">
						<ele>1872</ele>
						<time>2026-09-02T17:28:58Z</time>
					</trkpt>
					<trkpt lat="44.517920" lon="5.960020">
						<ele>1868</ele>
						<time>2026-09-02T17:29:09Z</time>
					</trkpt>
					<trkpt lat="44.517940" lon="5.960060">
						<ele>1866</ele>
						<time>2026-09-02T17:29:11Z</time>
					</trkpt>
					<trkpt lat="44.517850" lon="5.960240">
						<ele>1863</ele>
						<time>2026-09-02T17:29:19Z</time>
					</trkpt>
					<trkpt lat="44.517780" lon="5.960280">
						<ele>1866</ele>
						<time>2026-09-02T17:29:23Z</time>
					</trkpt>
					<trkpt lat="44.517820" lon="5.960300">
						<ele>1863</ele>
						<time>2026-09-02T17:29:25Z</time>
					</trkpt>
					<trkpt lat="44.517610" lon="5.960530">
						<ele>1868</ele>
						<time>2026-09-02T17:29:38Z</time>
					</trkpt>
					<trkpt lat="44.517520" lon="5.960580">
						<ele>1872</ele>
						<time>2026-09-02T17:29:43Z</time>
					</trkpt>
					<trkpt lat="44.517520" lon="5.960610">
						<ele>1871</ele>
						<time>2026-09-02T17:29:44Z</time>
					</trkpt>
					<trkpt lat="44.517110" lon="5.961150">
						<ele>1868</ele>
						<time>2026-09-02T17:30:12Z</time>
					</trkpt>
					<trkpt lat="44.517440" lon="5.960860">
						<ele>1869</ele>
						<time>2026-09-02T17:30:32Z</time>
					</trkpt>
					<trkpt lat="44.517480" lon="5.960780">
						<ele>1870</ele>
						<time>2026-09-02T17:30:35Z</time>
					</trkpt>
					<trkpt lat="44.517550" lon="5.960730">
						<ele>1866</ele>
						<time>2026-09-02T17:30:39Z</time>
					</trkpt>
					<trkpt lat="44.517540" lon="5.960710">
						<ele>1867</ele>
						<time>2026-09-02T17:30:40Z</time>
					</trkpt>
					<trkpt lat="44.517640" lon="5.960660">
						<ele>1862</ele>
						<time>2026-09-02T17:30:45Z</time>
					</trkpt>
					<trkpt lat="44.517850" lon="5.960420">
						<ele>1857</ele>
						<time>2026-09-02T17:30:59Z</time>
					</trkpt>
					<trkpt lat="44.517950" lon="5.960340">
						<ele>1854</ele>
						<time>2026-09-02T17:31:05Z</time>
					</trkpt>
					<trkpt lat="44.518000" lon="5.960330">
						<ele>1852</ele>
						<time>2026-09-02T17:31:07Z</time>
					</trkpt>
					<trkpt lat="44.518320" lon="5.960030">
						<ele>1850</ele>
						<time>2026-09-02T17:31:26Z</time>
					</trkpt>
					<trkpt lat="44.518380" lon="5.959930">
						<ele>1848</ele>
						<time>2026-09-02T17:31:31Z</time>
					</trkpt>
					<trkpt lat="44.518490" lon="5.959870">
						<ele>1839</ele>
						<time>2026-09-02T17:31:37Z</time>
					</trkpt>
					<trkpt lat="44.518510" lon="5.959900">
						<ele>1837</ele>
						<time>2026-09-02T17:31:38Z</time>
					</trkpt>
					<trkpt lat="44.518450" lon="5.960050">
						<ele>1838</ele>
						<time>2026-09-02T17:31:44Z</time>
					</trkpt>
					<trkpt lat="44.518410" lon="5.960320">
						<ele>1828</ele>
						<time>2026-09-02T17:31:54Z</time>
					</trkpt>
					<trkpt lat="44.518310" lon="5.960560">
						<ele>1824</ele>
						<time>2026-09-02T17:32:04Z</time>
					</trkpt>
					<trkpt lat="44.518310" lon="5.960720">
						<ele>1815</ele>
						<time>2026-09-02T17:32:10Z</time>
					</trkpt>
					<trkpt lat="44.518130" lon="5.961500">
						<ele>1797</ele>
						<time>2026-09-02T17:32:39Z</time>
					</trkpt>
					<trkpt lat="44.518010" lon="5.961810">
						<ele>1792</ele>
						<time>2026-09-02T17:32:52Z</time>
					</trkpt>
					<trkpt lat="44.517850" lon="5.962100">
						<ele>1788</ele>
						<time>2026-09-02T17:33:05Z</time>
					</trkpt>
					<trkpt lat="44.517690" lon="5.962340">
						<ele>1785</ele>
						<time>2026-09-02T17:33:17Z</time>
					</trkpt>
					<trkpt lat="44.517640" lon="5.962380">
						<ele>1785</ele>
						<time>2026-09-02T17:33:19Z</time>
					</trkpt>
					<trkpt lat="44.517630" lon="5.962410">
						<ele>1784</ele>
						<time>2026-09-02T17:33:21Z</time>
					</trkpt>
					<trkpt lat="44.517670" lon="5.962410">
						<ele>1782</ele>
						<time>2026-09-02T17:33:23Z</time>
					</trkpt>
					<trkpt lat="44.517960" lon="5.962240">
						<ele>1778</ele>
						<time>2026-09-02T17:33:38Z</time>
					</trkpt>
					<trkpt lat="44.518080" lon="5.962200">
						<ele>1774</ele>
						<time>2026-09-02T17:33:45Z</time>
					</trkpt>
					<trkpt lat="44.518180" lon="5.962090">
						<ele>1774</ele>
						<time>2026-09-02T17:33:51Z</time>
					</trkpt>
					<trkpt lat="44.518270" lon="5.962030">
						<ele>1772</ele>
						<time>2026-09-02T17:33:56Z</time>
					</trkpt>
					<trkpt lat="44.518800" lon="5.961350">
						<ele>1762</ele>
						<time>2026-09-02T17:34:32Z</time>
					</trkpt>
					<trkpt lat="44.518860" lon="5.961310">
						<ele>1759</ele>
						<time>2026-09-02T17:34:35Z</time>
					</trkpt>
					<trkpt lat="44.518990" lon="5.961080">
						<ele>1757</ele>
						<time>2026-09-02T17:34:46Z</time>
					</trkpt>
					<trkpt lat="44.519560" lon="5.960450">
						<ele>1742</ele>
						<time>2026-09-02T17:35:22Z</time>
					</trkpt>
					<trkpt lat="44.520230" lon="5.959880">
						<ele>1729</ele>
						<time>2026-09-02T17:36:01Z</time>
					</trkpt>
					<trkpt lat="44.520410" lon="5.959770">
						<ele>1725</ele>
						<time>2026-09-02T17:36:11Z</time>
					</trkpt>
					<trkpt lat="44.520540" lon="5.959770">
						<ele>1719</ele>
						<time>2026-09-02T17:36:18Z</time>
					</trkpt>
					<trkpt lat="44.520630" lon="5.959680">
						<ele>1718</ele>
						<time>2026-09-02T17:36:23Z</time>
					</trkpt>
					<trkpt lat="44.520920" lon="5.959560">
						<ele>1711</ele>
						<time>2026-09-02T17:36:38Z</time>
					</trkpt>
					<trkpt lat="44.521450" lon="5.959180">
						<ele>1699</ele>
						<time>2026-09-02T17:37:08Z</time>
					</trkpt>
					<trkpt lat="44.521820" lon="5.958720">
						<ele>1695</ele>
						<time>2026-09-02T17:37:33Z</time>
					</trkpt>
					<trkpt lat="44.522040" lon="5.958510">
						<ele>1689</ele>
						<time>2026-09-02T17:37:46Z</time>
					</trkpt>
					<trkpt lat="44.522190" lon="5.958320">
						<ele>1685</ele>
						<time>2026-09-02T17:37:56Z</time>
					</trkpt>
					<trkpt lat="44.522530" lon="5.957980">
						<ele>1678</ele>
						<time>2026-09-02T17:38:17Z</time>
					</trkpt>
					<trkpt lat="44.522780" lon="5.957770">
						<ele>1668</ele>
						<time>2026-09-02T17:38:32Z</time>
					</trkpt>
					<trkpt lat="44.522830" lon="5.957780">
						<ele>1664</ele>
						<time>2026-09-02T17:38:34Z</time>
					</trkpt>
					<trkpt lat="44.522620" lon="5.958180">
						<ele>1663</ele>
						<time>2026-09-02T17:38:52Z</time>
					</trkpt>
					<trkpt lat="44.522500" lon="5.958550">
						<ele>1659</ele>
						<time>2026-09-02T17:39:06Z</time>
					</trkpt>
					<trkpt lat="44.522450" lon="5.958610">
						<ele>1660</ele>
						<time>2026-09-02T17:39:10Z</time>
					</trkpt>
					<trkpt lat="44.522430" lon="5.958730">
						<ele>1658</ele>
						<time>2026-09-02T17:39:14Z</time>
					</trkpt>
					<trkpt lat="44.522270" lon="5.959190">
						<ele>1654</ele>
						<time>2026-09-02T17:39:32Z</time>
					</trkpt>
					<trkpt lat="44.522150" lon="5.959800">
						<ele>1643</ele>
						<time>2026-09-02T17:39:55Z</time>
					</trkpt>
					<trkpt lat="44.522030" lon="5.960260">
						<ele>1637</ele>
						<time>2026-09-02T17:40:12Z</time>
					</trkpt>
					<trkpt lat="44.521920" lon="5.960490">
						<ele>1635</ele>
						<time>2026-09-02T17:40:22Z</time>
					</trkpt>
					<trkpt lat="44.521780" lon="5.960910">
						<ele>1629</ele>
						<time>2026-09-02T17:40:39Z</time>
					</trkpt>
					<trkpt lat="44.521670" lon="5.961060">
						<ele>1629</ele>
						<time>2026-09-02T17:40:46Z</time>
					</trkpt>
					<trkpt lat="44.521600" lon="5.961240">
						<ele>1627</ele>
						<time>2026-09-02T17:40:54Z</time>
					</trkpt>
					<trkpt lat="44.521400" lon="5.961570">
						<ele>1625</ele>
						<time>2026-09-02T17:41:09Z</time>
					</trkpt>
					<trkpt lat="44.521160" lon="5.962420">
						<ele>1613</ele>
						<time>2026-09-02T17:41:42Z</time>
					</trkpt>
					<trkpt lat="44.521090" lon="5.962560">
						<ele>1613</ele>
						<time>2026-09-02T17:41:48Z</time>
					</trkpt>
					<trkpt lat="44.521050" lon="5.962730">
						<ele>1612</ele>
						<time>2026-09-02T17:41:54Z</time>
					</trkpt>
					<trkpt lat="44.520880" lon="5.963050">
						<ele>1614</ele>
						<time>2026-09-02T17:42:09Z</time>
					</trkpt>
					<trkpt lat="44.520700" lon="5.963620">
						<ele>1613</ele>
						<time>2026-09-02T17:42:31Z</time>
					</trkpt>
					<trkpt lat="44.520900" lon="5.963540">
						<ele>1604</ele>
						<time>2026-09-02T17:42:41Z</time>
					</trkpt>
					<trkpt lat="44.521110" lon="5.963380">
						<ele>1597</ele>
						<time>2026-09-02T17:42:53Z</time>
					</trkpt>
					<trkpt lat="44.521310" lon="5.963100">
						<ele>1593</ele>
						<time>2026-09-02T17:43:07Z</time>
					</trkpt>
					<trkpt lat="44.521550" lon="5.962830">
						<ele>1587</ele>
						<time>2026-09-02T17:43:23Z</time>
					</trkpt>
					<trkpt lat="44.521620" lon="5.962710">
						<ele>1587</ele>
						<time>2026-09-02T17:43:28Z</time>
					</trkpt>
					<trkpt lat="44.521790" lon="5.962550">
						<ele>1582</ele>
						<time>2026-09-02T17:43:39Z</time>
					</trkpt>
					<trkpt lat="44.522460" lon="5.962020">
						<ele>1568</ele>
						<time>2026-09-02T17:44:17Z</time>
					</trkpt>
					<trkpt lat="44.522880" lon="5.961790">
						<ele>1556</ele>
						<time>2026-09-02T17:44:40Z</time>
					</trkpt>
					<trkpt lat="44.523230" lon="5.961440">
						<ele>1549</ele>
						<time>2026-09-02T17:45:01Z</time>
					</trkpt>
					<trkpt lat="44.523440" lon="5.961030">
						<ele>1547</ele>
						<time>2026-09-02T17:45:19Z</time>
					</trkpt>
					<trkpt lat="44.523500" lon="5.960820">
						<ele>1548</ele>
						<time>2026-09-02T17:45:27Z</time>
					</trkpt>
					<trkpt lat="44.523570" lon="5.960680">
						<ele>1547</ele>
						<time>2026-09-02T17:45:33Z</time>
					</trkpt>
					<trkpt lat="44.523890" lon="5.960210">
						<ele>1539</ele>
						<time>2026-09-02T17:45:56Z</time>
					</trkpt>
					<trkpt lat="44.524290" lon="5.959730">
						<ele>1530</ele>
						<time>2026-09-02T17:46:23Z</time>
					</trkpt>
					<trkpt lat="44.524340" lon="5.959760">
						<ele>1526</ele>
						<time>2026-09-02T17:46:26Z</time>
					</trkpt>
					<trkpt lat="44.524350" lon="5.959800">
						<ele>1525</ele>
						<time>2026-09-02T17:46:27Z</time>
					</trkpt>
					<trkpt lat="44.524130" lon="5.960600">
						<ele>1518</ele>
						<time>2026-09-02T17:46:58Z</time>
					</trkpt>
					<trkpt lat="44.524060" lon="5.961110">
						<ele>1511</ele>
						<time>2026-09-02T17:47:16Z</time>
					</trkpt>
					<trkpt lat="44.524050" lon="5.961690">
						<ele>1502</ele>
						<time>2026-09-02T17:47:37Z</time>
					</trkpt>
					<trkpt lat="44.524020" lon="5.961910">
						<ele>1499</ele>
						<time>2026-09-02T17:47:45Z</time>
					</trkpt>
					<trkpt lat="44.523760" lon="5.962970">
						<ele>1487</ele>
						<time>2026-09-02T17:48:25Z</time>
					</trkpt>
					<trkpt lat="44.523630" lon="5.963260">
						<ele>1485</ele>
						<time>2026-09-02T17:48:37Z</time>
					</trkpt>
					<trkpt lat="44.523550" lon="5.963590">
						<ele>1479</ele>
						<time>2026-09-02T17:48:49Z</time>
					</trkpt>
					<trkpt lat="44.523730" lon="5.963410">
						<ele>1477</ele>
						<time>2026-09-02T17:49:01Z</time>
					</trkpt>
					<trkpt lat="44.523920" lon="5.963280">
						<ele>1473</ele>
						<time>2026-09-02T17:49:11Z</time>
					</trkpt>
					<trkpt lat="44.524220" lon="5.962930">
						<ele>1471</ele>
						<time>2026-09-02T17:49:31Z</time>
					</trkpt>
					<trkpt lat="44.524320" lon="5.962980">
						<ele>1466</ele>
						<time>2026-09-02T17:49:36Z</time>
					</trkpt>
					<trkpt lat="44.524310" lon="5.963160">
						<ele>1462</ele>
						<time>2026-09-02T17:49:42Z</time>
					</trkpt>
					<trkpt lat="44.524540" lon="5.962960">
						<ele>1458</ele>
						<time>2026-09-02T17:49:56Z</time>
					</trkpt>
					<trkpt lat="44.524630" lon="5.962930">
						<ele>1455</ele>
						<time>2026-09-02T17:50:01Z</time>
					</trkpt>
					<trkpt lat="44.524720" lon="5.962850">
						<ele>1453</ele>
						<time>2026-09-02T17:50:06Z</time>
					</trkpt>
					<trkpt lat="44.524760" lon="5.962860">
						<ele>1451</ele>
						<time>2026-09-02T17:50:08Z</time>
					</trkpt>
					<trkpt lat="44.524790" lon="5.962980">
						<ele>1448</ele>
						<time>2026-09-02T17:50:12Z</time>
					</trkpt>
					<trkpt lat="44.524790" lon="5.963160">
						<ele>1445</ele>
						<time>2026-09-02T17:50:19Z</time>
					</trkpt>
					<trkpt lat="44.524830" lon="5.963310">
						<ele>1440</ele>
						<time>2026-09-02T17:50:25Z</time>
					</trkpt>
					<trkpt lat="44.524820" lon="5.963490">
						<ele>1437</ele>
						<time>2026-09-02T17:50:31Z</time>
					</trkpt>
					<trkpt lat="44.524710" lon="5.963880">
						<ele>1432</ele>
						<time>2026-09-02T17:50:46Z</time>
					</trkpt>
					<trkpt lat="44.524660" lon="5.964160">
						<ele>1427</ele>
						<time>2026-09-02T17:50:56Z</time>
					</trkpt>
					<trkpt lat="44.524510" lon="5.964530">
						<ele>1421</ele>
						<time>2026-09-02T17:51:12Z</time>
					</trkpt>
					<trkpt lat="44.524450" lon="5.964750">
						<ele>1416</ele>
						<time>2026-09-02T17:51:20Z</time>
					</trkpt>
					<trkpt lat="44.524400" lon="5.964990">
						<ele>1410</ele>
						<time>2026-09-02T17:51:29Z</time>
					</trkpt>
					<trkpt lat="44.524450" lon="5.965070">
						<ele>1405</ele>
						<time>2026-09-02T17:51:33Z</time>
					</trkpt>
					<trkpt lat="44.524500" lon="5.965080">
						<ele>1404</ele>
						<time>2026-09-02T17:51:35Z</time>
					</trkpt>
					<trkpt lat="44.524750" lon="5.964890">
						<ele>1404</ele>
						<time>2026-09-02T17:51:49Z</time>
					</trkpt>
					<trkpt lat="44.524960" lon="5.964900">
						<ele>1399</ele>
						<time>2026-09-02T17:52:00Z</time>
					</trkpt>
					<trkpt lat="44.525210" lon="5.964870">
						<ele>1391</ele>
						<time>2026-09-02T17:52:12Z</time>
					</trkpt>
					<trkpt lat="44.525320" lon="5.964890">
						<ele>1387</ele>
						<time>2026-09-02T17:52:18Z</time>
					</trkpt>
					<trkpt lat="44.525490" lon="5.964810">
						<ele>1383</ele>
						<time>2026-09-02T17:52:27Z</time>
					</trkpt>
					<trkpt lat="44.525560" lon="5.964740">
						<ele>1382</ele>
						<time>2026-09-02T17:52:31Z</time>
					</trkpt>
					<trkpt lat="44.525790" lon="5.964680">
						<ele>1375</ele>
						<time>2026-09-02T17:52:43Z</time>
					</trkpt>
					<trkpt lat="44.526050" lon="5.964430">
						<ele>1369</ele>
						<time>2026-09-02T17:52:59Z</time>
					</trkpt>
					<trkpt lat="44.526190" lon="5.964340">
						<ele>1365</ele>
						<time>2026-09-02T17:53:06Z</time>
					</trkpt>
					<trkpt lat="44.526390" lon="5.964260">
						<ele>1359</ele>
						<time>2026-09-02T17:53:17Z</time>
					</trkpt>
					<trkpt lat="44.526600" lon="5.964120">
						<ele>1353</ele>
						<time>2026-09-02T17:53:29Z</time>
					</trkpt>
					<trkpt lat="44.526760" lon="5.964090">
						<ele>1348</ele>
						<time>2026-09-02T17:53:37Z</time>
					</trkpt>
					<trkpt lat="44.526920" lon="5.964000">
						<ele>1345</ele>
						<time>2026-09-02T17:53:45Z</time>
					</trkpt>
					<trkpt lat="44.527180" lon="5.963950">
						<ele>1338</ele>
						<time>2026-09-02T17:53:58Z</time>
					</trkpt>
					<trkpt lat="44.527240" lon="5.963990">
						<ele>1336</ele>
						<time>2026-09-02T17:54:02Z</time>
					</trkpt>
					<trkpt lat="44.527350" lon="5.964460">
						<ele>1323</ele>
						<time>2026-09-02T17:54:19Z</time>
					</trkpt>
					<trkpt lat="44.527400" lon="5.964550">
						<ele>1320</ele>
						<time>2026-09-02T17:54:23Z</time>
					</trkpt>
					<trkpt lat="44.527480" lon="5.964610">
						<ele>1316</ele>
						<time>2026-09-02T17:54:28Z</time>
					</trkpt>
					<trkpt lat="44.527700" lon="5.964870">
						<ele>1306</ele>
						<time>2026-09-02T17:54:42Z</time>
					</trkpt>
					<trkpt lat="44.527860" lon="5.965100">
						<ele>1297</ele>
						<time>2026-09-02T17:54:54Z</time>
					</trkpt>
					<trkpt lat="44.527920" lon="5.965250">
						<ele>1292</ele>
						<time>2026-09-02T17:55:00Z</time>
					</trkpt>
					<trkpt lat="44.527910" lon="5.965380">
						<ele>1288</ele>
						<time>2026-09-02T17:55:05Z</time>
					</trkpt>
					<trkpt lat="44.527640" lon="5.965700">
						<ele>1284</ele>
						<time>2026-09-02T17:55:22Z</time>
					</trkpt>
					<trkpt lat="44.527470" lon="5.965810">
						<ele>1284</ele>
						<time>2026-09-02T17:55:32Z</time>
					</trkpt>
					<trkpt lat="44.527450" lon="5.965920">
						<ele>1281</ele>
						<time>2026-09-02T17:55:36Z</time>
					</trkpt>
					<trkpt lat="44.527560" lon="5.966010">
						<ele>1275</ele>
						<time>2026-09-02T17:55:42Z</time>
					</trkpt>
					<trkpt lat="44.527800" lon="5.966370">
						<ele>1260</ele>
						<time>2026-09-02T17:56:00Z</time>
					</trkpt>
					<trkpt lat="44.527990" lon="5.966490">
						<ele>1253</ele>
						<time>2026-09-02T17:56:10Z</time>
					</trkpt>
					<trkpt lat="44.528200" lon="5.966780">
						<ele>1242</ele>
						<time>2026-09-02T17:56:25Z</time>
					</trkpt>
					<trkpt lat="44.528250" lon="5.966920">
						<ele>1238</ele>
						<time>2026-09-02T17:56:30Z</time>
					</trkpt>
					<trkpt lat="44.528250" lon="5.967180">
						<ele>1231</ele>
						<time>2026-09-02T17:56:40Z</time>
					</trkpt>
					<trkpt lat="44.528300" lon="5.967240">
						<ele>1230</ele>
						<time>2026-09-02T17:56:43Z</time>
					</trkpt>
					<trkpt lat="44.528380" lon="5.967280">
						<ele>1227</ele>
						<time>2026-09-02T17:56:47Z</time>
					</trkpt>
					<trkpt lat="44.528510" lon="5.967250">
						<ele>1225</ele>
						<time>2026-09-02T17:56:54Z</time>
					</trkpt>
					<trkpt lat="44.528700" lon="5.967330">
						<ele>1219</ele>
						<time>2026-09-02T17:57:04Z</time>
					</trkpt>
					<trkpt lat="44.528930" lon="5.967340">
						<ele>1213</ele>
						<time>2026-09-02T17:57:15Z</time>
					</trkpt>
					<trkpt lat="44.529190" lon="5.967210">
						<ele>1208</ele>
						<time>2026-09-02T17:57:29Z</time>
					</trkpt>
					<trkpt lat="44.529370" lon="5.967220">
						<ele>1203</ele>
						<time>2026-09-02T17:57:38Z</time>
					</trkpt>
					<trkpt lat="44.529460" lon="5.967290">
						<ele>1199</ele>
						<time>2026-09-02T17:57:43Z</time>
					</trkpt>
					<trkpt lat="44.529640" lon="5.967370">
						<ele>1193</ele>
						<time>2026-09-02T17:57:53Z</time>
					</trkpt>
					<trkpt lat="44.529800" lon="5.967380">
						<ele>1187</ele>
						<time>2026-09-02T17:58:01Z</time>
					</trkpt>
					<trkpt lat="44.529860" lon="5.967410">
						<ele>1185</ele>
						<time>2026-09-02T17:58:04Z</time>
					</trkpt>
					<trkpt lat="44.530030" lon="5.967670">
						<ele>1177</ele>
						<time>2026-09-02T17:58:16Z</time>
					</trkpt>
					<trkpt lat="44.530080" lon="5.967700">
						<ele>1176</ele>
						<time>2026-09-02T17:58:19Z</time>
					</trkpt>
					<trkpt lat="44.530660" lon="5.967600">
						<ele>1165</ele>
						<time>2026-09-02T17:58:48Z</time>
					</trkpt>
					<trkpt lat="44.530940" lon="5.967640">
						<ele>1160</ele>
						<time>2026-09-02T17:59:03Z</time>
					</trkpt>
					<trkpt lat="44.531250" lon="5.967780">
						<ele>1156</ele>
						<time>2026-09-02T17:59:19Z</time>
					</trkpt>
					<trkpt lat="44.531760" lon="5.967800">
						<ele>1149</ele>
						<time>2026-09-02T17:59:44Z</time>
					</trkpt>
					<trkpt lat="44.531800" lon="5.967820">
						<ele>1148</ele>
						<time>2026-09-02T17:59:46Z</time>
					</trkpt>
					<trkpt lat="44.532130" lon="5.968090">
						<ele>1141</ele>
						<time>2026-09-02T18:00:06Z</time>
					</trkpt>
					<trkpt lat="44.532380" lon="5.968160">
						<ele>1137</ele>
						<time>2026-09-02T18:00:18Z</time>
					</trkpt>
					<trkpt lat="44.532420" lon="5.968190">
						<ele>1136</ele>
						<time>2026-09-02T18:00:21Z</time>
					</trkpt>
					<trkpt lat="44.532710" lon="5.968550">
						<ele>1125</ele>
						<time>2026-09-02T18:00:40Z</time>
					</trkpt>
					<trkpt lat="44.532760" lon="5.968720">
						<ele>1123</ele>
						<time>2026-09-02T18:00:47Z</time>
					</trkpt>
					<trkpt lat="44.532760" lon="5.968880">
						<ele>1122</ele>
						<time>2026-09-02T18:00:52Z</time>
					</trkpt>
					<trkpt lat="44.532690" lon="5.969290">
						<ele>1122</ele>
						<time>2026-09-02T18:01:07Z</time>
					</trkpt>
					<trkpt lat="44.532590" lon="5.969620">
						<ele>1120</ele>
						<time>2026-09-02T18:01:20Z</time>
					</trkpt>
					<trkpt lat="44.532610" lon="5.969700">
						<ele>1118</ele>
						<time>2026-09-02T18:01:23Z</time>
					</trkpt>
					<trkpt lat="44.532670" lon="5.969710">
						<ele>1116</ele>
						<time>2026-09-02T18:01:26Z</time>
					</trkpt>
					<trkpt lat="44.532990" lon="5.969480">
						<ele>1109</ele>
						<time>2026-09-02T18:01:44Z</time>
					</trkpt>
					<trkpt lat="44.533100" lon="5.969280">
						<ele>1107</ele>
						<time>2026-09-02T18:01:53Z</time>
					</trkpt>
					<trkpt lat="44.533160" lon="5.968620">
						<ele>1108</ele>
						<time>2026-09-02T18:02:17Z</time>
					</trkpt>
					<trkpt lat="44.533140" lon="5.968280">
						<ele>1110</ele>
						<time>2026-09-02T18:02:29Z</time>
					</trkpt>
					<trkpt lat="44.533200" lon="5.967770">
						<ele>1109</ele>
						<time>2026-09-02T18:02:48Z</time>
					</trkpt>
					<trkpt lat="44.533190" lon="5.967510">
						<ele>1110</ele>
						<time>2026-09-02T18:02:57Z</time>
					</trkpt>
					<trkpt lat="44.533240" lon="5.967320">
						<ele>1109</ele>
						<time>2026-09-02T18:03:04Z</time>
					</trkpt>
					<trkpt lat="44.533340" lon="5.967160">
						<ele>1105</ele>
						<time>2026-09-02T18:03:12Z</time>
					</trkpt>
					<trkpt lat="44.533530" lon="5.967000">
						<ele>1099</ele>
						<time>2026-09-02T18:03:23Z</time>
					</trkpt>
					<trkpt lat="44.533620" lon="5.966890">
						<ele>1096</ele>
						<time>2026-09-02T18:03:29Z</time>
					</trkpt>
					<trkpt lat="44.533840" lon="5.966420">
						<ele>1090</ele>
						<time>2026-09-02T18:03:49Z</time>
					</trkpt>
					<trkpt lat="44.533910" lon="5.966360">
						<ele>1088</ele>
						<time>2026-09-02T18:03:53Z</time>
					</trkpt>
					<trkpt lat="44.534120" lon="5.966330">
						<ele>1081</ele>
						<time>2026-09-02T18:04:03Z</time>
					</trkpt>
					<trkpt lat="44.534230" lon="5.966250">
						<ele>1078</ele>
						<time>2026-09-02T18:04:10Z</time>
					</trkpt>
					<trkpt lat="44.534290" lon="5.966190">
						<ele>1077</ele>
						<time>2026-09-02T18:04:13Z</time>
					</trkpt>
					<trkpt lat="44.534420" lon="5.965910">
						<ele>1075</ele>
						<time>2026-09-02T18:04:25Z</time>
					</trkpt>
					<trkpt lat="44.534460" lon="5.965890">
						<ele>1074</ele>
						<time>2026-09-02T18:04:27Z</time>
					</trkpt>
					<trkpt lat="44.534520" lon="5.965920">
						<ele>1072</ele>
						<time>2026-09-02T18:04:31Z</time>
					</trkpt>
					<trkpt lat="44.534610" lon="5.966070">
						<ele>1068</ele>
						<time>2026-09-02T18:04:38Z</time>
					</trkpt>
					<trkpt lat="44.534520" lon="5.965920">
						<ele>1072</ele>
						<time>2026-09-02T18:04:45Z</time>
					</trkpt>
					<trkpt lat="44.534500" lon="5.965830">
						<ele>1073</ele>
						<time>2026-09-02T18:04:48Z</time>
					</trkpt>
					<trkpt lat="44.534500" lon="5.965550">
						<ele>1074</ele>
						<time>2026-09-02T18:04:58Z</time>
					</trkpt>
					<trkpt lat="44.534620" lon="5.964940">
						<ele>1072</ele>
						<time>2026-09-02T18:05:20Z</time>
					</trkpt>
					<trkpt lat="44.534540" lon="5.964500">
						<ele>1070</ele>
						<time>2026-09-02T18:05:37Z</time>
					</trkpt>
					<trkpt lat="44.534520" lon="5.964250">
						<ele>1068</ele>
						<time>2026-09-02T18:05:46Z</time>
					</trkpt>
					<trkpt lat="44.534430" lon="5.964010">
						<ele>1067</ele>
						<time>2026-09-02T18:05:55Z</time>
					</trkpt>
					<trkpt lat="44.534190" lon="5.963700">
						<ele>1068</ele>
						<time>2026-09-02T18:06:12Z</time>
					</trkpt>
					<trkpt lat="44.534110" lon="5.963470">
						<ele>1065</ele>
						<time>2026-09-02T18:06:21Z</time>
					</trkpt>
					<trkpt lat="44.534070" lon="5.963330">
						<ele>1063</ele>
						<time>2026-09-02T18:06:26Z</time>
					</trkpt>
					<trkpt lat="44.534030" lon="5.963000">
						<ele>1061</ele>
						<time>2026-09-02T18:06:38Z</time>
					</trkpt>
					<trkpt lat="44.533950" lon="5.962710">
						<ele>1060</ele>
						<time>2026-09-02T18:06:49Z</time>
					</trkpt>
					<trkpt lat="44.533990" lon="5.962570">
						<ele>1057</ele>
						<time>2026-09-02T18:06:55Z</time>
					</trkpt>
					<trkpt lat="44.534050" lon="5.962520">
						<ele>1055</ele>
						<time>2026-09-02T18:06:58Z</time>
					</trkpt>
					<trkpt lat="44.534310" lon="5.962420">
						<ele>1051</ele>
						<time>2026-09-02T18:07:12Z</time>
					</trkpt>
					<trkpt lat="44.534390" lon="5.962430">
						<ele>1051</ele>
						<time>2026-09-02T18:07:16Z</time>
					</trkpt>
					<trkpt lat="44.534620" lon="5.962370">
						<ele>1049</ele>
						<time>2026-09-02T18:07:27Z</time>
					</trkpt>
					<trkpt lat="44.534760" lon="5.962460">
						<ele>1046</ele>
						<time>2026-09-02T18:07:35Z</time>
					</trkpt>
					<trkpt lat="44.534860" lon="5.962480">
						<ele>1045</ele>
						<time>2026-09-02T18:07:40Z</time>
					</trkpt>
					<trkpt lat="44.535060" lon="5.962680">
						<ele>1042</ele>
						<time>2026-09-02T18:07:52Z</time>
					</trkpt>
					<trkpt lat="44.535270" lon="5.962750">
						<ele>1040</ele>
						<time>2026-09-02T18:08:03Z</time>
					</trkpt>
					<trkpt lat="44.535660" lon="5.963030">
						<ele>1035</ele>
						<time>2026-09-02T18:08:25Z</time>
					</trkpt>
					<trkpt lat="44.536290" lon="5.963270">
						<ele>1028</ele>
						<time>2026-09-02T18:08:58Z</time>
					</trkpt>
					<trkpt lat="44.536640" lon="5.963330">
						<ele>1024</ele>
						<time>2026-09-02T18:09:15Z</time>
					</trkpt>
					<trkpt lat="44.536830" lon="5.963320">
						<ele>1022</ele>
						<time>2026-09-02T18:09:25Z</time>
					</trkpt>
					<trkpt lat="44.537310" lon="5.963170">
						<ele>1018</ele>
						<time>2026-09-02T18:09:49Z</time>
					</trkpt>
					<trkpt lat="44.537800" lon="5.963360">
						<ele>1011</ele>
						<time>2026-09-02T18:10:15Z</time>
					</trkpt>
					<trkpt lat="44.537900" lon="5.963370">
						<ele>1010</ele>
						<time>2026-09-02T18:10:20Z</time>
					</trkpt>
					<trkpt lat="44.537970" lon="5.963330">
						<ele>1009</ele>
						<time>2026-09-02T18:10:24Z</time>
					</trkpt>
					<trkpt lat="44.538270" lon="5.962840">
						<ele>1007</ele>
						<time>2026-09-02T18:10:47Z</time>
					</trkpt>
					<trkpt lat="44.538680" lon="5.962240">
						<ele>1006</ele>
						<time>2026-09-02T18:11:16Z</time>
					</trkpt>
					<trkpt lat="44.538680" lon="5.962200">
						<ele>1006</ele>
						<time>2026-09-02T18:11:18Z</time>
					</trkpt>
					<trkpt lat="44.538670" lon="5.962240">
						<ele>1006</ele>
						<time>2026-09-02T18:11:19Z</time>
					</trkpt>
					<trkpt lat="44.539410" lon="5.961510">
						<ele>1003</ele>
						<time>2026-09-02T18:12:05Z</time>
					</trkpt>
					<trkpt lat="44.539750" lon="5.961130">
						<ele>1001</ele>
						<time>2026-09-02T18:12:26Z</time>
					</trkpt>
					<trkpt lat="44.540000" lon="5.960460">
						<ele>1000</ele>
						<time>2026-09-02T18:12:53Z</time>
					</trkpt>
					<trkpt lat="44.540070" lon="5.960340">
						<ele>1000</ele>
						<time>2026-09-02T18:12:59Z</time>
					</trkpt>
					<trkpt lat="44.540130" lon="5.960290">
						<ele>999</ele>
						<time>2026-09-02T18:13:02Z</time>
					</trkpt>
					<trkpt lat="44.540290" lon="5.960310">
						<ele>997</ele>
						<time>2026-09-02T18:13:10Z</time>
					</trkpt>
					<trkpt lat="44.540750" lon="5.960510">
						<ele>990</ele>
						<time>2026-09-02T18:13:34Z</time>
					</trkpt>
					<trkpt lat="44.540830" lon="5.960520">
						<ele>989</ele>
						<time>2026-09-02T18:13:38Z</time>
					</trkpt>
					<trkpt lat="44.540900" lon="5.960500">
						<ele>988</ele>
						<time>2026-09-02T18:13:42Z</time>
					</trkpt>
					<trkpt lat="44.541090" lon="5.960330">
						<ele>985</ele>
						<time>2026-09-02T18:13:53Z</time>
					</trkpt>
					<trkpt lat="44.541440" lon="5.960110">
						<ele>981</ele>
						<time>2026-09-02T18:14:13Z</time>
					</trkpt>
					<trkpt lat="44.541700" lon="5.960000">
						<ele>978</ele>
						<time>2026-09-02T18:14:26Z</time>
					</trkpt>
					<trkpt lat="44.542360" lon="5.959900">
						<ele>971</ele>
						<time>2026-09-02T18:14:59Z</time>
					</trkpt>
					<trkpt lat="44.542740" lon="5.959880">
						<ele>967</ele>
						<time>2026-09-02T18:15:18Z</time>
					</trkpt>
					<trkpt lat="44.543050" lon="5.959950">
						<ele>964</ele>
						<time>2026-09-02T18:15:34Z</time>
					</trkpt>
					<trkpt lat="44.543330" lon="5.960090">
						<ele>961</ele>
						<time>2026-09-02T18:15:49Z</time>
					</trkpt>
					<trkpt lat="44.543580" lon="5.960150">
						<ele>960</ele>
						<time>2026-09-02T18:16:02Z</time>
					</trkpt>
					<trkpt lat="44.543910" lon="5.960280">
						<ele>959</ele>
						<time>2026-09-02T18:16:19Z</time>
					</trkpt>
					<trkpt lat="44.544150" lon="5.960310">
						<ele>959</ele>
						<time>2026-09-02T18:16:31Z</time>
					</trkpt>
					<trkpt lat="44.544320" lon="5.960370">
						<ele>958</ele>
						<time>2026-09-02T18:16:40Z</time>
					</trkpt>
					<trkpt lat="44.544420" lon="5.960340">
						<ele>958</ele>
						<time>2026-09-02T18:16:45Z</time>
					</trkpt>
					<trkpt lat="44.544450" lon="5.960310">
						<ele>957</ele>
						<time>2026-09-02T18:16:47Z</time>
					</trkpt>
					<trkpt lat="44.544580" lon="5.959900">
						<ele>956</ele>
						<time>2026-09-02T18:17:03Z</time>
					</trkpt>
					<trkpt lat="44.544730" lon="5.958290">
						<ele>951</ele>
						<time>2026-09-02T18:18:01Z</time>
					</trkpt>
					<trkpt lat="44.544800" lon="5.958030">
						<ele>951</ele>
						<time>2026-09-02T18:18:10Z</time>
					</trkpt>
					<trkpt lat="44.544890" lon="5.957830">
						<ele>950</ele>
						<time>2026-09-02T18:18:19Z</time>
					</trkpt>
					<trkpt lat="44.544990" lon="5.957710">
						<ele>950</ele>
						<time>2026-09-02T18:18:25Z</time>
					</trkpt>
					<trkpt lat="44.545160" lon="5.957610">
						<ele>948</ele>
						<time>2026-09-02T18:18:35Z</time>
					</trkpt>
					<trkpt lat="44.545390" lon="5.957520">
						<ele>947</ele>
						<time>2026-09-02T18:18:47Z</time>
					</trkpt>
					<trkpt lat="44.545630" lon="5.957470">
						<ele>946</ele>
						<time>2026-09-02T18:18:59Z</time>
					</trkpt>
					<trkpt lat="44.545860" lon="5.957330">
						<ele>945</ele>
						<time>2026-09-02T18:19:11Z</time>
					</trkpt>
					<trkpt lat="44.546100" lon="5.957160">
						<ele>945</ele>
						<time>2026-09-02T18:19:25Z</time>
					</trkpt>
					<trkpt lat="44.546370" lon="5.956880">
						<ele>944</ele>
						<time>2026-09-02T18:19:42Z</time>
					</trkpt>
					<trkpt lat="44.546440" lon="5.956560">
						<ele>944</ele>
						<time>2026-09-02T18:19:54Z</time>
					</trkpt>
					<trkpt lat="44.546430" lon="5.955990">
						<ele>944</ele>
						<time>2026-09-02T18:20:14Z</time>
					</trkpt>
					<trkpt lat="44.546470" lon="5.955810">
						<ele>944</ele>
						<time>2026-09-02T18:20:21Z</time>
					</trkpt>
					<trkpt lat="44.546570" lon="5.955610">
						<ele>944</ele>
						<time>2026-09-02T18:20:29Z</time>
					</trkpt>
					<trkpt lat="44.546710" lon="5.955390">
						<ele>944</ele>
						<time>2026-09-02T18:20:40Z</time>
					</trkpt>
					<trkpt lat="44.547250" lon="5.954940">
						<ele>942</ele>
						<time>2026-09-02T18:21:11Z</time>
					</trkpt>
					<trkpt lat="44.547410" lon="5.954700">
						<ele>941</ele>
						<time>2026-09-02T18:21:23Z</time>
					</trkpt>
					<trkpt lat="44.547570" lon="5.954370">
						<ele>941</ele>
						<time>2026-09-02T18:21:37Z</time>
					</trkpt>
					<trkpt lat="44.547840" lon="5.953620">
						<ele>941</ele>
						<time>2026-09-02T18:22:07Z</time>
					</trkpt>
					<trkpt lat="44.548130" lon="5.952940">
						<ele>940</ele>
						<time>2026-09-02T18:22:35Z</time>
					</trkpt>
					<trkpt lat="44.548480" lon="5.952430">
						<ele>939</ele>
						<time>2026-09-02T18:23:01Z</time>
					</trkpt>
					<trkpt lat="44.548610" lon="5.952160">
						<ele>940</ele>
						<time>2026-09-02T18:23:12Z</time>
					</trkpt>
					<trkpt lat="44.548850" lon="5.951760">
						<ele>940</ele>
						<time>2026-09-02T18:23:31Z</time>
					</trkpt>
					<trkpt lat="44.549070" lon="5.951470">
						<ele>940</ele>
						<time>2026-09-02T18:23:46Z</time>
					</trkpt>
					<trkpt lat="44.549400" lon="5.951190">
						<ele>938</ele>
						<time>2026-09-02T18:24:05Z</time>
					</trkpt>
					<trkpt lat="44.549570" lon="5.951090">
						<ele>938</ele>
						<time>2026-09-02T18:24:15Z</time>
					</trkpt>
					<trkpt lat="44.549630" lon="5.951070">
						<ele>937</ele>
						<time>2026-09-02T18:24:18Z</time>
					</trkpt>
					<trkpt lat="44.549960" lon="5.951110">
						<ele>936</ele>
						<time>2026-09-02T18:24:34Z</time>
					</trkpt>
					<trkpt lat="44.550300" lon="5.951120">
						<ele>935</ele>
						<time>2026-09-02T18:24:51Z</time>
					</trkpt>
					<trkpt lat="44.551440" lon="5.951230">
						<ele>930</ele>
						<time>2026-09-02T18:25:48Z</time>
					</trkpt>
					<trkpt lat="44.551720" lon="5.951290">
						<ele>928</ele>
						<time>2026-09-02T18:26:03Z</time>
					</trkpt>
					<trkpt lat="44.551820" lon="5.951280">
						<ele>928</ele>
						<time>2026-09-02T18:26:08Z</time>
					</trkpt>
					<trkpt lat="44.551960" lon="5.951310">
						<ele>928</ele>
						<time>2026-09-02T18:26:15Z</time>
					</trkpt>
					<trkpt lat="44.552060" lon="5.951300">
						<ele>928</ele>
						<time>2026-09-02T18:26:20Z</time>
					</trkpt>
					<trkpt lat="44.553220" lon="5.951410">
						<ele>926</ele>
						<time>2026-09-02T18:27:18Z</time>
					</trkpt>
					<trkpt lat="44.554150" lon="5.951510">
						<ele>926</ele>
						<time>2026-09-02T18:28:05Z</time>
					</trkpt>
					<trkpt lat="44.554360" lon="5.951550">
						<ele>926</ele>
						<time>2026-09-02T18:28:15Z</time>
					</trkpt>
					<trkpt lat="44.554490" lon="5.951600">
						<ele>926</ele>
						<time>2026-09-02T18:28:22Z</time>
					</trkpt>
					<trkpt lat="44.557250" lon="5.953560">
						<ele>931</ele>
						<time>2026-09-02T18:30:57Z</time>
					</trkpt>
					<trkpt lat="44.557530" lon="5.953690">
						<ele>931</ele>
						<time>2026-09-02T18:31:11Z</time>
					</trkpt>
					<trkpt lat="44.557840" lon="5.953730">
						<ele>932</ele>
						<time>2026-09-02T18:31:27Z</time>
					</trkpt>
					<trkpt lat="44.558130" lon="5.953820">
						<ele>932</ele>
						<time>2026-09-02T18:31:42Z</time>
					</trkpt>
					<trkpt lat="44.558320" lon="5.953910">
						<ele>932</ele>
						<time>2026-09-02T18:31:52Z</time>
					</trkpt>
					<trkpt lat="44.558500" lon="5.954050">
						<ele>932</ele>
						<time>2026-09-02T18:32:02Z</time>
					</trkpt>
					<trkpt lat="44.558680" lon="5.954230">
						<ele>932</ele>
						<time>2026-09-02T18:32:13Z</time>
					</trkpt>
					<trkpt lat="44.558890" lon="5.954490">
						<ele>933</ele>
						<time>2026-09-02T18:32:27Z</time>
					</trkpt>
					<trkpt lat="44.559110" lon="5.954800">
						<ele>933</ele>
						<time>2026-09-02T18:32:43Z</time>
					</trkpt>
					<trkpt lat="44.559130" lon="5.954840">
						<ele>933</ele>
						<time>2026-09-02T18:32:45Z</time>
					</trkpt>
					<trkpt lat="44.559110" lon="5.954870">
						<ele>933</ele>
						<time>2026-09-02T18:32:46Z</time>
					</trkpt>
					<trkpt lat="44.559130" lon="5.954860">
						<ele>933</ele>
						<time>2026-09-02T18:32:47Z</time>
					</trkpt>
					<trkpt lat="44.559160" lon="5.954890">
						<ele>933</ele>
						<time>2026-09-02T18:32:49Z</time>
					</trkpt>
					<trkpt lat="44.559610" lon="5.955600">
						<ele>934</ele>
						<time>2026-09-02T18:33:23Z</time>
					</trkpt>
					<trkpt lat="44.559820" lon="5.955990">
						<ele>934</ele>
						<time>2026-09-02T18:33:40Z</time>
					</trkpt>
					<trkpt lat="44.559990" lon="5.956480">
						<ele>934</ele>
						<time>2026-09-02T18:34:00Z</time>
					</trkpt>
					</trkseg>
				</trk>
			</gpx>